GFSCGP_sfc_rhum_000.txt.gz
RH
27 26 28 28 24 18 22 24 26 29 31 50 62 64 62 72 76 76 77 75 71 69 74 74 80 81 78 88 85 82 83 84 81 82 82 79 80 85 72 66 62 60 57 60
28 30 28 31 33 30 30 33 41 41 39 49 54 54 53 55 65 76 73 72 67 67 64 62 62 70 77 84 82 77 74 72 66 74 84 83 85 75 68 60 61 64 63 62
31 29 30 35 35 35 42 35 38 44 44 47 50 54 56 52 63 64 67 68 65 67 68 59 57 61 66 63 62 55 58 58 64 75 74 68 67 69 62 69 62 65 65 65
37 36 33 34 33 38 41 39 38 48 50 56 47 76 59 64 71 69 72 70 72 64 57 53 51 49 48 52 50 50 51 51 52 56 57 56 64 65 77 70 63 66 66 65
41 39 36 33 38 38 42 36 38 40 43 46 50 65 61 64 72 70 71 68 72 72 59 52 53 53 59 53 53 56 52 52 54 58 66 71 68 76 75 67 62 60 65 66
40 36 35 38 37 36 36 44 49 57 57 66 52 59 66 70 64 68 65 64 65 67 68 61 57 52 54 58 58 57 60 64 64 64 66 65 67 66 61 64 67 68 68 72
37 38 35 37 40 39 44 50 69 64 74 76 57 59 56 50 55 58 60 63 67 73 73 70 58 58 64 62 61 59 59 59 60 62 61 60 56 54 60 66 73 74 74 77
48 51 38 32 40 41 46 50 70 64 84 67 54 66 55 47 47 52 56 61 66 69 66 65 71 68 66 62 56 55 55 55 58 62 62 64 66 72 74 77 76 74 80 82
51 47 36 36 37 40 47 53 49 72 75 73 70 57 52 59 57 56 56 60 71 70 72 70 68 64 65 68 66 57 56 56 58 62 68 70 69 67 72 74 80 85 86 81
46 44 42 34 39 38 42 41 50 70 63 72 70 67 69 62 60 57 62 65 71 69 70 66 62 63 66 68 73 63 51 46 48 51 60 56 59 62 70 79 80 84 86 80
47 46 44 43 45 48 45 48 60 62 74 73 86 72 57 55 57 56 63 69 70 73 68 64 62 60 53 48 46 43 43 41 45 50 55 58 64 68 72 77 82 84 79 77
56 59 72 46 43 47 45 50 47 62 54 88 87 59 59 60 52 62 71 70 72 67 63 61 57 47 40 40 40 43 41 40 45 50 56 61 66 68 72 75 77 77 74 73
49 64 77 55 43 42 48 57 59 63 78 76 82 60 65 70 71 70 77 75 72 70 66 64 56 41 40 43 46 43 41 40 44 46 54 65 72 76 75 72 71 73 74 74
60 63 56 61 52 54 47 55 56 52 75 70 74 51 73 77 77 81 79 76 73 68 63 61 54 40 42 44 43 43 45 50 49 49 58 69 76 81 83 82 80 82 85 90
54 60 67 71 67 57 48 46 60 52 54 58 56 56 48 70 76 78 76 75 72 68 60 58 50 42 40 41 46 43 48 51 52 52 57 68 79 80 83 87 90 91 89 81
69 74 75 80 76 70 58 49 53 60 56 62 69 61 71 77 79 79 76 74 71 65 56 50 44 32 36 41 43 42 45 49 53 56 60 71 78 82 86 90 92 93 88 90
76 89 62 51 80 66 56 52 52 54 55 57 73 57 81 85 78 76 80 74 70 61 51 46 36 30 32 40 42 42 44 49 53 60 62 74 81 85 87 91 94 95 93 84
95 89 82 80 74 53 42 51 55 55 63 68 72 74 74 78 83 76 74 72 72 60 50 47 43 29 28 39 41 46 45 48 54 59 65 77 82 84 88 92 92 93 93 91
74 89 95 73 78 49 36 69 70 64 54 74 71 80 79 82 77 76 72 70 68 62 54 49 42 26 29 36 39 43 47 51 55 60 67 74 82 86 90 93 93 93 93 81
83 84 75 92 61 50 43 53 58 54 73 75 74 79 82 79 93 70 71 70 64 55 42 33 30 31 34 37 44 49 52 57 61 65 66 74 82 86 92 92 91 91 70 70
99 98 82 99 81 67 49 58 56 69 62 84 75 76 86 84 78 71 75 69 60 44 31 38 38 39 42 48 52 56 60 63 61 65 70 76 80 84 86 84 80 68 80 78
92 93 98 97 92 60 54 59 65 65 75 81 82 81 77 79 74 77 71 55 38 39 39 41 44 46 51 55 59 64 67 62 67 72 75 78 80 77 68 78 69 78 84 80
76 69 79 70 72 56 56 64 62 67 64 81 83 84 76 83 78 74 55 41 41 38 39 43 46 50 51 57 64 70 71 74 78 84 83 80 80 74 75 76 75 80 82 92
78 70 84 75 57 64 63 60 66 72 72 79 84 85 82 82 81 61 49 45 43 41 42 46 50 52 59 64 67 77 78 82 90 90 85 84 83 77 78 68 67 75 96 96
79 74 76 82 70 72 66 74 70 77 84 86 87 84 81 75 61 45 46 47 45 45 49 51 54 63 67 71 78 83 83 90 94 94 93 93 89 86 76 67 72 80 73 80
79 72 84 80 56 59 58 55 79 84 86 89 85 82 61 54 46 47 51 52 53 54 56 56 61 72 76 82 89 90 90 93 96 91 76 90 90 97 93 71 77 74 74 74

GFSCGP_sfc_rhum_003.txt.gz
RH
24 20 21 20 18 15 17 18 18 20 32 41 50 51 53 55 54 58 57 55 58 64 68 73 82 86 80 76 74 73 68 64 60 54 58 58 59 54 42 38 45 46 45 45
23 26 22 28 27 26 27 29 34 34 34 39 44 53 52 53 59 59 57 57 57 63 65 69 76 77 75 74 69 66 58 49 44 49 53 58 58 48 40 41 46 45 48 43
29 23 27 28 30 32 33 32 36 35 36 35 38 46 55 54 57 57 56 55 56 59 63 66 73 75 73 66 63 58 50 47 47 53 48 46 47 48 41 40 38 41 43 38
30 29 27 28 31 30 35 32 38 39 36 36 33 38 54 56 60 58 57 56 55 50 49 49 53 56 56 48 46 43 44 42 44 48 46 52 43 42 50 43 41 40 48 47
32 31 29 32 31 33 36 38 34 32 32 32 37 36 43 54 62 58 56 55 51 46 41 39 38 37 36 43 48 49 48 46 47 49 49 44 48 48 45 45 52 53 52 52
32 28 28 28 33 33 38 38 40 43 40 46 38 34 40 54 52 54 52 53 49 44 42 41 42 42 43 46 53 53 46 45 46 46 49 52 50 47 46 50 51 50 50 48
32 31 28 31 32 31 34 39 49 50 57 50 46 43 35 38 44 46 49 48 49 48 48 49 43 43 48 52 53 47 42 45 46 48 47 49 49 51 49 48 47 51 46 44
34 39 27 29 30 32 36 38 56 60 63 45 44 48 32 35 36 40 41 43 49 51 53 50 49 48 46 50 47 46 43 41 41 42 39 36 33 29 28 36 38 40 44 48
45 36 27 31 29 29 34 38 40 59 60 55 45 42 34 41 39 45 48 48 50 50 52 53 52 50 47 46 51 47 33 27 29 34 34 38 39 40 41 45 46 45 57 57
42 40 34 30 30 34 32 35 41 50 63 58 45 51 40 49 43 44 49 49 51 52 54 55 51 56 55 51 44 38 27 26 30 33 38 38 42 43 46 47 48 52 58 62
36 44 41 34 35 34 36 39 50 46 55 47 52 38 43 44 41 44 43 49 52 54 55 52 52 55 58 43 33 32 31 29 32 34 41 45 44 47 48 48 51 54 60 61
42 54 57 34 33 36 33 37 40 49 44 63 65 38 47 52 44 46 44 52 53 54 51 48 45 42 36 32 30 33 31 30 32 36 40 43 47 49 50 52 54 58 59 58
46 55 60 41 31 33 35 42 46 52 65 64 83 36 50 57 53 46 48 56 57 53 50 45 34 30 30 32 34 31 32 30 30 31 33 40 47 52 52 55 59 61 62 60
58 52 52 50 39 41 43 48 44 41 57 54 60 37 35 48 54 59 59 56 53 51 50 43 32 28 30 33 33 33 36 37 34 32 34 44 52 55 57 59 62 66 68 70
49 55 52 57 56 46 35 44 46 38 42 51 42 43 33 39 49 55 58 56 54 52 50 46 36 28 30 35 35 32 34 37 38 37 37 45 54 57 57 62 64 67 71 70
60 66 62 66 61 57 49 40 43 50 48 43 46 46 37 51 53 61 59 57 55 52 48 44 37 27 29 32 34 33 34 36 39 40 44 45 57 57 59 62 67 68 69 69
65 80 60 56 63 53 58 51 44 48 44 44 55 39 57 62 60 57 59 56 55 54 49 42 38 30 26 31 35 32 30 35 38 42 43 48 55 59 61 62 60 64 67 69
81 71 69 73 73 60 34 44 40 42 42 42 48 49 53 54 60 55 51 55 57 54 49 43 36 31 25 26 30 33 30 33 38 39 42 47 54 58 59 62 60 67 66 64
62 76 81 80 60 44 30 43 56 56 39 47 47 50 63 66 61 58 55 56 55 54 50 41 33 30 24 23 28 30 30 34 38 41 43 44 52 56 60 59 63 62 60 59
68 77 72 76 68 61 42 34 52 43 55 44 55 64 71 61 77 48 57 58 59 53 46 38 33 22 21 24 29 34 38 42 40 42 44 46 49 57 59 60 62 60 56 45
96 93 81 81 81 60 41 44 46 57 50 58 63 63 70 67 62 53 59 62 54 46 30 33 26 25 27 33 40 41 42 42 41 48 51 51 52 56 58 60 55 52 49 57
74 84 86 85 77 66 45 49 64 58 60 58 66 64 71 60 62 58 60 50 40 31 32 30 34 36 40 41 42 40 43 43 50 54 57 58 60 58 56 58 54 50 55 62
72 69 73 64 67 53 48 60 55 56 55 55 65 62 64 68 63 61 51 38 34 31 31 32 34 41 41 40 43 43 45 56 61 63 63 65 65 62 58 57 53 52 56 61
69 61 73 73 51 55 55 51 52 50 55 55 60 58 69 66 65 57 42 38 35 32 32 36 38 38 42 46 50 55 63 63 68 69 69 70 68 67 56 54 50 52 63 64
71 67 70 71 62 59 52 56 55 55 63 67 66 69 70 69 64 47 42 43 42 50 63 41 43 46 48 53 58 64 66 69 72 73 66 66 73 71 66 55 50 57 52 58
70 68 79 78 51 53 51 43 50 61 61 64 73 77 69 58 50 42 44 51 77 78 48 46 49 52 57 62 67 69 69 76 80 77 67 73 77 76 77 84 65 72 74 75

GFSCGP_sfc_rhum_006.txt.gz
RH
16 13 13 13 11 10 10 11 10 14 23 23 24 24 27 32 33 36 33 33 33 37 45 47 51 47 46 50 54 51 54 53 45 41 40 36 36 36 33 30 37 37 35 34
16 17 17 18 14 13 12 12 16 21 24 22 24 30 31 31 36 34 34 35 38 45 48 55 56 54 53 52 49 49 48 46 39 35 35 37 37 34 31 33 37 34 35 31
13 20 20 16 16 16 18 16 22 16 24 22 23 29 32 39 38 40 37 36 39 44 50 55 57 56 55 54 54 48 42 36 37 39 34 34 36 34 31 30 28 34 37 33
20 20 18 18 19 21 19 21 20 24 22 20 23 21 34 37 43 41 43 42 44 48 49 51 53 56 54 55 49 39 35 36 36 33 36 41 33 32 35 33 32 34 39 40
25 20 20 19 23 24 25 24 22 22 20 23 24 20 32 37 42 44 44 45 46 46 45 45 44 43 38 41 40 39 35 34 35 36 37 34 37 34 33 34 38 36 35 36
22 20 20 22 25 23 26 25 24 24 23 32 21 23 20 34 32 40 41 41 41 40 36 32 32 30 31 36 40 40 36 35 36 37 40 44 43 35 29 26 24 20 20 20
22 23 20 21 25 26 24 24 29 29 36 35 31 28 19 21 28 34 40 36 38 36 30 29 29 28 33 40 42 38 35 36 37 38 35 31 27 25 23 23 21 25 22 23
20 31 21 22 22 21 25 23 28 35 41 22 32 26 16 24 24 29 31 31 33 32 32 31 29 31 35 41 38 37 35 35 31 27 23 23 23 22 21 27 28 27 28 31
24 26 22 24 22 21 27 29 27 40 46 42 22 24 23 26 26 29 29 30 31 31 33 33 34 36 38 38 42 40 30 24 23 25 26 29 29 32 33 34 33 30 34 33
27 30 25 24 23 25 24 24 33 36 49 41 24 30 22 32 30 30 30 32 30 30 33 37 37 39 37 39 37 33 25 23 26 27 29 29 31 32 34 34 35 36 38 39
22 26 32 28 26 23 28 26 28 28 40 32 28 16 26 27 28 32 31 31 30 33 36 39 39 40 38 37 32 28 25 26 27 25 30 34 33 33 34 34 35 37 41 40
28 32 44 28 26 26 24 23 21 30 31 45 53 21 26 32 30 27 29 30 30 34 36 38 40 43 42 34 28 27 27 25 24 27 30 31 33 33 34 35 36 41 42 42
32 36 43 34 29 26 27 25 23 32 44 41 67 20 25 31 33 30 30 28 34 37 38 38 39 40 35 30 28 28 28 24 22 21 23 27 31 34 36 37 39 41 44 46
45 36 36 39 26 26 34 30 25 22 37 28 34 15 18 22 27 28 32 30 35 40 40 37 36 33 28 26 28 28 31 26 23 20 22 28 34 36 39 39 40 42 45 48
36 41 36 34 35 31 26 26 28 25 25 33 17 20 14 17 19 23 31 35 36 40 39 37 33 29 26 26 29 29 28 27 26 24 24 30 35 38 38 41 40 43 49 47
43 50 47 49 40 35 35 25 25 26 24 26 20 23 16 20 26 30 36 38 38 39 37 36 33 28 26 26 28 27 25 26 26 27 29 30 34 38 41 40 45 44 44 44
51 62 48 42 47 45 72 40 25 24 24 27 30 22 25 30 32 31 34 38 38 37 36 36 35 30 26 25 29 26 23 25 27 27 29 31 35 40 39 37 37 38 42 45
63 53 59 68 69 83 21 28 26 24 22 21 22 25 24 25 30 33 31 34 37 35 36 35 34 31 26 23 26 23 20 22 25 27 28 31 35 36 34 35 38 41 42 43
41 53 75 92 45 31 15 23 28 33 20 22 22 21 28 40 41 36 34 34 36 36 36 35 33 30 27 23 23 22 21 21 24 30 30 25 29 32 32 34 40 42 42 41
46 54 54 71 89 88 30 27 38 34 30 28 33 34 41 43 58 22 34 36 38 36 36 36 32 28 25 23 22 22 20 26 31 29 27 29 30 31 34 37 42 44 44 42
78 83 86 70 91 46 26 32 36 41 34 33 38 36 43 45 34 36 40 38 38 36 37 35 29 24 23 21 21 25 30 32 26 31 34 30 31 34 37 41 43 44 44 43
58 73 91 76 95 79 29 40 50 37 41 38 38 38 46 40 42 44 41 42 41 39 34 29 25 27 26 25 30 29 28 24 32 35 36 36 39 42 42 46 45 45 45 47
55 51 54 46 44 34 33 36 34 39 42 39 41 34 40 42 41 43 42 37 37 31 23 24 31 35 35 32 28 23 25 36 40 42 42 44 47 47 46 48 49 45 44 50
49 45 57 55 32 32 32 31 31 33 38 34 33 36 40 45 42 45 43 35 31 25 25 29 37 34 40 37 35 36 38 43 45 49 49 49 50 58 52 46 44 46 50 54
50 49 49 48 38 34 32 34 35 33 36 40 38 43 48 49 48 47 39 33 28 40 50 53 56 52 37 35 39 40 46 48 49 53 53 52 55 58 60 61 50 50 48 51
46 44 60 59 29 39 35 32 38 42 41 43 49 50 53 54 52 44 36 36 60 59 60 56 43 45 48 47 47 50 50 54 63 64 58 55 60 59 60 62 63 76 71 73

GFSCGP_sfc_rhum_012.txt.gz
RH
18 21 23 19 19 16 14 14 13 10 7 7 13 14 15 15 26 26 29 28 30 31 28 29 31 36 44 50 50 55 61 66 63 54 53 55 58 55 52 50 51 54 51 47
17 24 16 16 15 15 14 14 11 9 8 9 10 13 13 14 16 19 23 29 30 30 30 34 34 36 46 50 52 54 53 55 53 48 54 57 51 52 50 54 53 53 55 50
32 26 14 15 16 16 12 14 16 13 9 10 25 19 14 14 15 15 17 20 24 28 36 38 36 44 51 58 59 52 60 51 49 52 47 51 52 57 53 52 54 52 50 44
38 24 16 15 13 11 24 20 15 18 28 19 23 34 53 32 17 19 20 23 23 26 33 37 43 45 63 71 61 51 48 46 44 44 51 56 50 50 55 54 50 43 45 40
20 17 17 16 16 15 24 22 19 14 17 24 30 30 40 40 30 23 24 26 27 31 35 42 46 57 58 67 58 54 47 41 43 48 52 54 55 54 49 48 43 42 41 40
25 17 16 19 15 15 18 19 20 14 18 52 32 39 44 42 33 33 23 26 30 32 38 40 52 53 51 56 56 54 43 40 47 52 56 59 53 47 46 40 42 45 44 43
19 16 14 14 14 15 15 20 28 40 50 45 15 28 37 37 33 62 67 28 32 38 40 42 53 50 48 54 54 49 40 42 50 53 48 49 47 43 47 42 46 44 45 47
21 24 15 13 13 26 19 15 37 80 80 42 21 28 16 21 29 48 37 30 36 39 43 41 41 45 46 49 49 44 40 42 46 43 41 43 41 42 43 46 42 45 46 50
45 33 18 14 12 14 14 21 16 26 53 42 22 13 8 15 15 16 27 31 38 39 38 37 38 38 42 45 49 49 40 41 38 39 45 49 47 50 50 46 43 46 47 37
61 69 32 17 16 16 20 15 30 31 50 44 21 21 22 22 20 18 27 33 35 35 33 33 32 36 38 43 43 51 42 39 35 42 50 44 48 49 48 46 45 44 48 48
18 40 25 22 21 16 21 21 20 19 38 64 58 25 17 17 18 22 23 31 33 35 33 30 28 31 36 42 43 46 43 34 36 41 45 50 46 50 46 45 44 44 48 49
16 23 54 24 16 14 18 23 19 62 43 57 69 36 16 18 17 21 21 25 29 31 30 28 29 32 37 43 41 45 42 33 38 40 43 46 48 44 46 44 43 46 48 49
20 29 51 32 24 20 22 16 18 21 50 56 77 41 15 16 16 17 21 22 27 30 29 28 30 34 38 41 45 44 40 34 35 33 36 39 43 52 45 43 45 45 47 49
42 26 30 49 28 23 30 19 15 20 66 57 44 20 14 16 18 18 22 22 23 28 28 27 30 36 38 40 44 42 40 42 36 33 31 36 47 45 44 44 47 48 47 50
31 37 27 21 19 23 23 19 18 17 22 36 29 17 13 12 14 16 18 21 20 20 26 27 31 36 39 41 44 39 39 42 40 40 30 39 44 42 42 48 47 50 51 49
34 48 49 52 27 24 28 22 19 17 16 17 16 17 11 16 16 17 17 17 22 20 19 26 32 39 41 40 43 38 37 40 39 39 41 37 38 39 46 48 54 55 54 51
46 72 70 65 39 45 61 46 27 23 16 17 27 20 14 16 17 21 21 20 23 24 24 28 33 36 39 39 42 40 37 40 38 37 35 37 42 47 51 46 44 46 49 51
70 69 75 80 77 78 25 16 16 20 17 15 14 14 13 22 22 19 18 22 24 28 28 30 33 36 37 37 37 37 33 35 36 34 35 42 46 48 42 42 41 47 48 51
39 68 81 98 61 34 23 16 18 21 22 19 20 19 19 21 23 21 26 27 30 29 30 29 30 34 37 35 34 33 34 31 32 34 40 44 48 34 36 39 46 47 49 52
35 64 80 73 89 85 40 23 22 21 37 21 21 25 24 23 70 39 34 34 32 26 24 26 29 31 35 37 35 35 34 33 40 45 41 36 44 34 38 46 48 52 53 51
81 86 90 77 95 69 22 22 21 49 53 31 30 29 33 40 43 36 34 37 30 29 28 31 33 38 38 36 35 34 38 42 38 42 56 62 44 41 43 49 52 55 58 61
69 84 95 88 100 90 21 25 50 49 41 33 32 34 43 38 38 34 31 30 31 31 30 33 35 35 35 35 33 38 48 51 51 66 71 47 47 44 41 59 60 60 63 73
60 53 70 58 66 39 25 30 27 30 37 35 36 31 35 37 37 36 37 35 35 31 28 30 38 44 47 52 51 56 66 70 74 65 53 59 54 51 51 64 64 69 66 82
36 33 59 56 24 23 25 22 24 24 31 29 31 35 38 43 45 42 40 38 32 27 29 33 44 68 75 74 73 70 68 52 59 68 70 65 69 65 61 57 60 68 85 89
45 36 37 39 31 26 21 32 33 34 36 40 43 44 46 45 44 44 36 32 36 52 57 63 65 65 63 58 62 61 61 61 64 69 72 72 82 74 68 61 64 82 76 82
36 37 69 77 42 46 41 43 45 47 46 42 43 42 41 40 39 51 53 53 60 69 71 74 73 70 65 61 57 54 55 61 75 80 80 85 89 88 74 72 72 72 76 80

GFSCGP_sfc_rhum_018.txt.gz
RH
36 34 39 33 34 29 24 25 26 28 24 23 28 43 50 49 50 64 66 58 57 49 50 56 59 59 63 80 79 76 76 84 80 75 74 78 78 72 70 63 64 65 65 61
34 37 28 27 25 26 28 27 28 27 21 18 30 47 50 56 42 50 59 60 46 55 51 59 61 63 65 76 77 75 68 82 74 63 70 72 61 70 69 69 66 63 63 61
34 26 28 25 25 29 28 30 34 28 18 25 29 39 44 46 48 51 52 43 41 50 46 58 62 65 67 77 76 74 70 75 78 69 71 70 71 74 72 73 71 50 41 40
33 29 24 30 30 30 33 23 29 30 29 30 28 48 47 39 39 50 46 62 52 60 40 49 62 67 71 78 71 71 72 76 75 64 63 55 53 61 73 71 52 43 44 50
32 35 33 31 29 28 30 31 30 34 38 40 42 45 37 54 30 48 54 55 57 56 41 46 63 64 68 75 81 74 77 81 69 59 56 57 72 71 63 56 47 49 52 56
28 26 26 25 23 25 27 30 37 41 46 63 47 43 48 52 30 26 40 48 50 48 50 67 68 64 69 82 84 82 55 55 54 59 65 61 58 51 49 52 51 54 60 62
32 27 30 30 31 30 31 41 52 49 70 65 46 47 41 34 39 35 37 42 42 47 65 74 77 72 79 89 79 54 51 60 63 59 65 53 46 43 43 48 53 55 56 59
40 45 36 31 31 32 33 36 59 55 78 53 54 60 43 32 29 32 33 41 58 66 62 69 76 77 80 79 60 54 53 54 57 58 63 58 46 48 50 51 54 57 57 56
51 43 42 32 37 36 32 37 38 68 81 76 61 40 25 38 43 45 46 47 61 72 79 77 78 75 75 64 60 68 64 50 52 62 65 64 56 52 53 52 54 59 56 50
44 50 46 37 32 35 33 28 43 63 68 74 44 45 43 43 42 43 54 53 52 69 79 82 74 74 66 54 57 63 56 54 66 69 65 63 56 54 54 55 56 54 53 50
53 47 53 45 40 33 41 37 37 44 64 63 75 51 29 33 35 38 48 53 54 69 73 73 71 66 60 55 54 58 55 55 62 67 65 59 56 58 56 52 53 55 54 52
50 59 80 47 35 24 37 34 37 65 43 82 83 54 33 26 29 41 49 50 59 62 65 66 66 64 60 55 58 59 58 56 54 47 50 54 59 56 56 55 57 57 53 54
49 55 70 52 39 40 34 29 37 51 68 62 74 56 28 27 23 24 36 51 57 60 60 62 63 62 60 57 58 58 56 47 44 46 56 58 61 58 50 52 52 58 55 55
50 46 46 60 46 44 48 39 35 46 74 64 68 42 31 27 27 25 29 42 56 59 55 53 57 58 58 57 58 57 56 54 52 48 53 58 56 49 52 54 60 61 60 58
48 48 46 42 46 42 41 40 40 36 41 52 42 42 28 26 29 28 30 30 39 53 48 47 53 54 56 62 62 59 62 59 54 55 56 57 52 52 57 64 62 62 63 56
53 54 69 62 51 47 47 40 41 39 38 40 36 35 34 32 34 35 33 31 32 35 36 44 45 56 58 62 66 70 66 63 55 56 55 50 59 58 63 66 65 61 59 59
61 75 75 67 62 54 68 46 39 38 37 38 46 37 39 43 45 43 40 41 41 43 44 48 60 61 64 69 67 72 70 63 57 56 47 61 59 62 66 61 62 63 65 64
71 75 83 83 72 72 49 36 34 38 38 39 37 38 44 50 55 52 47 46 46 45 45 46 48 59 65 71 68 70 64 58 58 58 57 60 64 63 65 68 67 72 70 63
71 83 90 75 79 58 41 32 31 39 48 42 41 39 42 51 53 53 53 49 51 55 57 53 55 57 60 68 69 59 55 54 56 62 65 62 65 64 67 75 79 74 72 69
69 84 85 94 78 70 55 41 34 36 64 44 46 49 46 46 84 66 52 53 55 47 53 58 58 51 49 57 51 52 59 66 72 67 63 65 68 68 76 81 83 79 70 65
88 91 82 97 84 71 49 39 35 41 49 47 52 52 54 60 65 59 57 52 50 56 60 61 64 66 60 59 62 69 72 75 70 73 74 75 78 85 86 84 73 68 72 77
71 88 96 97 93 68 50 38 42 51 60 50 50 52 67 71 64 51 50 51 57 67 70 71 75 76 74 70 70 72 75 70 72 75 84 87 87 80 66 67 69 72 76 84
65 71 81 74 77 59 44 46 54 51 49 51 63 65 69 69 51 49 52 64 74 77 78 75 71 76 81 71 64 72 78 78 81 82 88 89 78 76 72 78 81 83 79 94
64 64 80 68 53 60 51 63 61 66 70 67 66 68 63 52 51 66 73 76 79 80 76 74 72 76 77 74 75 81 76 73 76 82 83 84 88 87 84 83 82 88 94 94
68 55 61 63 77 69 73 72 65 62 65 66 63 58 52 61 69 69 74 75 76 80 81 78 81 84 83 76 78 77 76 74 78 82 85 89 94 92 93 91 91 92 90 90
61 60 74 75 58 72 76 70 66 66 71 69 73 78 74 72 79 82 89 87 88 90 88 87 84 82 79 75 71 71 72 76 82 86 90 94 96 95 95 95 92 85 86 85

GFSCGP_sfc_rhum_021.txt.gz
RH
37 35 40 33 34 33 31 32 31 29 23 31 43 54 57 59 65 71 75 74 75 79 73 72 74 71 78 85 87 85 83 86 86 77 80 79 80 77 76 71 66 71 71 67
38 40 29 31 34 35 30 31 32 29 26 24 30 56 63 58 58 60 65 68 64 68 68 72 71 73 77 79 82 84 77 88 84 68 71 72 75 75 74 74 72 69 68 67
39 29 29 28 28 30 31 36 36 35 27 30 38 48 61 54 53 53 57 55 54 60 64 71 70 72 74 77 85 80 76 83 79 73 72 75 74 76 75 77 76 57 54 49
35 29 29 32 32 29 35 30 30 34 31 40 32 55 50 55 53 50 48 62 52 54 56 67 70 72 73 75 75 75 72 79 78 73 66 60 70 66 76 79 56 48 54 58
32 36 34 32 25 28 31 32 34 36 45 40 43 45 41 53 55 46 42 45 56 59 53 63 69 66 69 75 77 80 74 79 79 70 64 76 88 86 75 57 51 54 62 61
28 28 30 27 27 28 31 33 39 48 49 60 46 45 48 58 44 43 35 42 44 66 65 55 67 67 71 85 88 90 87 80 84 74 65 70 84 79 57 53 58 63 68 64
35 31 33 31 34 33 35 41 52 49 67 63 50 50 44 33 36 35 36 40 51 56 59 68 75 73 74 90 92 90 85 84 81 77 71 68 71 73 56 50 62 64 63 60
39 43 34 35 33 36 39 37 59 53 70 48 57 58 41 34 35 35 37 39 47 63 57 68 72 77 79 83 88 83 76 81 72 75 71 64 57 49 42 47 52 62 61 61
50 41 45 39 37 30 38 40 40 71 84 79 57 50 26 31 42 52 51 55 65 64 74 72 75 77 80 83 88 81 75 74 73 78 69 58 52 50 49 53 54 64 65 58
41 48 50 44 40 39 34 35 44 64 63 66 56 47 41 38 36 49 62 53 61 81 85 84 80 78 83 83 77 77 72 67 68 72 69 70 59 57 50 52 55 54 57 56
51 41 44 46 39 33 41 41 44 48 67 64 72 52 37 35 34 35 38 55 54 76 85 83 80 82 81 77 69 72 66 64 66 68 69 72 63 62 58 55 53 55 57 58
46 51 66 37 39 38 38 40 41 67 47 83 83 56 34 29 31 34 35 42 57 62 78 78 77 81 73 66 67 67 64 64 61 63 68 64 66 60 56 51 56 60 54 58
50 56 71 51 42 44 45 38 44 55 70 66 76 52 31 34 29 26 37 38 51 64 79 85 84 80 73 66 65 64 69 65 66 74 70 64 58 54 56 61 57 56 58 62
49 52 48 52 48 48 53 42 42 48 77 64 68 41 31 30 30 28 28 36 54 68 71 77 81 79 75 69 67 72 78 81 76 68 66 66 60 57 61 51 55 57 59 60
47 48 44 43 39 44 41 41 42 42 44 53 43 50 37 34 30 32 31 37 53 64 66 65 71 75 77 80 82 81 82 72 71 66 62 61 66 62 54 59 58 64 64 58
54 57 57 68 54 50 48 41 42 43 42 43 44 40 39 40 42 42 39 38 42 46 50 55 58 60 60 65 78 79 77 74 69 62 57 62 64 60 66 66 68 68 65 60
58 72 71 60 67 61 67 52 43 40 39 39 48 38 42 50 47 52 54 50 50 50 50 49 57 64 65 69 77 78 70 68 64 62 64 66 73 69 67 64 66 68 71 78
71 72 80 78 74 76 46 46 40 42 44 42 43 48 52 56 58 53 54 53 54 54 55 56 59 60 69 78 81 83 75 72 71 73 74 72 67 68 68 66 72 78 81 82
69 82 87 77 81 60 46 38 43 43 46 47 51 56 60 60 56 56 54 58 62 59 60 63 63 61 68 80 74 64 64 66 71 73 73 68 70 71 75 81 88 91 92 88
69 81 82 91 75 74 58 45 38 41 63 46 51 56 59 54 77 68 66 57 61 64 67 70 66 64 65 65 64 71 74 73 76 76 72 70 72 82 90 93 93 92 83 70
89 92 88 97 85 70 48 42 33 50 52 52 53 56 57 59 66 66 63 65 68 72 72 72 76 80 78 72 72 77 77 81 75 75 81 83 87 91 92 92 91 84 75 77
78 91 96 94 83 64 48 44 41 50 64 57 57 57 71 75 67 63 64 72 74 78 75 73 78 81 77 74 74 79 83 79 76 82 86 89 92 91 86 87 73 72 81 87
64 72 81 73 72 56 53 45 48 58 55 55 59 72 66 61 60 64 77 76 78 80 80 79 82 85 84 79 78 87 90 87 89 92 92 92 86 82 81 87 87 90 89 94
70 70 75 69 62 62 62 71 62 60 64 71 74 73 55 59 65 74 78 80 80 82 81 79 81 85 88 84 82 83 77 74 78 82 84 87 90 90 90 91 92 95 96 95
74 68 72 77 86 78 77 79 73 72 71 67 61 59 62 70 75 75 78 81 84 84 83 83 86 86 85 81 82 80 80 79 82 84 87 89 94 92 92 91 93 94 92 91
68 66 78 81 70 66 80 76 72 72 74 70 71 76 71 71 78 80 88 87 86 91 89 89 88 86 83 82 86 88 88 88 90 91 93 95 96 95 93 92 88 86 89 88

GFSCGP_sfc_rhum_024.txt.gz
RH
39 38 42 34 36 35 38 36 35 32 26 38 47 68 67 78 76 82 86 94 95 91 79 77 81 90 93 93 90 92 93 91 88 90 91 93 86 88 80 75 72 79 76 73
40 43 31 32 36 34 33 36 37 33 26 31 51 67 78 71 71 68 74 85 86 88 85 83 87 89 92 90 90 93 88 88 83 76 79 76 79 79 77 76 76 76 73 72
43 32 32 30 34 34 35 38 38 35 31 39 48 59 70 58 61 64 67 70 73 80 86 82 85 87 88 88 88 86 85 84 81 76 75 78 80 76 76 80 78 70 65 58
38 33 30 30 32 31 34 31 36 36 33 41 39 43 51 61 62 58 59 69 67 68 73 76 82 85 88 87 84 84 82 83 83 74 70 63 71 71 77 81 64 55 59 60
30 37 36 36 28 29 31 34 40 39 44 44 48 44 41 61 59 56 53 54 61 61 65 72 78 75 78 83 85 90 85 85 82 72 67 74 85 86 84 68 56 62 66 64
31 33 35 32 30 30 30 33 39 49 50 59 47 46 47 57 47 45 48 49 50 60 66 65 75 78 79 88 91 95 89 85 88 79 79 77 84 85 76 70 67 69 70 72
38 34 34 35 34 35 36 41 53 51 66 62 53 54 44 32 38 45 49 47 45 48 67 70 80 80 81 86 88 93 91 88 93 89 86 82 80 75 72 66 72 71 72 73
42 43 35 37 34 34 41 42 61 54 70 48 59 53 34 34 38 35 37 40 45 52 58 62 66 76 78 83 86 88 91 90 93 91 89 85 79 73 66 58 59 62 55 67
49 40 43 42 42 35 39 44 41 71 85 77 57 47 29 31 40 50 52 50 48 69 70 66 63 72 79 84 84 88 88 86 94 92 93 88 86 81 72 70 62 60 58 58
40 43 50 44 42 42 35 39 48 63 58 65 57 54 39 30 38 49 55 54 57 75 78 77 76 78 80 81 80 90 88 83 86 90 88 86 84 80 79 69 68 59 62 63
47 39 43 53 45 37 42 44 50 51 66 64 71 51 40 33 37 36 40 51 54 67 86 88 85 85 84 85 91 91 91 87 86 88 90 91 86 83 75 66 63 59 60 58
47 50 61 40 42 41 39 41 46 67 51 82 83 57 34 33 32 32 32 37 56 58 81 90 91 91 93 91 93 91 88 81 87 88 87 87 84 73 65 64 57 58 58 61
50 52 64 44 39 47 47 44 47 57 70 72 76 57 31 36 34 31 29 36 50 59 71 89 90 93 92 88 86 87 87 84 82 84 87 84 76 67 59 56 58 60 60 61
47 55 44 43 38 46 55 44 50 50 75 66 71 46 32 30 35 33 31 33 43 67 71 87 90 90 88 84 87 88 90 86 84 84 80 82 79 68 62 59 68 67 62 62
45 47 50 42 41 47 44 42 50 47 50 54 47 49 38 39 34 34 35 48 65 71 76 79 82 88 88 89 87 86 90 90 86 83 80 80 79 74 73 70 65 67 66 60
57 54 57 68 57 53 51 46 48 48 48 48 47 44 39 43 49 49 45 50 57 62 63 64 65 65 68 79 89 89 88 83 81 81 79 78 78 74 78 77 70 72 65 63
58 72 68 59 69 61 67 56 48 49 47 44 52 41 44 52 55 59 57 56 56 59 60 59 61 65 74 82 81 87 89 83 81 80 77 79 82 81 78 68 68 70 74 79
70 68 76 80 74 71 47 50 45 45 43 44 46 47 48 53 60 58 58 61 63 61 62 64 66 70 78 91 91 87 82 82 81 83 83 80 77 76 70 72 75 83 87 92
67 79 82 75 78 57 49 45 47 47 42 46 48 61 62 65 63 67 64 65 67 71 72 72 72 72 73 73 73 74 78 79 80 82 80 77 74 75 78 85 92 94 96 95
70 78 76 85 76 73 58 44 40 40 55 48 59 66 67 60 73 71 64 68 74 75 79 81 80 78 79 80 76 78 82 81 82 81 80 80 81 86 91 94 96 95 95 91
90 92 84 97 84 76 54 43 39 50 52 53 57 65 65 54 59 71 74 78 79 79 80 78 80 84 86 82 79 84 84 88 87 87 90 88 88 92 92 93 95 92 89 88
81 92 92 92 85 80 47 48 48 52 66 60 60 62 65 78 72 75 76 80 80 82 82 82 85 88 85 82 81 89 94 94 93 93 94 94 93 92 88 91 87 85 88 90
70 74 81 73 75 59 54 50 45 55 60 60 60 68 72 69 71 78 82 84 84 85 87 86 86 89 90 88 88 92 94 93 92 90 88 86 84 84 89 90 92 94 93 97
73 67 71 68 61 63 58 66 65 59 60 63 69 69 63 68 75 83 83 82 83 87 89 89 84 85 88 84 81 85 81 79 81 86 89 91 92 92 91 92 94 95 97 97
75 70 77 72 84 81 73 79 71 77 74 71 66 64 66 72 81 80 83 84 86 90 89 82 84 85 87 87 92 92 91 89 91 92 93 94 95 94 94 93 95 95 93 94
75 70 80 76 67 59 59 78 76 76 76 73 71 77 75 74 78 80 88 86 88 89 88 86 87 90 97 96 96 93 90 90 90 88 92 96 97 97 94 92 85 80 83 83

GFSCGP_sfc_rhum_027.txt.gz
RH
30 30 33 29 31 25 28 27 25 23 22 34 39 47 65 76 77 79 80 79 70 62 54 62 65 65 66 72 71 70 74 78 76 73 74 79 77 78 77 68 65 64 55 55
32 36 29 28 29 30 29 27 26 25 22 28 33 41 54 70 70 65 68 75 72 62 62 67 66 69 71 69 71 71 71 74 73 65 68 70 70 70 75 62 63 59 60 55
36 26 29 28 29 30 29 30 31 28 26 31 36 34 54 53 63 58 59 59 62 66 68 69 71 70 69 72 76 72 68 70 71 69 66 67 76 64 58 56 58 57 58 53
32 28 29 30 29 28 29 26 28 30 27 28 27 26 35 53 53 52 51 54 56 60 63 61 67 68 70 72 73 71 71 71 71 70 65 66 69 65 55 55 54 52 55 51
28 31 32 30 28 29 27 31 29 30 32 36 36 29 24 45 53 48 47 48 49 53 56 60 62 60 62 67 73 74 71 70 68 66 64 64 70 71 63 62 61 55 52 48
27 25 27 26 26 27 30 30 34 39 40 44 36 32 28 32 39 37 39 44 45 48 54 54 56 59 61 68 73 79 73 69 69 69 69 69 74 70 62 56 53 51 48 49
28 26 26 30 28 29 29 35 40 40 50 47 43 41 31 25 27 33 38 40 42 43 46 52 56 61 62 72 75 76 73 70 74 76 72 74 74 74 65 63 67 67 62 60
34 35 29 31 28 29 34 33 49 47 54 36 45 45 22 24 27 28 29 32 36 42 44 47 49 56 62 69 69 71 73 71 74 76 73 73 74 81 75 70 66 65 63 62
45 34 29 35 33 26 34 38 34 57 70 58 40 34 25 21 24 34 36 37 38 36 42 47 46 52 60 66 70 74 72 69 73 75 74 75 77 77 78 76 72 71 66 57
37 36 40 36 32 35 30 33 44 50 53 52 41 42 30 25 23 27 33 35 36 44 44 52 51 52 58 62 64 73 69 68 70 72 77 80 85 83 81 77 70 66 62 55
36 37 38 39 37 34 37 39 44 42 49 48 48 36 32 29 26 28 26 32 41 41 49 50 53 54 56 61 65 72 70 66 69 76 82 85 85 82 77 74 70 70 66 66
39 48 53 38 33 31 32 37 41 57 46 57 59 42 26 30 29 30 26 28 35 41 41 54 58 62 66 66 66 69 71 72 75 81 81 82 82 79 78 75 75 72 71 63
44 46 49 37 32 36 36 36 40 49 57 58 71 42 26 28 28 28 28 25 27 38 42 56 67 71 71 74 76 74 75 73 77 77 74 75 77 76 75 72 72 68 60 61
45 48 44 42 37 36 46 41 41 43 58 54 52 37 27 25 26 24 28 29 28 44 53 59 68 71 70 70 70 71 74 71 68 68 70 75 75 72 69 64 59 61 61 61
45 46 46 36 31 37 35 37 43 38 42 49 39 40 30 28 28 28 30 43 52 56 56 59 64 69 68 68 70 67 69 70 69 68 67 70 71 66 60 61 67 67 65 61
53 52 48 46 44 42 44 39 39 40 41 40 37 39 30 31 31 34 42 49 50 51 51 54 56 56 58 58 64 70 69 71 70 69 68 66 67 62 65 68 73 72 66 64
58 68 60 52 55 50 66 54 43 42 39 39 46 37 33 34 41 40 48 47 48 50 50 53 58 65 70 69 69 68 70 69 70 69 67 66 65 64 70 71 70 70 66 71
65 65 67 72 68 75 39 39 36 39 39 37 36 34 34 37 48 47 44 47 51 52 53 56 56 60 62 61 64 65 64 65 65 66 67 66 65 64 63 65 77 83 86 91
59 71 76 80 64 50 37 41 41 42 30 35 34 38 44 52 50 55 54 54 57 58 60 62 61 63 63 62 62 62 63 63 64 66 65 63 63 65 69 77 88 92 92 94
65 68 70 74 71 67 52 36 37 32 44 36 39 50 54 52 59 50 57 60 64 64 62 64 64 63 63 64 61 63 65 67 71 71 68 66 67 71 79 81 86 85 80 80
79 80 77 78 82 64 45 37 35 51 43 44 45 51 54 48 48 56 63 67 64 64 66 66 65 67 67 64 65 70 72 77 72 71 69 70 70 74 75 82 88 90 91 91
76 80 88 81 91 70 45 38 48 48 47 50 52 54 59 65 67 65 66 67 67 66 66 64 69 72 69 64 66 73 83 77 76 76 77 77 78 79 76 75 71 67 67 72
75 68 73 66 66 58 46 46 43 45 46 53 54 54 61 65 65 66 69 68 67 64 66 65 70 74 71 66 65 71 72 61 60 62 66 67 66 66 65 66 67 65 66 73
66 61 66 65 54 52 52 48 49 47 49 49 47 52 54 61 66 69 69 69 68 66 68 65 65 67 71 68 69 68 65 64 69 74 72 67 65 63 59 56 58 59 66 70
66 60 66 63 55 66 58 58 52 58 63 60 56 56 57 65 67 66 69 70 70 69 66 63 68 76 81 74 74 70 70 65 66 64 61 60 60 54 51 48 55 58 56 70
66 64 71 67 47 53 50 55 63 64 61 58 61 64 62 62 66 65 69 70 68 71 68 73 80 82 79 70 69 67 62 58 58 58 56 67 65 63 54 53 50 64 67 68

GFSCGP_sfc_rhum_030.txt.gz
RH
24 23 20 14 15 18 19 18 16 16 19 24 23 22 33 44 51 54 46 40 38 38 36 42 46 48 48 50 49 50 53 56 56 53 48 46 53 55 58 55 55 54 46 46
24 24 15 17 18 20 21 19 18 17 18 21 19 20 28 39 46 45 43 47 40 36 36 40 42 44 48 49 52 51 50 52 53 46 42 43 48 50 57 60 58 54 51 45
23 18 20 19 21 22 21 19 21 20 20 18 20 19 28 32 39 42 42 38 38 33 36 39 43 45 47 47 49 46 47 48 52 48 41 49 53 57 62 64 66 56 53 45
22 18 20 20 19 19 22 17 20 22 21 20 20 19 21 24 36 42 41 42 39 34 32 34 42 45 46 47 46 46 45 45 49 51 46 55 50 54 61 71 60 49 54 49
21 20 21 22 18 18 19 20 20 21 20 24 24 18 19 28 28 27 31 35 36 33 32 34 34 37 42 45 48 50 48 47 48 53 54 52 55 49 50 58 53 54 55 55
16 17 18 16 19 19 21 23 24 24 23 32 22 20 15 16 16 15 20 24 29 30 31 30 32 34 36 42 48 50 52 48 49 53 58 57 56 56 60 55 55 55 58 60
18 18 16 20 20 22 21 22 28 30 35 34 28 29 18 14 14 17 18 16 22 27 30 32 33 33 36 41 48 50 51 49 51 54 58 61 61 65 67 64 66 65 54 60
23 26 18 19 19 21 23 19 29 41 39 23 31 27 16 14 16 17 18 19 19 24 28 30 31 33 35 41 46 50 50 51 49 56 59 60 63 68 67 68 74 73 69 69
25 21 19 22 21 19 26 27 19 33 46 34 21 20 16 13 13 20 20 22 22 21 21 25 27 31 36 40 47 53 52 53 50 55 60 63 66 67 71 73 73 71 64 53
22 25 21 27 25 25 24 21 31 32 42 39 24 24 17 15 14 15 14 17 18 23 26 26 27 29 32 37 41 51 50 52 51 54 61 62 65 66 76 76 76 72 64 57
17 22 33 31 29 22 28 26 27 26 31 34 33 23 16 15 14 15 15 18 20 22 25 32 32 31 32 36 41 47 51 54 52 50 58 65 69 78 82 78 76 69 62 57
20 25 31 22 24 23 19 21 25 36 34 39 45 27 14 16 15 19 17 18 20 25 26 33 36 38 38 41 42 43 46 46 47 49 56 62 76 76 77 75 74 72 65 69
25 30 35 26 26 27 26 24 23 29 35 33 56 27 18 17 18 16 19 17 18 21 25 34 41 42 42 45 48 48 52 50 48 54 59 64 69 73 76 77 78 73 72 77
34 23 27 32 22 18 30 24 24 26 38 31 31 20 16 16 16 15 17 19 18 27 33 32 40 46 47 50 52 53 56 56 55 56 57 61 67 66 68 71 72 68 66 68
29 28 25 19 16 16 18 17 20 24 24 28 23 20 19 16 16 17 21 25 30 36 40 42 43 46 48 53 54 52 58 59 58 55 54 58 61 61 60 61 59 58 62 59
32 31 30 31 20 22 23 18 17 19 18 18 22 22 16 16 19 21 24 30 35 40 41 42 41 40 41 43 45 52 54 56 54 55 56 56 58 55 56 56 59 63 61 58
40 39 40 36 35 34 51 34 22 21 19 22 27 23 16 20 22 23 29 32 35 37 38 40 43 45 45 47 47 49 52 52 53 54 54 56 56 55 58 54 53 57 62 68
49 46 48 48 70 83 24 25 20 22 19 20 22 20 19 19 23 28 29 33 35 36 39 41 42 44 44 44 46 47 45 49 51 51 53 53 54 54 52 53 59 72 75 80
43 46 55 78 50 30 28 29 29 31 26 19 22 19 19 28 34 41 34 33 37 41 42 43 43 44 44 45 44 45 46 47 48 50 50 50 52 53 54 57 63 67 64 67
49 51 58 62 56 75 30 20 22 24 32 18 20 22 26 34 44 29 42 43 44 42 42 44 44 44 45 46 44 47 50 52 55 55 53 52 52 55 60 63 68 67 66 70
67 64 74 59 66 39 26 24 24 40 35 23 21 23 31 38 28 38 43 46 42 44 46 46 45 47 47 46 48 52 54 56 53 53 54 56 57 64 67 72 80 83 85 84
59 66 79 58 81 73 29 29 34 29 33 28 31 28 37 40 46 47 47 47 47 47 46 46 49 50 48 46 48 52 57 55 55 57 60 62 64 60 55 54 48 44 46 53
63 49 52 45 42 33 31 26 26 29 27 33 32 30 36 46 46 47 47 47 46 44 44 46 50 55 52 50 51 55 55 50 49 47 47 47 46 45 45 49 50 46 48 55
50 47 53 50 30 34 34 26 30 28 29 27 28 33 41 44 46 47 47 47 46 43 44 45 49 51 54 48 47 48 45 43 46 49 49 48 48 44 41 35 34 37 46 50
42 50 42 44 35 42 38 32 28 31 34 34 30 36 38 43 45 45 48 48 44 44 47 46 51 54 53 49 50 47 44 42 46 46 45 45 45 36 33 31 39 44 48 60
42 42 57 54 31 34 25 28 32 35 39 35 36 40 38 40 44 45 48 47 47 50 48 51 53 53 52 49 48 45 43 42 43 41 41 52 47 43 33 33 36 70 66 66

GFSCGP_sfc_rhum_033.txt.gz
RH
20 20 20 15 13 11 15 14 15 17 22 17 19 27 23 31 32 36 30 36 29 28 29 40 41 40 42 46 47 46 48 50 50 57 47 38 39 41 48 58 54 51 46 47
20 24 16 12 11 13 15 15 14 14 13 15 14 17 27 27 31 30 30 33 31 27 27 34 41 39 42 44 45 44 44 45 45 41 38 35 36 36 42 63 53 49 51 46
21 16 13 14 14 16 15 16 18 16 15 12 14 16 16 18 24 28 27 25 25 27 28 31 35 40 43 43 43 40 41 42 44 41 36 32 34 39 40 50 56 55 54 48
18 15 15 15 15 14 17 12 17 16 17 21 14 25 18 15 21 26 28 27 25 24 25 26 31 35 39 41 42 41 39 38 39 41 37 39 38 40 43 49 50 55 59 55
20 18 18 18 15 14 17 17 16 17 18 18 16 16 21 12 18 20 24 27 26 25 23 25 28 30 32 37 40 43 39 37 38 42 44 40 45 43 41 47 58 63 55 56
17 12 13 13 13 14 14 18 18 18 20 31 20 17 24 14 13 14 16 20 24 23 23 21 22 27 30 33 39 42 40 36 37 41 47 51 50 49 42 52 56 56 58 56
19 16 12 13 16 16 16 20 28 33 35 35 17 19 16 19 11 12 12 13 18 22 22 21 21 23 26 34 40 40 39 38 39 43 46 52 51 51 52 56 59 55 58 68
23 25 15 15 16 17 19 19 28 59 59 32 21 22 14 11 11 11 10 11 12 16 21 21 20 22 24 29 36 40 39 41 39 47 47 49 60 59 60 67 65 71 73 84
23 20 12 13 14 14 19 24 16 24 27 34 24 16 12 12 10 11 12 14 14 14 17 20 20 22 24 26 33 42 40 38 40 42 53 56 60 66 61 66 65 71 74 74
18 22 13 15 15 16 19 17 27 26 53 47 22 19 17 14 11 11 10 13 13 16 18 18 19 22 22 25 27 40 40 39 38 46 56 57 60 61 68 73 78 77 70 66
18 21 19 20 22 19 21 24 23 22 26 43 36 23 15 14 13 13 12 12 12 15 19 23 22 21 22 26 29 34 39 41 41 43 50 61 66 75 73 78 78 74 70 62
19 21 30 23 16 13 16 20 22 37 36 35 40 28 12 13 12 13 12 12 13 16 18 23 26 27 27 28 30 33 38 41 42 44 48 64 81 84 82 83 78 79 76 68
21 25 38 26 18 18 20 22 23 25 26 46 66 28 12 13 14 13 14 12 14 15 16 23 29 32 32 34 36 37 41 41 40 41 43 55 79 84 87 88 88 86 80 77
33 24 27 35 23 18 24 19 18 22 43 36 33 21 16 14 14 12 13 13 14 15 17 19 28 33 34 38 41 42 46 43 42 45 49 54 66 76 78 79 77 77 73 74
27 34 28 20 16 14 15 17 18 20 22 33 25 20 14 13 13 12 17 16 16 18 23 26 29 35 41 45 46 45 52 52 50 50 51 59 61 59 60 67 69 72 74 68
28 34 27 24 16 14 17 14 14 16 17 18 18 18 12 11 11 13 14 18 20 24 28 33 36 39 44 45 46 50 52 51 49 48 50 52 53 52 55 56 57 60 60 59
33 41 40 42 21 21 36 22 17 16 13 15 22 17 12 12 14 15 15 20 23 29 33 35 35 37 38 39 42 46 45 45 47 48 49 51 51 54 56 52 51 52 54 56
41 42 46 48 65 66 27 17 16 19 15 14 13 12 12 13 14 15 16 21 28 30 34 36 36 37 37 38 39 41 39 42 44 46 48 50 51 51 49 49 51 56 58 60
43 51 59 65 50 30 20 19 21 21 19 14 15 13 14 14 21 25 22 24 29 32 32 33 34 36 36 36 36 37 39 40 42 45 46 46 48 49 50 53 58 58 59 58
38 54 63 57 55 60 31 18 16 16 30 15 15 16 17 19 41 22 27 28 32 32 34 36 36 36 37 38 37 40 42 44 47 48 47 46 46 49 56 65 67 71 67 70
71 73 79 65 56 38 20 15 15 39 32 16 16 17 18 21 25 26 32 36 33 33 35 36 36 38 38 38 40 43 46 48 45 45 46 50 55 61 64 66 68 70 69 70
68 68 77 61 65 70 19 21 29 25 21 22 21 19 22 22 33 35 36 36 35 36 38 36 41 42 40 39 41 44 47 47 49 51 53 56 57 53 50 48 43 38 42 49
63 55 51 40 42 32 25 24 21 18 22 24 22 18 21 35 36 37 37 36 36 37 36 37 40 44 43 41 41 45 48 46 47 44 42 40 36 35 35 39 40 37 40 48
46 34 48 44 33 26 25 22 19 20 23 20 21 20 24 36 36 37 36 37 37 34 36 38 44 46 47 43 41 45 43 40 41 42 41 39 37 36 33 27 27 31 46 47
39 43 43 38 29 28 28 26 24 22 24 23 22 22 27 33 35 35 37 37 35 35 38 41 43 45 45 42 42 38 37 36 38 39 38 39 38 32 30 32 36 43 54 58
32 38 55 53 31 37 30 24 22 26 27 28 25 27 30 30 34 34 37 36 36 39 41 41 44 46 45 43 40 37 36 35 37 39 40 48 46 38 28 31 51 69 63 65

GFSCGP_sfc_rhum_036.txt.gz
RH
18 20 22 17 16 13 13 18 21 17 18 19 22 54 72 70 30 32 29 30 31 33 46 49 51 59 59 58 56 56 61 61 58 63 64 64 57 55 56 78 67 75 68 66
20 26 18 15 14 13 13 14 17 15 16 16 13 32 60 70 34 28 29 36 30 31 40 47 50 53 62 61 60 63 64 62 57 60 63 59 53 51 53 73 72 82 80 62
25 20 16 16 15 15 14 16 15 16 19 15 14 14 41 39 26 27 26 32 30 28 39 44 48 52 54 62 61 56 58 62 63 61 57 52 52 52 49 69 74 72 68 63
20 16 16 16 16 13 17 12 15 19 19 20 17 27 22 22 23 27 26 28 29 29 29 38 44 48 52 55 55 50 48 49 51 53 49 52 46 46 51 65 67 66 72 71
22 19 18 20 15 12 16 16 18 17 17 21 20 23 16 16 18 23 28 28 28 28 29 32 37 42 45 49 53 52 48 47 48 52 55 54 52 50 50 64 68 73 78 76
17 13 14 16 13 12 12 17 20 20 20 35 26 20 18 17 17 17 21 26 26 26 28 28 31 34 40 45 51 54 50 46 46 51 54 62 66 59 60 66 70 75 76 77
18 16 14 14 15 14 15 21 31 34 36 44 22 21 22 18 23 29 24 28 45 26 28 28 29 31 35 42 50 52 51 49 48 52 56 58 63 62 64 66 74 76 80 80
25 28 17 13 15 17 19 20 36 51 60 44 45 32 16 16 15 12 13 27 31 26 27 27 25 31 33 39 45 48 46 48 45 50 54 59 58 63 72 74 85 85 85 83
27 23 14 14 13 15 20 25 18 28 42 63 73 32 13 13 13 11 11 13 19 17 25 25 24 25 32 38 44 50 45 44 44 48 53 58 68 80 92 88 85 91 88 80
22 27 17 14 13 15 17 15 35 30 49 58 32 28 22 22 14 11 13 14 16 18 21 24 24 26 28 31 37 49 47 43 44 48 55 62 82 81 86 81 85 92 88 82
19 26 24 19 19 19 19 23 28 31 31 57 53 33 24 25 15 15 14 15 17 20 24 26 27 27 28 29 28 44 46 44 45 46 58 73 83 88 84 79 92 90 86 87
19 28 36 24 16 15 16 21 22 41 38 40 63 37 18 22 18 17 16 15 16 18 21 25 29 30 30 32 34 43 45 44 47 55 76 79 79 82 89 92 88 89 86 84
22 27 43 32 23 19 21 18 22 27 34 45 75 41 18 16 15 14 17 15 16 19 18 25 30 34 34 35 38 40 49 49 49 51 68 81 87 93 90 92 93 94 93 90
42 28 31 45 29 26 27 19 18 29 50 47 47 34 29 22 23 18 17 16 15 18 17 20 30 36 38 41 44 46 52 53 53 53 83 85 88 88 93 94 92 86 82 82
37 37 29 25 19 19 20 20 18 20 36 44 40 36 26 21 22 26 19 19 16 17 18 22 31 38 41 48 50 50 59 62 62 62 66 80 84 84 86 90 87 84 81 80
35 39 36 39 25 19 23 18 17 17 17 18 19 21 16 16 19 25 24 17 18 18 21 24 28 39 44 49 52 58 61 62 62 63 65 65 69 65 75 78 82 85 82 77
40 44 43 49 31 29 39 26 18 17 16 18 25 21 15 15 14 14 18 16 18 23 28 33 39 46 50 53 57 59 57 55 57 59 59 60 61 64 68 64 65 69 74 74
56 44 44 60 68 60 27 16 14 17 16 16 15 13 13 13 12 17 16 20 23 28 34 39 42 44 46 47 49 52 49 54 54 55 56 57 60 59 58 59 63 71 72 78
50 59 65 67 57 35 22 21 22 25 23 16 18 15 12 11 13 23 22 24 30 34 38 40 40 42 44 45 44 45 46 48 50 52 54 53 57 57 59 63 68 71 72 74
53 61 74 70 64 65 44 24 18 17 35 18 16 19 17 18 48 30 27 31 34 34 35 37 38 39 41 42 42 44 46 48 51 52 52 51 52 57 66 76 80 78 74 71
78 84 82 75 71 51 29 21 18 40 41 24 22 21 24 30 31 28 31 34 32 33 35 38 39 41 42 41 44 47 51 53 50 50 51 54 62 71 70 69 76 79 82 84
81 98 86 79 74 71 31 23 32 33 34 28 27 28 37 30 36 34 34 35 34 35 36 37 41 44 43 42 46 48 51 49 53 58 60 63 66 62 64 72 70 63 66 75
73 74 83 74 64 45 35 32 30 30 33 29 32 25 26 37 37 36 38 38 36 35 37 37 42 47 46 43 44 50 53 53 57 60 60 56 49 44 45 54 54 56 62 74
51 42 63 64 50 52 44 34 26 23 28 23 21 25 26 38 37 39 39 37 38 36 37 38 45 48 50 47 45 52 51 49 49 49 48 48 47 44 43 34 40 60 75 81
41 64 51 52 45 47 32 31 33 30 28 29 26 28 27 35 37 38 39 39 38 37 38 42 48 51 51 47 50 46 45 43 47 48 45 48 52 45 46 51 59 71 64 74
30 34 53 59 41 53 43 33 39 38 35 29 31 30 28 34 37 37 39 39 38 40 42 46 50 51 49 47 45 43 41 43 46 47 53 70 68 59 44 57 62 72 68 67

GFSCGP_sfc_rhum_039.txt.gz
RH
29 36 38 31 26 22 21 21 24 27 25 33 50 66 47 42 69 59 52 54 65 60 74 71 74 72 71 73 74 78 77 72 66 59 63 66 66 69 76 80 80 84 78 82
32 36 26 22 21 22 22 23 22 19 23 27 50 59 48 54 63 49 44 52 59 58 64 68 70 71 69 62 59 62 62 60 61 53 50 56 74 70 70 74 86 84 85 84
33 29 22 22 24 24 22 23 22 26 24 20 26 75 71 58 54 48 39 37 48 61 65 64 72 72 65 62 58 51 51 60 54 55 52 67 82 68 72 84 84 83 82 67
31 23 23 24 26 21 24 17 18 21 30 37 22 42 70 58 49 47 40 41 45 61 58 58 66 74 67 65 63 61 62 67 59 59 64 71 70 64 56 76 84 86 84 84
33 30 28 27 23 20 22 22 30 30 35 35 28 38 32 46 52 44 44 42 44 48 57 55 58 65 66 61 64 65 66 66 60 60 64 70 67 62 57 76 80 77 86 79
27 20 21 22 20 19 17 26 29 32 35 53 33 38 42 48 42 38 39 39 40 40 46 51 50 53 60 63 62 62 62 64 63 64 67 65 72 63 61 65 85 85 84 89
27 24 19 18 25 21 22 29 47 52 59 60 44 46 40 28 29 25 34 34 38 36 38 46 49 51 54 58 61 59 57 56 55 57 59 60 68 71 61 68 88 91 94 97
38 41 23 19 22 25 24 28 58 57 76 56 48 49 37 29 32 24 28 29 31 37 34 37 43 46 48 52 55 58 57 56 53 55 57 57 65 64 60 81 93 94 92 93
39 34 20 16 17 18 24 34 26 43 64 70 70 46 36 27 25 25 25 32 36 38 39 34 36 40 43 48 51 55 55 53 52 57 57 60 61 69 86 86 89 89 91 95
34 40 23 20 17 20 22 24 41 49 74 77 63 58 46 29 24 20 20 29 31 34 35 34 34 36 37 39 44 51 50 52 51 52 57 63 71 70 84 83 90 93 96 94
24 33 35 25 25 23 29 28 38 41 56 71 71 53 36 35 28 22 16 21 25 28 32 36 44 40 36 34 38 48 50 67 67 68 61 64 80 79 76 90 96 97 96 93
25 38 42 31 25 19 22 25 30 68 58 59 75 49 29 29 30 22 19 18 24 31 32 32 35 37 40 45 41 47 52 66 70 70 69 77 93 95 98 97 98 98 92 91
28 33 44 37 26 23 24 24 26 36 54 58 72 60 32 29 28 19 21 19 23 25 33 39 39 40 41 44 53 54 62 70 69 69 65 97 96 92 97 98 97 94 94 92
58 30 35 44 36 33 38 32 26 30 66 59 65 48 38 32 33 28 30 34 29 24 27 41 45 45 46 51 60 68 74 77 82 87 94 97 97 96 97 96 96 96 93 94
64 49 31 26 27 28 29 29 31 29 34 48 49 46 37 33 27 23 29 23 24 24 23 39 48 52 58 66 72 75 81 81 85 91 95 97 97 96 97 94 90 86 87 88
65 61 48 48 26 26 30 31 29 26 29 35 34 36 29 24 27 40 28 27 25 24 26 29 49 56 60 66 77 75 78 80 81 87 90 91 90 92 92 90 89 87 85 83
88 80 55 51 47 40 53 38 28 29 24 24 44 36 24 25 27 27 28 25 26 25 32 38 55 60 67 73 75 78 77 72 74 76 75 77 79 80 83 86 85 83 84 89
93 94 78 77 66 73 37 27 26 28 24 21 20 22 23 20 20 22 21 26 29 38 47 60 67 72 74 71 70 70 67 71 72 72 72 73 72 73 73 75 79 85 88 90
82 97 97 80 62 56 46 29 29 31 29 24 23 22 20 20 22 34 29 34 44 50 59 62 64 64 67 68 66 64 66 67 68 72 71 68 70 69 71 76 80 84 85 87
88 90 99 97 73 76 54 34 25 30 44 26 28 27 29 29 45 43 40 47 54 53 51 54 56 58 59 63 60 62 65 67 69 68 67 65 66 70 80 87 90 90 89 85
98 99 98 95 96 74 40 29 30 50 51 33 29 29 34 37 44 41 51 52 49 48 51 54 53 57 60 58 58 64 68 70 66 64 68 72 75 82 84 88 90 92 94 92
89 95 99 99 94 85 54 37 38 44 38 32 33 33 35 44 46 47 46 47 47 50 51 51 56 59 60 59 59 68 70 67 69 72 77 79 78 74 78 87 88 86 92 94
92 77 90 87 90 68 49 56 60 51 47 42 36 26 36 50 48 49 48 48 49 49 50 52 57 63 63 60 59 66 72 69 72 75 77 77 74 75 77 87 81 78 84 85
61 63 78 64 55 58 50 55 54 67 57 45 32 32 46 50 51 53 51 51 50 50 52 54 58 62 67 60 61 68 67 67 71 72 70 66 61 56 52 60 64 72 83 87
69 64 70 71 56 52 46 59 66 68 60 54 47 46 40 55 50 47 52 52 50 50 57 56 62 66 70 64 65 62 60 56 60 61 56 61 61 60 68 75 71 68 77 82
52 68 83 88 60 62 52 57 58 54 72 60 52 52 46 49 52 51 54 53 51 59 60 64 68 66 65 60 60 59 57 55 57 59 65 77 76 69 60 69 73 69 68 66

GFSCGP_sfc_rhum_042.txt.gz
RH
33 38 43 34 33 29 30 31 31 24 28 42 52 54 59 73 80 76 76 72 71 87 86 87 88 83 82 87 82 80 81 82 79 73 78 78 78 77 76 75 76 86 80 84
37 40 31 29 30 30 30 32 30 23 26 33 56 56 61 69 74 80 64 70 72 80 89 87 92 86 85 88 85 81 80 80 74 72 71 72 69 76 76 72 81 87 89 87
36 33 26 29 30 30 30 32 31 24 26 32 53 58 58 50 63 58 60 54 64 80 89 83 87 86 83 85 84 81 78 75 70 66 63 70 75 82 77 72 74 80 89 87
35 26 27 32 30 27 34 27 24 23 33 37 32 47 74 55 58 54 56 52 67 74 76 77 79 84 81 77 74 72 74 70 67 63 59 59 60 64 62 66 66 85 89 86
43 37 33 33 29 27 32 28 26 29 35 40 35 40 36 57 57 53 58 48 57 65 72 76 77 77 73 65 64 61 65 60 59 61 58 58 59 59 76 75 71 79 90 83
36 28 29 30 25 26 23 28 31 35 41 55 38 42 49 66 46 43 48 42 56 63 65 67 70 70 68 62 58 57 55 54 62 58 61 63 69 72 77 75 72 72 80 90
38 35 28 26 30 26 27 35 50 53 61 62 41 51 46 37 39 41 44 44 42 60 63 64 70 74 67 64 62 60 59 61 63 66 63 63 69 79 72 68 75 80 93 97
40 53 31 25 28 30 32 34 57 60 76 50 55 52 40 29 33 32 33 38 40 45 56 59 61 68 69 63 62 63 63 65 63 66 64 63 68 70 74 68 75 86 85 87
49 42 26 22 22 25 32 39 32 45 68 73 60 49 36 32 30 31 32 35 38 42 44 53 54 58 63 67 65 63 63 64 63 64 64 65 67 73 76 77 83 86 85 88
38 47 31 23 24 23 24 24 42 56 62 73 62 58 47 35 26 31 33 40 38 42 39 42 49 53 55 57 62 64 61 61 60 61 63 64 67 69 74 80 86 93 98 97
31 37 39 32 36 30 32 34 43 43 63 69 72 59 47 37 32 30 26 23 32 38 41 40 41 46 48 50 56 65 64 65 65 69 67 66 70 71 80 91 92 97 97 98
51 41 46 34 24 25 26 27 34 54 60 69 76 49 34 34 37 30 24 18 27 29 33 36 41 42 45 46 48 54 61 65 65 66 71 82 91 95 96 98 98 99 98 98
67 73 60 44 33 32 32 30 27 44 64 66 77 56 32 36 32 28 24 21 25 37 38 40 45 44 48 46 42 45 55 60 62 76 83 93 92 95 92 96 96 97 96 97
76 76 70 62 43 36 41 29 28 33 67 56 60 43 40 37 37 33 30 29 26 30 38 41 46 47 51 57 65 48 54 60 64 78 81 81 91 91 89 89 96 97 96 96
80 94 82 69 51 31 30 31 34 34 41 51 43 48 35 34 35 34 31 27 26 26 26 45 48 51 63 77 86 85 57 63 70 76 79 74 90 91 95 98 97 96 96 96
80 94 88 80 53 39 32 27 31 30 36 40 36 39 35 30 32 33 31 27 25 25 26 37 48 55 71 81 86 90 95 97 92 92 91 94 96 96 96 94 93 93 94 94
86 94 97 90 65 50 53 34 28 38 33 34 47 40 33 33 32 35 30 27 26 27 29 32 50 58 71 80 81 91 93 93 95 96 95 96 96 97 95 93 92 92 90 89
92 92 98 98 82 93 45 31 24 32 31 30 29 28 28 27 25 28 31 27 29 30 32 47 56 74 87 90 86 84 83 86 88 91 93 93 94 95 94 93 94 94 90 91
78 92 99 94 96 70 49 38 42 40 34 30 30 24 22 23 29 31 31 26 25 34 43 56 67 82 84 80 76 77 80 80 82 88 86 85 85 86 86 87 90 90 90 93
86 88 88 98 90 97 61 39 32 35 51 29 25 27 29 29 44 38 33 36 48 60 67 76 78 78 76 78 74 76 80 82 84 78 77 74 74 76 82 87 89 91 90 89
98 99 97 96 94 87 65 54 36 55 54 38 31 32 32 39 40 32 49 58 60 60 66 70 71 73 72 71 71 77 78 80 76 72 74 78 80 83 84 89 89 93 95 95
86 95 98 94 98 94 65 59 64 70 70 62 58 39 38 40 51 53 56 60 60 63 66 65 68 69 68 65 67 74 78 78 77 78 82 85 85 82 84 89 92 90 92 95
83 75 86 83 76 68 68 69 58 66 76 71 68 59 50 46 51 55 57 58 58 58 60 60 64 70 71 66 64 74 83 79 82 83 84 85 84 85 87 93 96 96 93 94
58 65 81 85 60 61 58 59 66 57 64 64 60 60 50 56 55 56 57 58 59 60 61 61 65 69 76 72 70 78 78 78 81 85 88 87 73 74 72 70 80 85 90 92
72 70 71 73 60 56 52 50 60 51 67 66 57 62 59 65 62 66 64 61 57 60 63 62 67 73 77 75 77 76 76 74 75 71 67 69 76 74 68 67 71 78 82 82
77 80 87 81 52 51 48 46 53 50 61 65 65 66 56 52 52 56 62 63 58 67 69 71 74 76 76 72 71 68 64 62 63 66 71 77 77 75 60 63 76 74 72 76

GFSCGP_sfc_rhum_045.txt.gz
RH
35 39 44 38 34 34 34 38 38 32 26 40 48 52 56 80 89 88 91 88 94 96 95 94 74 83 86 84 83 84 86 89 87 81 76 80 81 71 68 71 68 80 82 86
42 40 36 32 33 35 37 39 38 31 26 33 44 55 58 77 83 80 75 83 76 92 98 96 94 89 94 90 83 79 77 80 75 70 66 68 77 74 70 70 79 83 85 85
47 37 31 33 36 38 38 40 38 34 29 46 56 50 66 55 70 77 74 66 67 78 96 96 92 93 97 97 93 84 76 77 73 70 81 73 72 76 78 79 85 83 89 90
43 31 32 38 34 36 42 32 32 36 37 42 38 52 40 61 63 67 67 71 68 72 83 90 95 95 96 96 92 84 80 77 73 79 78 78 69 66 64 71 76 79 88 92
50 39 38 36 32 32 37 35 36 37 37 42 39 42 35 64 64 61 60 64 64 70 76 86 88 90 89 89 90 86 82 80 75 73 73 74 75 72 70 82 83 84 89 91
39 34 32 33 30 30 30 36 35 44 46 58 39 41 46 58 48 48 48 52 56 65 72 72 75 80 87 85 84 83 82 79 74 73 72 70 73 71 70 74 78 78 87 94
40 40 38 34 40 37 36 41 55 54 64 60 40 57 48 34 41 44 45 48 53 62 71 73 76 81 82 83 80 76 75 76 71 72 70 68 64 70 65 70 77 85 88 94
42 50 37 35 36 39 40 39 61 59 73 49 56 60 42 35 31 33 40 38 49 57 65 71 72 74 76 76 71 69 67 69 67 67 66 66 66 64 65 68 78 88 85 85
52 45 30 29 28 32 41 44 35 48 71 73 59 50 37 36 33 35 38 49 52 56 64 66 66 71 72 70 68 65 62 60 60 61 67 65 66 69 71 76 84 87 84 86
43 51 36 30 29 31 30 32 45 60 62 74 61 65 48 36 27 31 36 38 48 47 56 61 63 66 70 67 64 67 58 56 56 57 60 68 71 69 72 81 91 90 88 96
37 44 44 34 40 36 37 41 45 43 61 51 54 54 50 35 35 32 32 34 48 50 49 52 59 59 63 65 63 65 65 62 63 67 69 70 71 72 78 82 80 90 97 97
69 57 59 39 28 29 36 36 40 49 53 74 74 41 33 39 38 41 37 30 30 45 45 45 48 55 59 62 65 67 68 65 66 70 72 77 76 78 83 88 90 95 95 98
58 82 83 53 38 37 37 32 32 51 62 48 67 45 34 33 37 34 32 28 25 34 41 45 49 50 54 57 60 63 71 70 68 70 74 81 82 84 83 80 86 90 89 95
76 83 86 94 90 76 70 49 32 37 62 58 50 42 36 38 38 35 32 30 25 27 39 44 43 47 46 52 55 57 63 69 70 70 75 80 83 83 81 86 84 88 93 93
75 81 93 86 64 56 59 58 48 38 36 45 43 47 36 36 35 34 35 32 29 28 35 44 51 52 53 55 54 51 53 61 69 72 76 78 80 80 89 92 93 94 96 95
79 76 90 90 55 55 59 53 51 42 36 44 39 44 37 33 37 37 36 34 30 28 29 32 46 52 58 61 63 71 66 73 72 71 79 81 93 97 98 98 99 99 99 99
90 93 92 86 80 64 62 67 49 40 31 39 46 38 31 38 38 37 32 35 32 29 29 29 44 46 54 69 83 88 94 94 83 84 89 92 97 98 98 98 98 99 98 97
97 94 98 97 85 76 36 50 36 46 34 30 32 33 32 34 32 35 34 32 35 33 31 32 30 57 71 89 94 98 98 97 96 97 98 98 98 98 97 96 97 97 95 97
81 93 95 96 96 66 45 42 54 74 73 43 32 30 26 24 29 30 31 37 34 33 31 30 33 65 91 92 95 96 97 98 97 98 98 98 98 97 95 95 93 92 92 93
84 87 89 98 96 86 29 45 45 62 82 52 60 45 32 31 43 36 27 32 38 40 42 63 88 92 91 92 90 93 95 97 97 95 91 90 90 91 93 96 95 96 95 97
99 99 95 95 95 86 61 57 61 93 81 71 69 70 61 48 29 30 34 35 47 58 76 89 88 87 86 85 86 92 93 94 90 87 85 83 83 88 92 94 92 94 96 97
91 96 96 90 99 92 56 78 78 82 69 73 68 70 74 68 56 48 44 53 69 74 84 87 89 88 85 81 82 89 93 86 82 83 85 86 85 85 87 92 95 94 97 97
88 78 90 84 81 64 72 72 66 65 72 71 75 64 71 69 55 54 61 68 72 76 80 81 82 83 83 81 77 86 91 83 86 88 91 92 91 94 94 95 97 98 97 97
72 69 80 82 55 54 50 55 60 60 71 61 61 69 71 66 63 67 67 72 75 75 76 75 76 79 83 80 82 86 86 83 86 92 93 89 88 85 83 83 90 94 97 96
63 67 72 67 60 59 50 57 59 61 62 62 62 63 68 70 69 71 69 70 71 70 71 74 78 82 88 84 87 85 85 84 83 80 81 83 78 75 73 75 77 82 86 92
93 89 96 88 86 90 69 55 60 63 55 57 67 58 58 61 65 68 78 73 72 79 75 81 83 84 84 81 80 78 76 74 76 79 80 80 73 70 66 68 73 78 81 83

GFSCGP_sfc_rhum_048.txt.gz
RH
46 47 46 41 37 33 34 41 42 35 31 33 34 39 32 92 99 98 95 95 96 98 92 78 82 87 89 90 90 90 94 94 94 96 93 87 89 77 69 73 78 86 81 87
43 44 38 33 35 35 38 41 40 33 31 32 39 42 54 80 92 92 91 93 91 96 97 92 77 88 89 89 88 89 88 94 92 94 93 80 84 74 68 70 78 85 85 85
45 41 33 34 39 39 42 43 42 36 38 38 57 47 56 58 78 86 84 77 80 84 98 92 85 84 89 89 85 84 82 83 86 83 81 76 74 74 74 74 78 79 83 84
49 38 39 41 38 37 45 38 36 39 44 50 46 58 39 44 60 76 74 84 76 74 86 96 87 83 88 88 82 80 79 80 75 70 72 70 67 64 62 65 70 72 78 84
53 46 43 43 39 34 38 37 39 41 48 49 45 50 38 64 50 56 63 70 76 72 77 94 96 90 85 90 93 92 84 79 74 75 73 78 74 68 71 79 77 78 87 85
41 39 37 36 34 33 34 40 44 50 53 66 47 45 45 46 44 40 48 56 62 73 73 81 87 92 97 97 97 96 90 86 80 79 80 80 77 76 76 79 79 78 88 94
44 44 39 34 39 42 39 45 59 59 70 69 45 51 40 33 34 38 35 45 55 65 72 82 92 95 97 98 97 96 92 88 82 81 79 78 76 78 72 70 72 75 88 91
47 51 43 38 40 43 46 45 66 63 74 52 57 61 44 37 32 34 38 42 49 64 66 76 83 85 90 91 93 90 89 87 83 81 79 76 74 74 73 73 77 88 90 93
50 45 32 34 35 35 46 51 39 52 72 74 58 48 38 37 38 38 36 36 49 63 71 73 75 80 83 85 85 86 83 82 80 80 78 77 75 74 75 79 87 93 94 93
45 51 38 34 33 37 36 36 52 64 61 69 62 70 47 41 35 32 31 34 46 60 68 71 73 74 76 77 77 79 76 75 74 75 74 74 76 78 79 88 88 91 92 92
40 50 46 37 41 38 42 46 48 49 64 64 65 55 50 34 33 32 31 32 39 58 59 67 70 70 70 72 73 75 74 72 73 74 76 76 78 77 85 82 85 90 90 89
69 60 64 43 33 32 38 43 46 65 55 77 78 48 33 42 37 42 39 35 37 48 54 58 64 68 72 74 72 72 73 69 68 69 71 76 75 78 79 78 76 77 76 89
69 80 89 61 46 62 62 48 53 52 61 61 77 56 33 39 38 34 36 33 32 31 46 59 64 69 68 71 73 70 70 69 66 67 72 77 77 80 83 80 77 75 88 86
72 83 75 91 82 79 85 64 57 67 72 61 52 49 35 34 39 34 35 35 31 29 32 50 61 59 63 65 70 72 72 71 70 69 73 76 79 78 76 77 76 79 88 89
70 76 87 78 74 70 62 57 56 58 66 68 56 45 38 36 33 33 33 36 31 28 29 42 50 55 56 64 67 67 69 74 75 72 73 76 78 79 77 78 80 84 92 92
78 78 91 92 72 68 63 57 54 56 58 59 51 46 36 32 36 39 36 36 36 32 30 30 44 52 56 56 62 64 66 72 77 78 78 75 79 81 83 82 84 88 92 92
88 90 91 82 78 68 76 61 52 51 44 52 62 52 36 34 36 39 36 38 38 35 32 31 36 44 52 58 58 62 62 74 78 78 79 81 82 85 87 88 92 96 97 99
89 90 97 97 86 85 46 53 48 49 51 56 54 49 46 38 29 32 37 36 38 37 34 34 33 41 49 58 83 88 91 83 80 84 90 92 93 93 94 98 98 99 99 99
84 94 98 98 96 72 49 42 42 59 32 50 43 54 68 52 36 31 33 36 37 37 40 36 32 33 47 83 92 94 98 96 94 96 96 96 96 98 98 99 99 99 98 99
89 84 89 94 98 89 51 54 64 65 64 74 77 80 76 74 72 37 29 31 33 37 42 44 47 70 80 92 94 96 98 96 99 99 98 98 98 98 98 98 98 98 96 98
98 99 96 84 95 82 64 58 68 76 60 70 68 73 78 85 67 53 53 50 33 34 36 69 86 85 90 96 94 97 98 98 96 94 95 95 93 95 93 93 93 94 97 97
91 96 93 88 98 89 58 79 69 63 70 69 65 75 79 73 70 68 62 58 54 63 83 90 90 95 97 95 93 97 98 91 87 88 89 89 89 87 87 91 93 93 92 96
90 81 90 84 79 66 72 75 71 69 72 70 74 64 61 68 70 68 66 75 82 88 92 93 95 96 95 94 92 96 96 92 91 91 91 92 90 90 89 92 96 96 93 96
82 70 86 82 63 61 57 58 59 64 69 65 58 55 58 69 72 74 73 77 81 82 89 85 86 90 92 90 94 94 94 90 90 94 94 91 89 89 92 96 96 95 97 96
70 73 77 69 60 71 53 70 80 70 65 63 62 59 62 65 67 78 77 77 79 84 84 83 90 94 97 94 94 89 88 86 90 89 88 88 87 86 88 89 88 90 91 89
93 93 92 86 97 94 91 82 77 78 83 77 68 66 72 72 72 75 88 87 84 87 87 86 86 86 85 84 86 84 81 83 86 86 84 86 84 80 76 80 85 90 91 89

GFSCGP_sfc_rhum_051.txt.gz
RH
40 38 37 31 30 27 27 28 28 26 22 24 26 26 22 39 77 75 70 71 76 79 69 68 72 78 79 82 90 94 96 97 95 97 94 90 91 79 79 71 68 68 59 61
41 47 33 30 30 28 28 28 28 25 25 26 24 25 26 45 63 68 68 69 67 72 81 74 74 78 85 82 81 91 92 94 93 94 92 85 80 75 70 75 80 68 67 64
42 37 32 31 33 34 33 33 34 28 29 27 34 31 24 33 50 59 67 60 62 64 80 82 78 76 79 85 84 85 89 90 88 89 96 91 80 73 66 70 79 71 72 60
40 33 33 33 33 32 39 32 30 31 30 26 31 38 30 25 29 43 46 66 62 63 67 75 77 76 75 76 77 77 80 87 84 88 92 84 72 71 63 61 71 72 71 72
42 45 38 37 31 31 31 34 32 31 33 38 36 37 31 31 29 27 29 45 57 60 63 71 73 69 70 72 75 77 75 76 80 81 83 80 73 64 65 63 71 69 66 64
33 35 33 30 33 30 31 30 37 41 42 51 38 34 30 24 24 24 24 30 44 58 59 63 67 69 70 71 78 77 74 73 71 76 74 76 72 63 61 67 66 60 60 68
44 38 33 31 35 34 31 38 43 48 54 49 39 39 30 26 23 25 23 21 33 53 58 60 71 76 77 82 84 81 76 73 72 71 72 72 70 68 67 64 64 64 70 72
41 49 38 36 36 38 38 36 46 50 56 39 42 41 27 27 22 25 24 27 32 43 56 58 65 71 77 84 86 84 80 75 72 73 72 69 68 65 64 64 60 67 68 67
49 39 32 36 36 30 41 43 34 46 53 52 42 35 26 24 26 27 26 27 26 30 47 54 61 67 72 76 79 82 76 71 71 73 72 72 70 68 68 68 70 70 70 67
42 43 32 30 30 33 32 32 44 50 49 50 44 44 31 29 25 24 27 25 23 27 44 52 59 66 67 69 69 76 72 69 68 70 72 70 72 70 69 71 74 71 71 71
36 42 42 31 34 34 37 38 40 40 49 47 50 42 40 31 29 26 24 27 28 28 38 50 55 60 62 64 66 72 71 69 70 72 74 74 74 73 73 74 72 70 70 70
62 52 53 36 31 30 31 36 39 51 46 59 61 42 30 34 33 31 28 30 29 29 29 40 52 58 62 64 64 66 68 67 69 70 72 78 76 74 77 77 73 73 73 74
64 68 69 54 42 53 61 59 54 58 57 54 63 41 26 29 29 29 32 27 27 29 24 37 49 57 59 61 64 63 67 65 64 64 70 75 77 80 78 75 73 71 71 72
68 65 66 64 62 65 66 52 46 51 68 58 54 46 31 31 33 28 26 28 26 29 26 26 42 52 54 58 61 62 64 65 63 61 66 70 73 72 73 72 71 72 68 69
62 61 62 50 52 62 57 49 45 50 49 56 42 45 38 34 33 30 27 27 27 26 26 28 34 41 50 56 61 60 60 64 63 60 61 65 67 66 65 70 71 72 72 70
62 69 78 76 65 58 62 52 47 46 44 43 48 50 36 33 30 33 31 28 29 28 27 27 30 35 48 53 56 58 62 65 64 63 64 60 64 64 69 67 70 72 73 72
65 83 79 68 71 61 64 59 48 40 33 37 40 29 38 39 36 37 33 30 30 30 29 30 29 32 39 44 52 54 57 62 69 66 63 63 66 68 71 69 67 69 73 74
71 82 91 86 80 73 37 42 40 43 39 33 36 40 39 40 46 48 42 32 30 30 31 32 30 30 33 41 44 49 47 59 67 68 68 68 70 70 70 73 75 78 83 90
64 82 91 88 79 56 40 35 33 42 31 45 56 54 52 50 58 49 36 34 40 40 34 30 29 31 31 38 45 52 55 57 60 66 69 70 73 73 77 85 98 99 99 99
85 76 89 92 78 79 45 53 52 47 48 48 56 50 51 57 71 53 47 51 57 53 49 40 30 36 35 34 58 60 62 68 66 65 71 77 81 94 97 98 98 99 98 98
89 96 91 92 87 69 50 43 50 56 43 47 53 49 57 61 55 53 58 59 52 50 48 41 41 42 47 62 69 71 79 82 92 94 94 94 92 97 96 95 94 94 95 94
71 78 84 82 94 84 47 63 64 48 55 54 51 54 63 59 59 54 57 57 57 61 65 62 62 71 84 81 79 85 90 93 92 93 94 94 94 94 93 93 92 91 92 95
79 70 74 72 67 56 55 60 58 60 64 60 60 52 57 58 57 63 64 62 62 64 72 77 78 86 87 82 83 93 94 90 91 93 95 96 94 90 90 92 94 95 92 94
71 65 71 69 52 51 48 51 72 66 73 69 63 58 55 64 69 77 68 68 70 69 72 73 79 87 94 86 84 88 88 87 90 94 94 92 94 95 94 90 90 93 95 95
57 67 70 66 54 62 55 78 77 71 67 66 64 65 76 78 79 84 80 78 77 76 78 80 87 92 94 88 88 85 85 82 87 87 87 87 87 89 92 92 92 92 88 83
66 66 77 68 90 89 79 70 75 74 72 67 69 72 72 76 76 78 82 78 80 76 72 74 77 80 84 84 84 83 80 79 79 80 80 83 82 82 81 86 93 94 90 88

GFSCGP_sfc_rhum_054.txt.gz
RH
30 28 26 17 17 16 14 16 14 11 13 17 17 15 13 15 23 32 32 36 40 39 40 44 53 65 68 74 87 94 92 92 93 94 94 94 93 88 86 76 64 64 52 50
35 36 21 18 17 17 17 18 16 13 16 16 12 14 13 16 21 26 29 33 37 38 42 47 53 58 73 67 79 89 91 88 89 90 91 89 87 76 73 68 64 62 63 48
30 22 21 24 23 23 20 20 19 18 17 16 17 17 14 14 21 26 28 29 32 37 40 47 53 55 62 64 76 86 88 91 87 90 90 92 94 92 81 72 59 60 58 46
24 17 26 27 24 20 24 17 20 20 21 17 17 22 14 14 14 20 22 33 33 35 37 40 49 53 55 57 62 74 86 87 89 91 88 90 88 87 77 72 55 50 57 55
31 26 25 27 24 18 21 18 22 21 22 20 18 21 15 13 16 13 12 19 29 32 37 40 45 46 49 52 59 66 76 82 85 85 84 87 83 76 73 70 71 66 60 55
23 22 22 20 19 20 19 23 24 25 23 33 20 19 15 12 15 13 11 13 20 29 34 37 41 44 46 49 55 63 71 76 82 84 81 82 79 71 67 74 73 78 74 67
28 26 27 26 21 23 21 27 31 33 35 34 19 23 19 16 14 14 13 11 20 26 33 37 41 44 46 52 56 58 63 72 79 82 78 75 74 69 65 63 62 61 71 73
26 36 29 28 26 27 28 25 29 36 38 25 27 30 20 15 15 15 12 14 17 26 33 34 37 43 46 51 54 59 56 57 65 76 75 66 64 59 58 55 51 51 50 52
28 25 24 26 27 23 28 34 23 29 38 37 26 23 18 15 14 14 14 15 15 18 27 31 33 40 45 49 56 63 56 51 52 62 68 69 64 62 57 55 54 51 50 45
29 34 25 27 26 26 28 22 37 34 42 42 25 27 22 19 16 14 14 15 13 14 18 24 31 38 43 46 50 63 57 49 48 53 58 58 62 61 58 58 59 57 56 57
27 36 36 29 32 30 32 32 30 26 30 37 35 26 20 20 24 25 18 15 15 17 18 24 30 35 40 43 48 56 57 51 49 53 56 59 60 60 60 61 60 59 59 58
29 38 40 29 28 24 23 27 28 37 37 36 44 28 19 23 22 20 20 18 17 17 18 20 30 36 40 44 45 48 52 50 50 50 56 63 61 60 62 64 62 64 63 60
49 37 37 32 29 29 33 34 33 36 39 40 56 31 18 19 20 19 19 18 17 16 16 18 26 34 38 41 45 45 50 50 48 49 54 60 65 65 65 64 63 59 60 59
58 45 40 32 31 33 49 40 36 38 49 39 36 30 26 23 21 19 19 19 17 18 17 16 18 27 34 38 42 44 46 50 48 47 52 57 61 62 64 63 61 62 58 59
51 59 42 37 37 34 36 36 34 36 37 44 33 30 24 20 18 20 22 22 19 18 18 18 18 18 24 34 40 41 43 47 49 48 49 54 58 57 56 58 59 59 61 58
47 44 42 40 31 40 44 33 30 30 29 30 28 29 20 17 16 18 19 19 22 21 19 18 17 18 21 27 35 38 42 45 48 50 50 48 53 54 58 55 57 59 60 57
50 59 49 39 46 39 42 37 31 28 23 23 26 19 16 19 20 22 22 25 31 29 26 22 21 21 22 24 36 39 39 42 47 50 48 48 50 53 55 54 54 56 59 58
52 65 65 54 67 59 23 28 29 30 23 19 19 20 26 29 31 33 32 32 40 40 41 38 31 26 20 20 23 28 28 38 44 48 48 47 50 51 51 53 55 57 58 62
48 57 72 71 55 34 30 20 23 27 19 26 28 28 27 28 32 28 33 34 40 44 43 39 34 32 29 23 21 30 28 31 38 45 46 45 48 52 52 56 60 64 68 77
49 53 65 73 61 62 32 35 35 33 34 32 34 36 35 35 44 33 34 37 41 39 40 40 41 38 31 24 22 27 33 34 36 42 42 44 49 51 54 60 74 91 93 96
77 73 78 66 75 48 31 26 33 55 53 39 36 35 37 44 41 40 41 40 39 42 43 46 49 49 40 33 34 33 34 38 37 40 48 50 53 63 82 88 91 94 94 94
70 69 73 61 75 78 32 37 46 58 45 42 39 38 44 43 44 44 46 46 45 46 46 47 56 58 56 57 53 44 44 71 76 80 86 90 91 90 90 94 95 94 92 95
66 45 50 46 47 42 40 46 43 50 54 54 56 50 50 46 46 53 54 54 51 47 50 56 66 73 79 73 63 64 86 86 89 91 94 93 92 90 89 93 94 94 92 94
39 37 53 50 37 35 32 39 54 54 58 52 49 52 56 60 54 53 54 60 60 62 56 66 78 87 89 84 84 88 88 86 91 94 96 95 96 96 93 91 90 92 94 94
36 38 47 42 34 31 33 54 60 58 56 54 51 51 57 57 55 59 59 65 68 83 78 70 77 82 87 88 88 86 88 87 92 92 92 94 93 92 93 93 91 93 93 89
33 40 52 49 57 61 56 52 62 61 62 57 57 55 53 57 57 59 65 69 82 91 95 87 85 87 85 83 87 87 87 87 89 91 91 92 91 89 86 87 92 95 95 92

GFSCGP_sfc_rhum_057.txt.gz
RH
16 21 23 23 20 16 15 15 15 13 9 12 13 11 11 11 11 14 20 20 25 27 27 30 41 42 49 60 80 83 87 89 89 93 95 97 96 96 94 86 58 61 51 50
24 25 16 14 14 15 15 17 16 13 10 14 12 10 9 9 11 12 16 20 22 26 28 33 42 47 52 60 76 86 82 89 84 85 82 81 89 92 88 82 76 57 56 48
27 18 19 18 17 17 18 19 18 16 12 14 13 12 11 9 10 11 14 14 16 23 28 34 40 48 54 58 71 86 84 83 80 82 80 84 83 88 90 82 74 68 63 50
38 16 21 22 20 19 24 15 16 16 17 20 11 17 12 10 11 13 14 14 16 19 25 29 37 44 52 53 60 76 84 79 77 83 87 87 86 83 75 73 65 48 60 60
32 22 20 23 20 19 21 16 16 18 20 20 17 17 14 11 11 11 11 13 16 18 23 27 33 38 42 46 60 65 85 83 79 77 83 86 78 71 69 73 71 60 64 78
24 20 22 26 19 16 15 18 18 20 21 32 22 18 15 12 11 12 10 9 12 18 21 25 29 34 39 43 52 67 76 86 85 80 81 83 83 81 77 76 79 61 61 67
20 26 20 21 24 18 17 23 31 33 34 36 18 19 17 12 12 12 11 10 11 14 19 25 29 33 37 44 49 58 66 75 85 86 83 80 73 80 74 71 70 71 74 74
26 38 23 22 24 22 22 23 31 42 43 27 18 23 15 12 12 12 11 10 11 15 20 24 27 33 35 43 47 50 55 58 76 83 82 74 69 69 62 67 61 62 68 69
26 19 15 19 21 22 24 28 19 28 30 37 21 19 14 14 12 12 11 11 12 14 19 22 24 30 35 40 47 49 47 48 57 78 81 79 75 71 63 62 60 58 59 53
24 27 14 18 22 22 22 18 28 29 46 48 26 27 26 17 15 14 13 12 12 12 14 18 22 26 32 36 40 49 44 42 46 55 70 74 74 71 63 61 60 60 58 56
23 31 28 24 29 27 27 30 30 25 29 40 42 27 16 21 22 21 18 14 16 16 16 16 18 21 28 33 37 46 47 41 41 49 58 66 68 71 68 66 61 58 58 55
32 36 37 37 21 21 22 27 32 38 43 32 41 33 18 20 19 19 18 16 15 14 14 15 18 23 27 32 35 41 47 44 41 42 51 60 63 63 67 67 63 63 60 56
50 38 44 36 29 25 27 25 25 28 32 50 60 35 17 17 18 17 18 16 15 15 14 14 16 23 28 31 34 38 45 46 42 40 46 56 59 60 62 63 62 60 60 59
58 51 35 38 34 23 33 30 27 30 43 39 40 31 21 21 20 17 16 18 18 17 15 14 14 15 23 29 32 35 38 45 44 40 44 51 57 57 58 59 60 61 59 59
64 64 51 28 31 30 27 31 31 32 30 38 31 29 21 19 18 15 14 15 15 16 20 20 19 17 16 21 29 31 34 38 43 42 42 47 55 55 55 58 59 59 61 57
56 73 55 54 32 31 35 30 27 25 24 25 23 23 16 16 16 16 16 15 17 20 26 28 28 24 21 19 18 26 32 36 39 44 45 43 49 52 56 56 59 61 61 58
45 52 71 71 40 36 44 34 30 28 24 25 30 22 15 16 16 18 20 23 24 27 32 35 34 33 30 26 23 22 25 32 36 41 44 43 46 50 54 54 53 56 60 59
50 47 47 63 53 81 28 20 20 24 21 18 17 16 18 20 21 21 20 28 33 34 37 36 35 36 34 31 27 26 19 24 31 36 40 42 45 47 49 52 53 57 58 61
41 49 60 58 51 33 22 20 21 23 18 16 17 22 23 24 25 23 27 30 33 34 36 36 36 39 40 39 34 28 22 21 22 31 36 39 42 44 46 50 55 58 60 62
39 46 62 59 59 55 27 20 25 21 26 24 28 30 30 28 40 28 30 32 34 30 33 36 39 41 44 46 44 40 26 22 24 25 32 36 38 41 46 50 56 60 62 71
60 60 67 60 58 38 20 22 22 45 46 35 32 32 34 36 32 31 31 35 34 34 34 39 44 51 59 62 61 57 46 37 25 24 26 36 39 42 47 51 55 82 87 93
54 66 68 60 67 61 25 26 38 56 42 39 39 41 48 41 34 30 37 38 39 37 38 39 49 59 67 72 73 72 62 57 61 57 53 70 72 74 80 88 92 92 94 96
60 44 50 42 44 35 29 44 46 44 45 45 46 42 44 42 39 39 41 40 43 43 45 46 52 64 71 74 78 87 84 83 83 79 85 88 88 88 89 93 96 96 95 97
39 52 48 61 33 42 30 39 43 43 46 42 41 41 42 48 46 44 45 46 49 49 53 55 59 65 79 79 79 84 87 86 90 94 95 93 94 93 92 91 93 95 96 96
34 36 37 41 33 30 27 44 51 46 44 44 42 44 46 48 47 47 48 54 58 63 66 66 74 70 82 83 85 85 88 87 92 92 91 92 92 93 93 95 95 96 95 91
30 35 48 48 52 52 43 44 48 49 50 48 51 50 48 49 50 52 59 65 69 77 81 79 84 81 87 89 91 89 92 93 92 93 92 93 93 92 89 89 92 95 94 95

GFSCGP_sfc_rhum_060.txt.gz
RH
31 22 23 30 27 25 22 19 19 15 12 13 15 13 10 10 11 16 17 19 20 28 27 33 39 44 69 76 78 81 87 92 94 97 98 98 98 97 94 92 78 70 64 64
53 30 14 16 22 24 23 24 21 16 12 13 12 13 10 9 10 11 13 19 21 23 28 34 44 46 57 79 82 81 83 89 89 91 87 91 93 96 92 92 68 65 65 60
66 31 19 17 17 21 22 24 21 19 15 13 14 17 15 9 9 9 12 13 17 21 29 36 45 51 57 70 82 87 82 84 84 86 87 92 92 94 94 94 78 62 63 55
72 51 34 37 23 20 25 16 16 17 19 23 14 24 15 11 11 10 11 16 17 17 25 34 42 52 56 64 78 86 82 83 82 82 85 90 90 91 74 84 82 63 70 61
78 50 52 38 30 22 25 19 20 20 21 24 20 22 17 12 12 11 12 15 17 18 23 32 40 46 52 57 71 83 83 82 80 80 80 82 83 76 68 78 82 72 72 76
44 35 42 29 19 20 19 21 23 23 25 37 25 23 21 15 12 11 10 12 15 17 21 27 36 41 49 54 70 81 85 81 80 80 80 82 81 79 70 75 74 71 68 78
35 35 23 27 32 24 25 28 37 43 44 46 23 24 24 16 11 12 12 12 15 20 23 27 35 39 46 54 66 70 83 86 82 83 81 81 79 77 73 73 71 67 66 68
54 59 29 24 29 29 30 30 39 58 60 36 21 27 20 14 11 12 12 13 16 18 24 24 30 38 43 52 64 67 71 78 84 82 82 80 76 76 73 70 68 68 63 64
49 40 22 24 27 24 34 48 24 36 35 49 37 20 15 13 14 11 12 12 16 17 20 24 28 36 41 49 56 66 64 68 78 77 80 80 79 77 77 74 68 67 65 63
29 46 25 19 22 24 31 27 44 36 55 64 36 28 24 20 17 14 14 16 16 17 19 24 26 35 38 45 50 60 58 58 71 80 82 80 79 76 75 74 75 71 68 67
26 36 37 26 25 30 31 35 40 41 34 55 60 45 33 28 25 23 21 20 22 21 20 20 24 27 36 40 45 55 54 53 57 77 80 80 77 73 76 74 73 72 70 67
49 37 44 43 28 21 25 30 33 55 58 41 56 42 27 29 23 25 23 19 19 19 18 20 21 27 31 39 42 51 53 50 51 60 76 81 80 76 78 77 72 70 69 67
48 46 54 41 36 33 32 31 29 36 54 91 78 57 24 20 21 21 24 24 20 21 19 18 19 27 30 36 40 42 52 52 49 48 62 76 79 80 80 77 72 69 67 67
48 66 58 52 57 64 65 33 39 41 81 80 80 51 43 36 27 20 22 21 18 19 22 25 28 30 30 33 39 40 47 54 53 46 50 64 72 74 74 74 74 72 69 67
62 92 61 48 44 40 40 45 35 43 61 73 48 40 44 44 41 21 17 18 18 19 25 31 35 36 34 34 34 36 41 48 52 54 48 51 61 65 68 71 70 70 70 68
64 82 74 65 45 34 34 38 61 58 28 30 40 56 32 27 16 19 19 19 23 27 34 35 35 35 38 38 36 36 35 42 47 53 52 49 52 57 63 64 68 70 71 69
58 70 90 74 51 43 51 35 42 45 24 24 32 25 24 19 17 19 24 25 34 35 38 39 39 41 42 43 43 42 39 35 39 48 50 50 51 53 59 62 63 66 69 70
51 51 74 84 84 78 32 20 22 27 24 23 23 23 19 20 21 20 30 36 36 34 38 39 40 42 44 47 51 53 46 43 34 33 43 48 51 52 52 59 63 66 67 71
42 50 78 95 75 64 43 24 22 24 26 19 17 18 20 23 26 34 31 33 36 37 36 39 41 45 51 58 60 62 59 53 50 44 29 39 46 51 52 56 62 65 68 71
40 49 66 70 75 83 35 26 22 20 34 23 27 31 31 30 53 53 37 34 36 38 38 41 44 47 57 64 67 70 67 64 68 71 63 53 35 46 51 56 61 66 69 72
60 66 74 73 72 48 22 20 22 42 62 41 36 41 42 46 40 35 34 37 35 40 42 46 48 54 62 65 68 75 76 77 73 77 74 75 78 55 52 58 64 71 90 96
58 72 76 65 67 65 21 24 35 64 59 52 49 46 53 44 39 38 42 43 44 44 46 51 55 58 62 64 68 74 78 80 78 80 80 82 85 85 86 92 94 94 96 97
93 47 55 46 47 39 32 51 47 46 56 54 48 42 43 44 44 41 45 48 49 51 55 58 63 64 65 66 68 79 82 83 84 87 89 89 88 88 90 95 98 97 97 98
81 57 47 58 41 28 52 48 44 44 47 43 43 44 45 50 47 48 48 56 58 62 67 65 68 71 74 71 72 80 80 84 85 89 91 90 91 92 90 93 94 97 98 97
75 87 56 54 57 72 77 65 48 45 46 48 46 49 51 51 52 55 62 64 66 70 72 70 76 77 80 76 78 78 85 81 87 89 90 92 91 92 92 94 93 94 96 92
46 82 77 81 70 81 83 54 48 52 53 52 52 53 51 53 57 61 68 68 72 78 80 80 82 82 84 82 86 87 87 86 89 92 90 94 92 93 90 88 92 95 95 95

GFSCGP_sfc_rhum_063.txt.gz
RH
42 42 42 25 31 31 31 31 33 28 19 20 19 16 16 17 20 28 28 26 39 42 40 43 59 80 89 93 93 91 95 98 97 98 98 99 98 98 97 91 79 81 74 73
67 56 38 24 20 32 31 33 34 26 20 22 21 18 18 16 16 20 25 27 27 39 42 45 75 81 90 92 94 89 91 95 94 92 93 93 96 96 93 92 88 76 74 66
82 58 37 38 27 21 30 36 34 30 23 18 19 22 20 16 16 14 18 20 24 38 45 50 63 91 95 94 94 88 89 92 91 91 93 93 94 96 96 93 86 73 71 61
78 61 52 49 55 29 24 20 22 23 25 31 23 38 24 19 17 14 14 23 25 39 43 50 54 74 96 95 94 84 86 89 88 89 91 92 91 93 84 82 72 66 70 67
66 71 66 59 42 34 42 26 28 28 30 32 29 38 28 22 21 15 16 20 23 36 44 53 57 59 79 92 96 92 86 86 85 84 86 84 83 78 80 86 86 75 74 71
50 48 66 65 50 46 37 45 36 34 35 50 37 36 38 26 20 19 14 18 22 31 43 49 56 57 71 90 96 95 90 87 85 85 84 86 83 83 79 94 95 85 76 72
38 47 40 53 65 47 40 59 63 59 61 64 32 36 30 25 18 19 18 19 22 29 42 49 59 64 64 89 96 94 91 89 85 85 85 86 83 80 76 84 84 80 81 83
41 67 38 33 35 56 43 48 72 70 74 50 30 41 30 20 16 16 16 21 25 32 42 48 53 60 63 79 91 88 91 84 85 85 88 84 81 82 73 72 76 75 73 73
53 48 32 28 32 35 51 52 35 57 66 70 56 41 21 20 18 16 16 22 29 32 40 46 48 54 61 69 86 89 88 81 80 85 85 85 78 76 78 70 68 69 64 63
41 52 33 32 30 37 41 33 64 84 91 94 50 52 54 36 22 24 21 25 27 28 32 44 46 50 56 65 74 82 83 80 79 80 82 81 80 77 76 78 74 68 66 62
52 52 44 33 35 42 43 55 83 76 65 76 75 61 47 37 34 31 29 28 28 26 30 31 43 46 51 58 74 74 76 78 82 81 79 82 82 80 77 80 77 74 70 65
57 74 60 37 25 27 35 43 71 98 83 72 69 73 43 35 27 28 28 24 26 30 33 37 37 40 53 56 63 70 69 72 79 81 81 84 81 80 82 80 76 76 75 71
48 72 77 58 40 36 47 35 50 55 61 96 98 67 51 49 45 25 22 21 27 36 38 40 39 41 45 59 66 63 66 66 64 81 85 88 85 79 79 78 77 70 76 76
53 67 80 86 70 77 80 59 37 48 84 80 88 73 70 61 59 44 23 23 33 41 41 41 44 45 47 53 57 63 68 68 64 71 83 86 86 81 80 76 74 77 74 78
76 86 77 72 60 61 71 68 50 58 59 90 74 78 62 77 68 42 25 31 40 42 43 44 48 49 48 49 51 52 57 64 74 68 68 81 84 82 81 80 76 76 77 75
70 86 82 78 55 52 58 57 46 64 64 59 68 83 72 72 71 57 32 41 45 47 45 45 45 48 54 61 66 65 63 63 58 70 66 62 74 81 82 82 82 81 79 77
83 88 89 89 65 74 72 51 66 72 72 63 91 57 67 69 54 41 46 42 45 47 48 50 51 57 64 68 67 70 67 64 62 62 60 64 61 68 76 77 79 80 81 80
68 71 87 97 72 95 57 47 46 54 61 48 30 38 28 37 43 44 45 46 47 49 51 54 57 65 69 70 72 72 70 69 69 75 74 75 79 68 61 70 74 76 77 80
56 70 91 97 89 69 54 46 33 42 40 32 29 28 32 42 44 48 42 46 51 55 54 54 60 68 71 70 68 71 72 73 73 77 77 75 78 80 82 69 71 70 72 75
52 67 84 95 89 91 64 41 30 30 68 50 48 49 48 49 67 59 49 51 54 56 56 57 59 65 69 69 67 70 72 74 78 78 78 78 77 82 86 88 80 69 71 75
72 76 82 84 91 80 46 34 28 55 84 61 57 58 56 60 62 55 54 56 56 60 63 63 63 67 70 67 68 73 74 79 75 75 76 77 79 84 86 92 96 81 89 99
85 80 91 90 90 83 35 52 58 80 71 61 58 60 63 57 55 59 59 63 66 69 67 66 70 70 69 69 72 78 81 77 79 77 78 81 82 82 83 94 97 98 98 98
98 85 82 70 71 64 64 69 71 66 65 62 61 57 56 58 61 64 66 68 70 71 71 67 69 71 74 74 76 82 84 81 81 81 83 83 81 81 84 91 96 97 98 99
85 80 91 75 80 80 90 72 55 54 59 57 56 56 57 63 64 67 68 72 73 71 72 70 72 77 82 79 78 81 83 82 81 84 85 84 85 84 86 86 89 95 97 97
90 93 93 81 88 91 87 84 72 61 55 56 56 58 60 65 70 71 73 74 74 74 72 73 78 80 84 81 84 84 88 84 85 84 86 87 85 86 84 90 93 91 96 95
87 100 100 99 96 94 96 80 74 70 59 60 61 65 63 67 71 72 77 76 78 86 82 81 86 86 89 88 89 89 90 88 87 89 91 94 93 92 87 82 88 95 95 94

GFSCGP_sfc_rhum_066.txt.gz
RH
54 53 55 33 33 37 35 37 42 33 29 30 28 26 27 20 18 22 30 37 46 48 46 64 89 95 97 98 97 97 97 98 97 98 98 99 98 98 96 94 82 84 77 81
76 70 46 33 27 28 36 39 43 33 26 28 27 30 21 19 18 20 28 34 44 52 53 75 94 97 97 96 95 96 96 97 97 96 94 96 96 97 94 95 92 83 83 76
80 65 49 41 40 35 31 32 40 38 30 24 30 31 22 19 18 19 25 26 35 48 51 74 92 96 96 97 97 95 95 95 93 92 95 98 96 98 99 98 97 93 87 72
85 66 66 64 55 43 59 23 23 28 32 55 31 51 28 23 22 20 19 28 34 46 45 65 86 97 96 97 95 95 94 91 90 92 92 94 90 96 91 92 91 93 85 77
70 76 76 73 57 43 46 44 50 47 52 53 37 42 29 26 25 22 21 21 30 43 46 60 83 91 92 96 97 96 94 90 89 92 88 92 93 88 88 89 90 93 92 78
58 65 64 61 51 48 53 53 52 44 49 71 44 43 45 33 23 22 20 20 28 42 45 50 68 86 94 96 97 97 95 90 89 90 91 86 87 84 86 90 90 91 79 77
41 55 59 58 68 54 57 72 70 69 72 75 40 44 39 29 25 23 23 20 26 42 49 56 69 92 96 93 96 96 95 94 90 88 89 85 84 84 86 90 82 81 76 74
50 61 44 57 64 66 61 76 85 91 93 67 34 47 36 24 20 20 20 23 30 44 52 62 64 77 94 93 96 95 95 94 94 88 86 85 83 85 83 86 83 86 77 69
56 55 41 45 43 52 75 93 63 84 69 91 61 45 32 32 24 21 20 32 41 48 54 62 64 65 90 95 95 93 95 93 92 91 85 88 90 86 82 83 86 81 87 75
47 61 38 37 37 41 50 60 97 97 96 94 58 51 55 41 39 30 34 38 45 50 53 57 64 67 72 87 89 89 89 89 90 90 88 84 84 83 83 80 81 81 80 81
68 60 51 43 45 58 60 95 91 82 82 96 81 73 64 52 38 38 44 46 48 49 52 58 61 65 67 82 89 91 88 84 88 91 89 86 83 81 79 78 77 75 77 76
59 76 90 54 32 31 53 73 75 98 86 81 87 94 74 56 43 33 43 46 48 47 48 50 62 67 68 80 85 92 91 86 83 86 88 89 86 82 84 83 80 78 75 75
52 73 91 61 47 37 51 50 63 75 88 97 98 84 75 59 63 58 40 47 48 51 52 51 52 55 60 70 85 84 85 88 86 85 86 89 89 88 85 82 80 80 78 76
57 73 84 90 88 80 85 66 62 84 99 89 91 73 81 84 81 58 52 49 49 52 52 55 59 65 67 68 71 69 74 77 80 86 87 88 87 86 85 81 80 80 78 78
71 77 87 76 69 59 58 84 78 73 80 86 71 68 71 88 80 70 58 50 50 52 53 58 65 69 68 68 68 68 71 72 70 79 87 90 89 87 84 84 81 80 81 75
82 84 89 86 60 50 61 71 75 93 85 61 62 70 70 89 86 68 57 50 55 58 58 61 63 65 66 69 73 72 73 74 73 77 78 77 85 88 89 84 86 84 81 82
81 87 90 87 68 63 82 63 58 61 74 79 94 67 79 83 84 71 55 56 59 60 63 66 69 67 64 67 68 76 73 72 73 75 74 77 77 81 83 86 86 87 85 82
78 76 89 97 80 83 58 40 41 67 69 69 72 78 77 69 76 72 52 59 63 63 67 70 70 67 68 67 68 69 68 70 73 76 75 77 79 79 80 79 81 86 87 88
70 78 89 92 92 63 42 48 54 66 77 65 73 74 72 55 62 68 60 61 64 66 66 71 68 69 70 70 69 69 72 73 74 76 75 73 77 79 81 84 87 88 93 87
65 73 84 97 90 89 64 45 41 41 97 62 54 68 57 56 93 82 65 65 69 67 67 68 70 69 71 71 70 72 76 78 81 76 73 70 72 76 81 84 88 88 92 94
86 91 86 91 95 79 52 43 44 70 96 65 60 66 68 79 73 69 65 67 64 66 68 68 69 74 74 72 74 77 78 83 75 72 73 74 74 76 78 84 86 93 96 98
83 89 95 90 94 82 56 54 64 76 74 68 64 66 75 70 68 69 68 71 70 71 69 67 72 76 75 76 76 80 85 78 72 72 76 79 79 78 78 86 89 92 96 98
99 88 95 77 76 88 72 73 68 67 77 73 71 64 66 68 69 70 74 74 73 72 72 69 73 78 80 75 78 86 85 78 78 79 81 81 78 79 80 87 90 93 93 96
91 84 98 91 88 90 88 75 60 59 67 65 64 67 66 73 70 74 74 75 75 74 77 74 77 84 86 80 83 85 81 79 80 81 82 83 83 81 82 83 86 92 93 93
94 89 97 98 91 89 89 89 83 62 63 64 64 67 69 73 76 77 80 80 80 81 80 82 85 85 86 82 85 81 82 78 80 81 81 86 85 86 84 89 94 93 96 96
94 100 99 99 97 98 97 84 78 80 74 65 67 71 71 73 78 77 81 78 84 88 87 87 87 85 90 88 89 87 81 85 87 85 87 90 88 87 85 85 82 85 94 96

GFSCGP_sfc_rhum_069.txt.gz
RH
62 61 64 44 40 41 44 47 48 44 30 38 37 34 29 25 29 23 21 27 48 48 47 76 94 96 98 98 99 96 90 98 98 98 98 98 99 99 98 98 90 94 92 83
77 76 54 46 40 34 35 40 46 38 29 34 37 36 28 25 24 22 20 28 32 47 64 92 95 91 91 91 95 98 90 94 96 97 94 96 97 97 96 97 95 90 87 88
79 65 58 53 49 48 44 38 43 44 35 36 38 37 36 27 22 20 21 24 37 52 59 94 92 91 93 91 94 97 96 89 89 94 96 97 98 99 99 99 97 94 90 90
86 70 71 75 71 55 58 35 39 30 35 58 42 64 43 33 28 26 22 32 41 54 52 81 95 90 90 89 96 96 87 89 93 94 95 94 94 97 96 95 96 96 90 90
73 82 90 81 70 54 54 58 58 57 61 61 51 59 46 34 31 27 25 23 32 45 51 73 93 93 86 85 91 91 89 96 94 92 91 94 90 88 92 94 95 97 97 92
67 67 68 69 58 51 51 62 57 58 62 77 50 53 54 40 31 27 23 22 26 43 48 58 81 91 89 88 89 91 91 96 94 92 93 97 89 89 94 94 95 96 96 94
44 50 68 65 75 60 64 86 85 78 81 72 48 52 42 34 30 29 28 23 26 41 50 69 94 96 91 96 93 88 90 92 95 91 95 95 96 90 91 91 93 96 94 95
54 49 63 65 61 66 63 89 95 89 90 80 51 60 39 36 32 31 23 22 22 33 48 68 88 93 93 87 90 85 89 86 92 91 90 88 92 86 88 88 88 88 86 83
56 57 45 62 58 67 86 92 84 93 87 93 72 49 39 41 43 45 32 24 29 47 50 64 84 89 94 88 87 87 88 83 85 91 89 88 86 93 92 91 88 83 79 75
50 60 44 46 56 66 85 76 99 98 97 95 68 68 85 62 54 55 63 64 58 64 65 68 78 87 91 91 86 92 88 85 82 85 92 90 89 84 92 94 95 93 93 87
61 56 53 48 63 73 91 96 96 92 90 95 90 94 76 75 70 62 63 64 66 70 75 78 78 83 94 92 88 91 90 89 85 85 82 87 89 92 93 88 89 92 92 90
55 77 95 73 45 52 63 78 93 99 97 93 99 93 74 75 64 60 61 62 63 70 75 78 80 84 95 97 95 90 87 89 89 88 87 90 94 89 88 88 84 85 86 89
52 73 92 67 58 60 73 78 82 85 92 90 97 84 76 70 69 60 62 61 64 70 76 77 76 77 84 92 94 96 95 93 92 93 90 90 96 95 93 88 82 79 77 80
59 75 82 91 90 82 95 80 74 88 100 94 94 86 87 79 81 70 72 58 66 74 74 76 77 78 81 81 80 80 78 77 76 85 90 95 94 94 93 92 92 88 82 77
66 70 89 79 74 70 71 76 78 95 92 98 71 68 68 84 88 88 70 57 62 66 68 68 72 75 75 77 78 78 79 77 78 82 82 86 89 89 89 89 89 87 88 84
82 83 91 84 73 61 57 52 64 78 84 91 80 70 71 84 85 87 84 68 68 70 69 64 60 63 68 70 74 73 73 75 74 77 78 76 77 82 88 90 89 89 87 86
81 88 90 82 74 74 76 72 56 71 78 75 97 72 87 89 77 84 88 79 76 70 70 66 66 68 69 72 70 76 73 72 75 76 75 77 77 76 79 79 80 90 90 87
81 79 90 95 82 80 47 33 52 62 69 74 78 79 79 74 84 82 83 87 83 78 70 70 73 70 70 70 70 70 71 76 75 75 73 73 75 75 76 78 80 84 89 93
72 81 89 89 92 64 51 55 59 66 69 69 71 71 70 84 77 86 73 75 81 79 72 71 68 68 69 72 70 73 76 77 75 76 74 72 74 74 75 79 82 84 89 92
81 76 82 96 87 86 58 51 45 55 86 75 67 80 88 70 93 98 82 80 77 72 69 70 70 70 75 75 72 78 80 77 78 78 76 74 74 76 78 80 84 85 88 93
90 94 94 89 92 80 57 75 56 87 94 78 69 82 84 78 79 74 74 76 72 68 68 67 70 78 78 73 73 78 77 78 76 75 75 75 78 77 78 80 82 86 90 95
82 91 97 91 87 87 76 76 73 87 82 77 75 75 81 76 71 71 71 71 70 71 70 69 77 80 76 75 75 80 81 75 75 76 78 79 80 77 77 83 87 86 88 92
94 96 92 80 82 86 77 82 80 82 89 88 90 82 79 82 89 81 83 73 74 75 75 75 82 80 79 79 78 84 79 78 76 77 79 78 78 75 75 79 84 87 86 90
90 94 99 99 93 90 83 73 70 67 74 70 78 88 84 91 88 85 76 77 78 81 82 78 79 84 88 84 81 83 80 80 76 78 83 80 76 77 79 78 79 83 87 89
99 87 93 98 96 94 92 85 90 91 82 80 69 69 72 74 78 78 80 81 82 81 80 79 83 85 89 86 86 81 85 80 79 83 83 85 84 87 84 90 90 89 92 87
97 100 98 99 99 98 99 97 84 89 92 77 73 77 73 74 79 78 83 82 83 87 86 86 87 86 88 86 87 88 83 76 79 84 88 92 90 88 86 85 89 82 84 84

GFSCGP_sfc_rhum_072.txt.gz
RH
56 58 57 46 41 36 45 52 56 51 37 42 42 41 34 31 32 32 32 28 27 42 44 82 96 97 98 98 99 92 96 98 98 98 97 99 99 99 99 98 99 95 96 94
74 73 55 50 46 41 41 42 42 40 37 39 44 42 36 31 31 28 28 27 27 29 68 95 96 98 97 97 98 89 87 98 98 97 92 97 97 99 97 98 98 98 96 92
73 59 60 60 63 59 55 55 52 43 37 36 44 40 35 29 32 26 25 23 24 32 63 96 98 96 93 96 93 90 87 94 96 94 97 98 99 99 99 99 99 96 96 93
81 67 69 79 83 67 72 49 44 41 47 56 43 60 42 38 34 31 27 26 33 32 54 91 94 93 87 90 88 90 88 85 94 95 94 94 93 97 97 98 96 97 93 92
69 81 85 90 76 63 70 57 64 61 71 68 62 58 44 41 39 34 30 26 25 50 64 92 92 89 82 84 88 98 91 88 92 94 93 96 96 92 95 97 97 97 97 95
71 65 76 75 63 62 57 70 62 66 75 90 60 57 54 48 38 33 28 25 24 28 65 82 90 89 84 82 89 95 85 84 90 91 93 94 93 93 98 99 98 98 98 97
45 46 67 64 76 69 73 80 91 89 89 87 52 60 44 32 30 39 43 36 27 23 60 85 97 89 83 86 89 87 88 90 90 95 94 93 92 90 94 94 95 97 98 98
50 46 64 70 62 73 84 71 94 90 90 81 58 67 50 46 45 53 57 58 34 29 55 76 93 92 83 86 85 90 88 86 97 98 98 94 96 96 89 92 93 94 92 91
52 56 50 67 64 59 81 95 82 99 99 97 72 58 53 64 66 59 65 67 71 37 48 67 92 92 85 86 85 85 86 82 83 97 97 98 97 96 91 92 92 93 90 86
48 62 47 65 67 77 81 82 99 99 98 89 70 81 96 88 77 70 75 79 80 70 70 84 95 89 84 81 81 84 83 82 80 84 97 96 96 96 96 93 91 92 90 86
53 62 55 68 70 86 83 88 98 95 86 98 94 95 81 82 72 77 78 83 90 83 82 90 94 82 84 81 88 89 85 82 83 85 85 96 97 96 96 96 96 90 90 87
69 90 96 76 54 59 79 92 89 99 99 97 99 97 76 68 65 66 75 77 81 81 85 90 91 92 92 91 92 89 87 86 82 88 87 86 92 96 97 96 94 95 91 92
64 94 88 62 67 69 82 81 81 94 99 99 98 90 76 70 71 74 69 74 71 73 76 80 83 87 90 92 90 88 90 93 94 87 89 90 93 94 97 96 94 91 92 92
59 77 70 65 74 82 84 66 67 97 100 98 95 85 86 83 84 80 66 69 68 68 70 76 80 84 85 85 86 86 85 85 83 87 90 91 91 93 91 90 92 92 89 86
61 69 87 77 74 73 73 73 66 76 91 100 88 87 73 85 84 87 65 66 63 62 61 68 76 80 80 79 79 75 76 77 77 80 80 87 88 92 91 92 92 90 89 85
85 93 88 75 76 64 59 44 55 58 74 80 85 84 64 87 85 90 80 68 69 66 65 67 66 68 71 73 72 74 78 75 75 76 78 76 78 80 85 87 91 94 92 90
81 88 84 73 76 70 56 66 51 60 76 83 90 72 86 92 86 89 88 78 77 71 71 73 71 72 74 72 72 76 76 73 75 75 74 76 75 74 76 77 78 84 90 92
88 82 86 91 74 79 42 37 54 78 71 72 70 77 87 88 84 83 79 84 86 85 80 77 74 72 72 70 72 74 73 73 74 74 74 74 75 76 77 80 81 84 88 91
77 83 90 86 90 62 52 62 70 74 65 66 73 71 88 86 82 94 85 82 86 84 83 78 74 74 73 73 72 74 73 73 75 76 76 75 77 78 78 82 84 84 87 90
84 77 82 95 89 86 56 66 67 66 84 84 76 77 90 74 95 98 89 86 85 81 77 77 75 73 75 75 72 74 78 79 81 79 76 78 76 76 80 81 84 84 87 89
96 96 95 94 94 77 63 80 74 87 83 85 82 83 86 93 91 96 93 97 89 72 71 70 74 80 81 73 72 77 80 82 76 73 74 77 75 78 79 82 82 84 85 85
83 93 98 89 92 89 84 79 78 93 87 83 81 82 90 89 85 86 85 89 86 76 75 75 80 84 81 75 73 80 86 75 74 77 78 77 79 72 73 80 83 86 85 88
88 85 89 80 81 86 81 83 77 84 92 89 94 94 84 87 93 96 94 93 90 79 79 76 79 84 82 78 79 85 88 78 78 79 77 76 76 75 76 81 84 82 84 86
88 89 100 100 91 86 82 79 82 75 76 87 92 95 100 99 97 97 96 91 82 80 80 76 79 84 88 83 84 86 80 78 78 82 81 79 78 78 78 78 81 85 86 87
99 99 95 98 98 96 97 98 97 89 88 90 88 88 94 91 92 83 83 83 82 82 81 79 81 83 86 83 85 85 78 77 78 82 83 87 85 86 85 90 90 88 94 87
99 100 98 99 99 100 100 99 96 94 95 85 80 81 77 82 88 89 89 81 81 85 85 85 87 84 87 85 87 89 88 77 83 87 89 94 92 91 87 83 89 83 86 85

GFSCGP_sfc_rhum_075.txt.gz
RH
44 42 45 42 42 36 32 36 36 30 28 31 31 33 30 27 26 25 23 22 22 23 22 31 60 68 70 78 89 85 90 91 93 90 97 99 98 98 98 97 91 94 94 95
62 59 45 40 39 38 38 41 42 35 28 28 27 29 29 28 26 25 23 22 22 22 21 42 70 71 73 80 88 84 85 89 89 78 89 93 95 96 94 92 98 93 94 97
54 48 53 50 55 59 56 59 56 54 42 35 34 33 27 23 24 24 23 22 21 22 22 38 72 73 72 82 87 83 81 85 83 86 85 95 95 95 98 98 99 96 96 96
67 55 58 62 65 64 70 51 51 52 51 53 32 44 32 27 26 25 23 24 25 22 23 28 63 74 74 75 80 80 78 80 84 88 90 95 88 96 95 94 97 98 93 95
52 72 79 70 54 58 59 53 57 56 58 58 51 52 37 31 31 26 25 25 25 25 27 40 64 64 68 75 80 82 78 80 86 85 84 86 83 74 88 93 96 96 98 93
61 54 62 58 56 55 52 60 57 55 59 75 52 50 42 34 28 29 30 33 33 27 31 42 61 66 69 74 81 86 84 83 88 85 84 90 90 88 89 95 90 97 98 98
39 42 53 56 58 56 53 62 70 73 78 62 42 53 44 35 33 50 52 48 48 42 38 57 68 70 72 77 86 88 81 85 88 88 90 91 89 89 90 93 93 97 97 98
40 44 47 58 48 51 66 60 72 77 72 62 50 53 42 59 53 54 56 58 56 53 33 57 66 70 73 76 84 82 83 84 86 88 90 88 87 88 87 90 90 89 93 91
43 43 38 59 54 44 71 78 63 98 74 89 51 44 59 55 58 61 67 71 73 64 51 45 67 72 73 75 85 81 82 83 85 86 83 84 87 87 86 87 82 89 89 88
39 48 41 68 58 66 65 72 99 97 88 77 52 56 76 74 72 68 77 84 84 72 69 65 73 78 71 77 82 84 78 74 78 82 82 79 78 82 83 84 89 91 92 90
40 54 52 64 65 66 75 75 96 97 79 77 84 90 76 81 74 81 84 84 86 87 85 78 74 78 78 82 86 84 79 74 74 76 81 83 83 80 79 83 86 87 90 90
74 80 68 53 46 51 58 65 85 95 90 92 89 79 86 77 70 76 82 80 83 85 89 88 86 88 90 91 88 85 82 77 75 76 78 78 84 84 83 82 79 79 81 85
70 97 92 73 66 63 70 74 94 95 97 95 93 82 82 81 68 70 78 78 79 84 84 85 86 90 92 92 91 91 90 90 87 84 84 85 81 82 82 82 78 77 76 75
71 66 92 68 57 61 72 55 56 91 97 96 96 84 81 85 87 69 66 71 74 78 83 83 84 86 87 85 85 84 88 86 86 86 87 91 90 88 88 84 81 79 75 74
88 76 82 62 61 64 56 54 45 50 70 90 63 71 71 76 83 90 66 59 70 71 73 78 81 82 82 82 84 81 79 78 76 78 80 86 88 88 90 91 90 88 84 77
96 80 78 61 66 53 50 38 42 52 49 56 66 72 55 58 77 86 78 64 66 70 71 71 72 72 73 75 74 72 74 76 69 71 73 73 73 76 82 84 88 88 90 93
90 89 69 57 61 51 41 45 38 48 52 60 73 61 68 84 83 82 79 71 71 72 71 70 71 72 69 70 70 69 66 64 68 75 66 68 69 72 75 74 77 83 88 88
96 68 72 69 61 53 30 34 42 62 60 53 55 70 88 91 95 85 76 82 86 84 78 79 74 69 68 68 67 66 64 64 66 64 66 68 68 69 69 72 74 79 83 90
85 72 73 71 63 47 38 56 62 74 60 76 74 75 87 87 82 95 88 85 90 90 90 87 78 78 72 68 64 67 66 63 64 67 69 68 70 72 74 78 80 82 85 86
75 69 68 86 76 66 41 62 56 65 51 77 77 74 82 81 97 98 95 95 94 82 75 76 75 78 74 68 66 67 68 67 71 72 71 68 69 74 77 79 81 79 78 78
88 86 81 77 76 61 70 70 69 46 62 81 82 84 77 90 96 99 99 98 97 90 73 72 74 77 76 68 68 70 69 73 67 66 69 70 68 74 73 73 75 74 76 77
68 83 88 75 79 77 79 72 72 91 86 84 83 90 95 92 90 96 95 96 94 93 73 70 75 76 72 68 69 73 75 69 66 66 69 70 73 73 72 75 76 76 75 79
78 78 78 68 67 84 78 88 83 85 90 91 91 89 93 93 96 96 96 96 97 87 70 67 72 75 73 71 70 74 74 70 70 70 70 70 68 68 68 75 77 79 76 77
74 93 100 100 96 93 92 85 87 89 95 94 89 88 93 97 97 97 97 96 94 85 73 69 70 75 80 76 73 70 68 64 66 69 72 70 72 71 68 69 73 77 78 79
98 98 96 100 99 98 98 98 97 94 93 93 96 93 92 92 95 88 85 88 85 82 74 71 74 77 80 75 77 76 66 65 68 71 72 74 73 74 77 83 81 80 91 82
99 100 98 99 99 96 96 96 94 92 94 94 84 85 88 89 90 90 89 86 80 80 77 77 80 79 81 78 80 79 75 68 70 74 76 80 76 74 71 70 79 81 82 82

GFSCGP_sfc_rhum_078.txt.gz
RH
24 26 27 24 26 21 24 30 28 22 19 23 24 21 17 16 18 20 18 17 15 14 12 12 18 33 41 46 52 60 81 78 81 86 92 94 94 94 95 91 88 90 92 99
39 36 21 21 24 29 28 28 30 28 26 28 26 23 18 16 15 16 18 18 16 14 12 12 19 36 46 49 53 59 70 74 74 72 76 84 91 93 89 90 90 87 82 92
34 24 37 33 34 36 34 39 37 39 35 31 31 26 20 18 18 16 17 16 16 15 13 12 21 38 45 50 57 56 61 64 68 66 67 71 86 88 92 92 90 88 80 91
35 29 36 40 37 39 41 36 40 41 41 31 27 30 22 20 19 17 16 18 16 15 13 13 16 34 44 48 55 54 58 63 62 59 65 71 77 90 77 77 96 86 89 96
32 41 52 44 37 38 37 40 40 40 44 43 36 38 23 22 24 20 17 17 16 16 13 15 16 24 36 45 56 58 59 65 58 58 62 63 80 79 70 82 93 94 93 94
34 30 43 40 42 36 36 40 33 35 43 55 34 35 24 22 26 22 23 20 22 21 21 18 18 29 37 47 58 62 63 67 61 60 65 74 77 78 73 85 87 98 98 98
30 32 35 40 44 39 40 38 33 44 60 44 30 35 30 24 35 36 34 33 32 32 29 22 30 36 42 54 72 72 62 70 68 62 62 67 64 74 75 72 81 94 97 98
30 35 30 37 39 31 39 37 42 50 43 32 32 39 28 40 38 39 38 41 40 37 34 24 33 39 44 54 78 76 67 73 72 64 59 71 71 78 77 76 70 78 86 87
34 33 29 38 37 33 52 58 40 61 52 61 32 27 36 36 39 40 46 50 55 52 46 31 36 43 48 55 80 81 72 71 72 70 62 71 74 74 78 80 80 80 79 78
31 38 30 43 42 42 49 45 79 72 78 55 29 34 42 56 54 50 57 63 71 71 61 43 45 52 50 64 76 79 68 70 71 70 74 63 67 70 74 78 76 66 72 78
30 37 42 51 50 41 57 60 69 92 68 58 52 85 86 81 72 75 68 74 83 84 88 61 56 56 63 72 80 81 68 71 76 78 78 66 63 69 74 73 74 75 80 82
41 52 49 36 28 32 33 43 54 69 70 85 94 65 77 69 70 74 74 76 81 83 86 90 82 79 80 82 84 84 67 66 67 77 74 72 70 67 71 73 76 79 79 81
93 73 61 46 51 43 47 49 85 88 99 82 90 78 82 80 71 69 73 76 79 84 84 84 87 90 92 92 91 89 81 76 79 73 74 76 79 81 76 69 67 70 74 78
96 71 57 42 82 48 58 47 47 59 82 61 54 61 69 78 81 82 66 78 79 81 84 83 84 87 89 89 89 90 91 92 90 82 86 91 86 82 81 77 72 69 66 70
96 91 57 57 67 58 38 35 34 44 47 59 33 31 32 44 57 73 56 73 78 82 80 82 83 85 83 83 85 85 82 84 81 79 79 85 84 85 87 90 90 89 82 73
98 91 57 62 60 44 42 32 26 31 37 36 36 40 36 48 62 68 65 78 82 82 80 80 77 78 80 77 76 75 78 76 70 72 74 73 75 78 82 84 88 90 90 91
99 100 66 60 47 39 41 30 30 32 30 44 55 45 45 55 75 71 75 69 82 84 78 75 77 79 76 73 70 66 64 62 64 67 66 66 67 69 73 76 80 86 91 88
98 97 68 52 42 45 35 26 31 39 37 46 43 61 68 79 90 91 79 84 83 82 93 81 74 70 66 63 61 58 54 54 58 56 59 64 67 65 64 68 75 82 83 86
83 98 78 54 45 31 24 44 44 48 44 55 59 56 82 86 82 96 91 87 94 92 90 87 69 76 67 60 57 57 56 54 58 64 64 62 64 66 66 73 76 74 73 75
69 64 89 57 50 45 50 45 40 39 44 58 62 70 76 82 99 98 95 92 97 94 92 83 69 62 64 71 58 58 60 63 67 64 59 61 66 64 70 71 72 69 67 68
71 67 71 57 52 40 50 48 46 47 73 68 70 81 83 90 95 97 97 97 100 93 90 84 72 67 60 57 57 64 61 60 64 60 64 68 62 67 70 68 66 66 68 69
52 61 68 57 63 59 60 55 61 86 83 76 79 84 90 91 91 95 97 97 97 98 77 58 60 62 57 52 54 57 67 67 60 58 61 65 67 61 63 68 68 67 67 72
76 78 72 56 72 73 74 78 85 83 90 90 86 81 82 88 96 96 96 96 97 95 57 52 57 62 60 53 50 57 60 58 59 61 62 61 62 62 59 61 62 62 63 68
66 72 86 94 96 96 92 80 85 89 91 84 86 84 95 95 96 96 96 96 95 93 61 52 56 61 66 62 57 57 55 53 56 59 61 63 62 61 60 60 64 69 72 73
87 74 88 100 100 98 93 91 79 86 87 90 96 94 93 95 96 89 89 92 92 93 81 61 62 63 64 61 62 57 54 53 57 59 61 63 64 68 73 78 76 76 87 82
88 100 96 93 97 96 96 91 84 86 90 96 83 84 85 89 90 91 89 81 80 82 73 72 72 71 70 67 69 67 61 56 59 65 66 69 66 64 62 66 76 81 82 82

GFSCGP_sfc_rhum_081.txt.gz
RH
20 23 23 22 21 21 19 19 18 16 13 16 18 16 14 12 12 14 16 16 14 13 10 9 11 14 22 28 38 48 59 60 59 61 69 72 76 73 83 84 85 91 86 84
22 26 18 14 16 18 21 24 24 18 15 22 23 21 16 14 13 12 12 14 15 14 12 10 11 16 29 33 40 48 56 59 58 54 58 61 71 69 68 75 81 84 86 87
28 21 24 24 22 24 23 24 24 24 21 19 22 22 19 15 17 15 13 11 11 14 13 11 11 17 32 35 44 47 54 57 58 54 57 63 81 73 78 78 81 77 76 76
23 19 22 21 26 23 28 20 25 31 29 27 17 28 19 14 14 14 14 15 13 14 13 12 10 16 30 35 42 45 51 54 56 56 61 72 73 73 65 66 71 73 74 80
25 24 30 31 26 23 30 25 34 32 31 28 24 24 18 15 17 16 15 14 14 14 14 12 11 11 23 34 43 47 49 51 53 54 52 56 56 59 59 62 77 88 84 92
25 18 23 27 25 30 24 33 34 28 28 39 28 23 18 16 22 21 19 18 15 14 14 12 10 10 20 31 44 50 50 50 51 52 52 56 56 60 62 69 81 94 93 95
26 25 23 31 31 29 33 39 36 27 40 42 21 26 21 18 27 28 29 26 27 26 24 18 14 13 19 33 47 50 49 54 51 53 54 54 56 65 74 70 78 94 98 97
22 25 21 24 32 30 30 34 37 45 40 43 33 32 32 29 27 29 29 34 36 40 39 26 18 18 25 35 48 50 49 58 52 53 54 53 53 57 57 61 64 78 88 92
24 21 20 26 27 27 35 41 27 42 37 40 27 19 25 33 34 33 38 40 47 50 51 41 22 28 31 42 65 64 50 67 58 53 52 53 59 61 63 66 72 79 76 82
25 30 23 27 28 29 32 36 65 53 65 50 27 27 72 58 50 52 56 58 61 66 69 63 30 34 36 56 70 76 63 71 62 54 51 60 60 61 66 69 71 71 74 72
38 30 25 22 33 30 39 47 49 57 57 60 57 78 70 68 64 66 60 61 73 80 83 77 73 46 54 68 74 81 73 72 71 69 58 65 69 63 66 69 67 67 72 75
58 71 39 24 20 20 24 36 44 70 52 53 61 67 69 62 66 66 60 66 74 79 82 84 88 86 76 81 82 80 74 72 74 67 67 70 68 68 67 68 63 65 69 74
84 67 56 38 29 23 29 28 33 55 68 66 75 77 73 60 56 62 63 67 75 80 81 82 86 89 91 92 92 93 82 78 79 75 76 74 73 73 71 71 70 71 72 79
66 67 67 52 50 59 65 31 38 53 74 58 54 37 66 54 59 62 62 66 78 81 83 83 85 88 88 90 89 90 93 92 85 83 86 87 80 70 67 67 71 79 77 78
65 72 53 46 31 40 62 78 39 48 44 50 33 26 25 35 50 62 59 69 79 82 83 85 86 86 84 85 87 86 87 86 84 84 85 89 88 87 88 90 85 83 86 87
75 75 57 71 52 42 52 53 29 26 23 24 25 27 34 51 54 56 66 70 80 84 84 85 83 83 83 79 81 82 85 81 80 80 83 81 82 84 88 90 92 90 89 87
79 82 78 69 56 49 66 44 30 22 23 26 43 45 48 66 64 66 74 76 80 86 84 86 88 84 84 78 74 84 82 78 78 78 74 74 77 80 83 85 86 90 91 89
91 82 87 88 56 69 34 22 20 24 25 34 38 56 64 85 93 93 88 91 94 95 98 87 88 78 74 74 73 72 75 79 75 69 72 70 70 73 78 81 83 85 86 88
43 89 90 95 46 37 24 33 33 38 64 47 48 44 72 76 76 97 98 97 99 100 100 100 90 81 73 63 60 66 69 70 68 74 67 61 66 68 68 73 76 74 75 77
46 75 92 83 60 53 53 34 33 30 54 56 53 56 59 76 97 96 95 93 98 100 100 100 100 99 96 88 61 62 66 67 71 70 66 65 68 68 72 73 74 68 66 66
70 74 82 88 51 46 47 36 32 45 88 63 63 69 76 91 96 97 97 98 100 99 98 100 98 92 90 88 97 91 76 71 67 66 64 64 66 71 70 69 68 66 66 66
50 52 59 54 57 57 58 44 64 88 74 71 69 74 84 85 89 96 97 98 100 100 98 95 97 72 55 49 55 60 74 86 84 71 68 69 71 65 61 68 74 72 64 68
78 86 94 88 96 82 71 78 81 77 85 82 79 76 80 87 93 98 97 99 100 100 72 52 52 54 51 46 47 53 55 53 55 59 67 73 73 73 74 78 78 74 71 79
61 50 82 85 95 93 86 76 78 79 82 76 72 76 87 96 98 96 96 96 96 96 64 49 52 56 60 53 49 50 48 48 53 58 60 60 60 61 59 62 72 82 81 80
69 60 72 98 88 80 78 93 92 84 81 86 87 84 88 95 96 88 90 93 94 96 92 57 58 61 62 58 56 50 50 50 57 59 60 64 66 68 75 83 79 77 88 87
72 98 92 96 86 92 98 95 94 92 86 94 79 78 81 86 91 92 91 89 86 90 91 83 75 71 71 70 73 72 65 56 60 65 67 68 65 64 62 65 75 78 80 78

GFSCGP_sfc_rhum_084.txt.gz
RH
22 24 25 21 19 19 20 23 23 18 13 15 17 15 14 13 12 13 13 14 16 17 15 13 15 14 19 34 44 62 71 75 72 82 84 87 92 89 94 92 90 88 89 91
22 28 20 16 16 17 19 21 21 17 15 18 17 17 17 18 17 15 13 13 15 18 16 16 17 21 33 40 46 62 67 69 68 72 74 71 75 82 84 84 87 88 90 90
26 20 17 23 22 23 21 22 22 21 17 18 24 23 18 15 14 16 15 14 13 15 18 17 17 22 38 44 51 56 64 65 66 66 67 71 76 80 77 87 90 88 88 88
21 17 19 21 23 21 29 18 19 25 26 38 22 38 21 14 15 15 17 18 18 14 13 16 16 17 38 43 52 54 60 61 64 65 67 75 79 82 76 80 87 84 83 87
25 20 22 26 25 18 21 20 24 27 36 38 34 29 20 15 15 14 16 18 20 17 16 18 17 16 34 42 53 55 61 61 63 63 69 74 78 74 74 80 84 86 90 89
20 15 17 18 20 21 23 28 26 31 36 52 37 25 24 21 30 29 24 25 30 22 18 17 17 16 28 38 52 58 62 62 62 65 71 75 74 71 75 84 88 96 94 92
22 23 19 19 28 25 30 38 43 41 38 47 47 58 28 36 35 29 29 39 41 46 51 50 34 15 18 42 54 58 59 61 63 66 67 69 71 72 72 80 87 94 97 98
22 25 16 21 30 30 30 36 49 48 54 42 35 81 45 34 41 49 48 50 50 54 60 60 58 71 26 46 56 58 57 57 62 65 64 66 69 72 74 78 85 91 95 95
32 24 21 20 21 24 30 36 27 45 39 47 34 43 64 63 48 49 54 55 60 63 66 68 68 73 31 45 59 62 56 56 59 63 66 68 70 73 80 81 81 86 90 91
36 50 20 21 24 24 28 26 63 82 72 54 30 39 86 81 71 57 57 61 66 69 72 74 78 83 58 56 70 73 67 59 65 69 66 64 72 73 77 80 84 87 90 91
36 52 54 35 47 37 31 41 41 50 55 71 84 95 91 79 70 63 58 61 72 76 79 78 83 83 85 74 82 82 76 79 71 80 71 74 74 77 79 79 80 80 84 86
39 87 74 42 23 24 25 29 40 71 58 56 63 68 71 57 56 57 60 63 72 76 80 80 82 84 90 95 87 85 84 85 82 74 77 83 80 80 82 80 79 83 84 86
41 60 66 43 28 22 34 31 48 58 67 72 87 70 66 60 52 60 60 66 71 77 80 82 83 85 88 90 90 92 94 89 88 80 81 82 82 82 82 78 78 77 81 88
54 48 61 72 58 58 72 66 51 44 81 63 59 58 47 62 54 56 65 71 75 79 82 83 86 86 86 88 90 91 94 94 91 88 89 94 94 90 91 88 83 84 83 87
45 58 47 50 40 38 54 82 59 60 72 63 45 35 57 62 64 64 64 68 75 81 83 86 88 89 87 87 88 89 91 89 88 90 91 94 92 90 91 92 90 89 88 85
69 67 48 50 38 37 51 43 56 66 83 71 61 37 70 76 59 66 68 70 78 83 85 85 85 84 89 89 88 87 89 90 84 85 89 88 88 90 91 90 90 90 90 89
62 90 75 62 38 45 69 40 35 40 52 37 50 69 60 80 87 86 79 79 86 92 94 96 94 90 89 90 89 93 89 81 86 86 85 87 88 88 88 85 86 89 91 89
64 68 73 78 61 78 39 23 24 28 51 65 47 60 71 89 94 95 90 90 93 94 98 98 99 96 90 88 88 87 85 88 85 83 83 83 85 87 86 87 89 89 89 90
42 60 84 86 76 72 32 27 29 34 91 58 54 53 69 78 79 96 94 97 98 100 100 100 100 99 97 91 82 85 88 90 89 94 88 81 81 84 85 86 87 88 88 90
32 46 83 74 94 96 97 52 30 29 94 68 58 67 70 71 95 98 93 97 98 99 100 100 100 100 100 100 93 90 98 96 97 91 94 82 82 80 80 80 79 77 75 80
53 71 82 87 95 98 80 58 33 48 97 71 66 73 83 93 95 96 98 98 100 100 100 100 100 100 100 100 100 98 97 97 92 94 92 96 91 88 83 76 73 73 76 77
57 71 75 76 95 94 71 60 79 94 82 72 71 76 85 87 90 95 98 99 100 100 99 98 99 99 97 98 96 100 98 100 97 90 94 98 93 89 96 85 82 79 80 84
92 84 98 93 98 92 76 86 81 76 85 81 78 76 78 85 92 93 96 97 98 100 88 90 91 76 58 61 67 73 83 94 99 100 99 98 96 91 85 87 89 89 86 86
74 58 94 98 91 84 84 77 79 80 81 75 76 81 91 94 94 96 96 97 97 98 93 76 66 61 62 56 53 56 54 54 61 69 72 74 79 82 81 81 84 87 93 93
78 66 84 97 96 87 78 96 82 85 81 90 88 86 89 89 94 92 94 95 96 97 96 90 88 83 80 74 80 74 56 58 65 68 71 74 75 78 82 87 86 86 92 91
83 97 92 96 95 94 98 94 81 89 97 98 80 86 84 84 91 93 95 93 92 95 96 94 94 93 83 80 83 80 78 68 71 75 79 78 74 74 74 78 86 77 79 79

GFSCGP_sfc_rhum_087.txt.gz
RH
31 38 41 33 30 28 28 27 29 26 22 21 21 20 18 15 14 14 14 13 13 13 15 18 19 15 17 16 66 74 81 89 90 92 96 97 92 96 100 99 96 94 94 95
35 41 29 25 24 26 27 29 30 24 20 21 22 23 22 21 19 18 17 16 15 12 12 18 19 21 19 41 72 77 80 84 89 88 88 97 97 92 98 98 96 91 95 97
40 31 24 24 26 28 30 33 31 27 23 22 25 26 29 23 20 17 14 15 16 14 16 14 19 23 29 56 72 79 81 80 87 86 87 91 95 98 98 98 97 94 94 97
32 25 25 25 30 28 35 27 26 25 31 50 39 58 36 28 22 16 28 20 16 15 13 18 20 23 51 68 72 76 78 78 82 82 84 86 90 96 96 93 92 98 96 95
36 29 28 30 28 26 31 26 30 33 38 48 40 51 39 29 26 18 63 50 27 22 30 23 20 19 45 58 72 75 80 78 75 79 81 87 94 94 94 96 96 97 97 96
27 22 23 25 22 25 27 37 41 42 45 60 43 57 57 41 33 51 66 64 64 64 67 65 62 65 56 59 67 72 78 76 74 77 81 84 92 91 94 96 98 99 98 98
32 28 23 19 28 31 35 50 75 65 66 62 38 50 62 78 73 64 67 67 71 70 70 72 78 80 79 81 68 74 77 78 75 82 78 82 85 87 92 94 97 98 98 98
25 32 21 23 27 37 42 48 77 77 74 60 37 55 70 85 65 56 60 63 71 74 76 78 80 84 86 78 73 73 79 79 78 81 78 79 84 81 89 90 94 96 94 91
61 45 32 25 29 33 45 50 39 57 53 64 44 34 67 70 73 71 60 63 73 77 80 80 78 80 90 76 74 80 77 75 78 78 80 79 80 83 92 95 94 93 92 93
45 68 40 34 31 32 35 39 74 87 92 82 47 76 97 83 69 71 71 72 78 78 80 78 80 85 89 94 94 95 80 79 77 78 76 79 80 86 90 89 93 97 96 91
31 70 64 46 48 47 45 50 54 64 76 89 89 90 88 86 75 76 74 73 81 80 82 81 82 84 87 90 93 96 94 89 80 83 81 81 80 83 85 89 92 93 95 94
57 74 70 53 37 32 44 52 57 74 72 76 83 92 78 77 75 65 72 72 78 79 81 81 81 82 86 90 90 92 96 93 87 84 85 90 84 86 89 88 87 91 94 95
59 74 88 50 41 51 68 72 77 89 84 96 92 84 79 75 67 68 78 80 80 83 81 82 82 85 87 89 89 90 92 96 93 90 91 93 94 90 90 88 88 89 91 94
57 68 74 82 66 53 88 70 57 86 99 97 91 66 63 69 82 78 80 80 81 83 83 84 87 87 87 88 88 90 92 93 94 92 95 97 97 95 94 92 92 92 91 91
65 79 64 54 44 42 46 70 52 71 85 98 86 76 88 83 83 82 72 74 81 85 84 86 87 88 88 89 89 89 90 92 91 94 96 98 96 94 93 93 92 89 86 83
78 87 82 70 56 53 44 38 40 50 72 78 83 94 82 82 76 75 75 79 88 91 91 88 86 86 89 89 90 88 90 91 89 93 96 93 92 91 93 93 93 92 91 90
69 92 88 69 57 62 70 53 46 55 62 68 87 94 78 92 92 92 88 88 93 94 93 95 96 94 92 94 90 92 90 86 88 91 89 90 89 88 90 89 90 92 92 90
67 79 87 90 75 94 46 42 48 80 85 84 84 86 90 94 95 95 94 94 94 94 97 97 99 99 99 97 91 90 86 89 90 90 90 87 87 88 87 88 90 91 89 90
50 74 91 92 97 72 53 91 95 78 98 68 72 72 86 89 88 96 92 92 98 100 100 99 100 99 100 98 99 92 92 91 91 96 96 90 89 88 87 90 92 92 91 92
71 76 86 90 96 95 99 94 76 83 97 74 74 80 87 81 86 97 92 94 97 99 100 99 100 100 98 99 100 94 97 96 98 98 98 96 94 92 93 94 95 94 92 92
82 84 83 88 94 91 99 85 66 85 98 76 74 81 87 95 94 97 98 99 99 99 98 100 99 99 100 100 99 97 96 97 99 99 100 100 99 99 98 93 91 92 92 91
75 83 90 84 95 96 83 74 86 99 82 75 77 81 87 90 93 96 97 98 99 99 100 98 99 99 99 94 90 95 97 100 99 99 98 98 97 98 100 100 99 98 94 92
98 100 99 96 98 99 89 95 96 85 90 84 81 79 83 91 96 96 97 97 98 99 96 94 93 87 82 83 82 90 98 99 97 96 97 97 97 97 97 96 97 98 98 95
81 69 99 98 95 93 96 95 94 96 92 83 81 86 91 97 96 98 96 97 96 97 96 93 85 82 91 88 88 77 72 74 84 89 92 93 94 94 92 88 90 93 96 96
86 78 95 99 99 93 92 98 99 96 91 94 90 85 91 93 97 94 95 96 97 97 96 92 93 93 94 89 88 84 69 68 74 74 76 79 80 83 86 89 89 88 92 87
90 98 94 98 96 95 99 99 98 94 98 92 86 90 90 90 94 94 96 95 94 95 95 94 94 94 94 90 93 92 83 83 83 90 85 81 80 80 79 80 84 76 78 78

GFSCGP_sfc_rhum_090.txt.gz
RH
36 40 44 35 35 33 35 38 38 30 24 29 26 25 21 19 21 21 21 19 17 14 13 14 17 20 17 17 68 77 88 92 93 97 97 97 98 98 99 99 96 96 95 95
45 45 33 28 29 32 33 36 36 28 24 25 24 24 20 21 21 19 20 22 19 17 15 14 15 24 25 27 58 79 85 92 88 91 85 90 92 98 95 99 98 97 97 97
47 37 29 30 32 34 35 38 39 35 31 29 32 32 30 28 28 25 23 30 57 57 25 15 14 20 26 40 79 81 85 88 85 89 95 97 98 99 99 99 99 98 96 97
39 28 32 34 35 30 37 31 33 35 40 44 41 57 37 33 28 26 26 72 70 70 69 38 46 51 51 48 68 77 83 83 89 90 91 92 86 93 90 88 98 98 97 99
39 33 33 33 33 29 34 32 37 38 47 54 41 57 42 45 83 80 72 72 74 72 70 76 81 81 80 81 74 76 84 88 89 88 90 89 92 94 96 98 97 98 98 99
31 27 29 29 25 26 32 42 46 50 57 67 43 52 60 86 87 71 73 74 78 76 75 75 78 79 81 89 89 82 85 88 88 86 89 89 95 95 96 96 98 98 98 98
36 33 30 26 31 31 34 53 75 78 74 74 41 54 56 80 73 70 72 82 82 81 79 79 78 83 87 93 93 88 87 90 88 87 88 88 90 90 90 94 97 98 96 98
38 42 29 35 35 34 43 50 75 83 74 49 43 63 79 73 66 64 78 77 80 85 78 79 80 82 86 89 90 90 90 93 89 89 88 86 88 88 91 95 96 95 96 96
59 60 37 39 39 35 48 59 42 66 58 76 59 76 73 65 66 74 84 80 80 78 80 78 80 83 86 90 97 95 87 86 88 87 88 88 88 90 94 96 96 97 93 92
43 52 52 42 38 38 42 49 65 86 85 85 62 56 81 75 72 68 80 86 81 78 78 77 80 85 88 91 94 97 97 90 88 87 87 88 86 87 91 96 96 94 96 94
47 67 55 38 50 50 50 60 74 72 82 86 89 85 86 81 77 79 77 80 86 82 81 80 82 84 88 90 92 95 96 98 96 94 91 89 88 87 90 94 96 94 95 95
64 71 80 50 38 34 38 68 87 99 91 84 84 72 74 76 72 75 81 78 82 84 81 80 81 81 87 89 91 94 95 96 99 97 90 89 90 92 94 96 95 96 95 94
54 70 78 40 41 56 64 53 60 81 95 98 96 82 73 78 77 76 80 84 83 83 83 82 82 85 87 89 90 93 96 97 97 98 94 92 94 94 94 94 96 96 97 98
57 69 65 75 63 60 65 47 43 72 98 94 85 92 77 86 90 85 82 86 84 84 85 84 86 86 86 87 89 90 94 94 94 98 96 98 97 96 96 94 94 93 90 91
66 78 72 67 62 58 60 59 48 50 60 95 83 91 94 89 88 84 76 78 82 87 90 93 89 90 89 89 88 88 90 94 93 95 97 98 97 95 94 94 92 90 88 86
76 82 69 54 52 53 60 61 51 45 42 50 61 83 93 95 80 83 83 84 89 90 92 93 94 94 93 93 91 88 91 92 91 93 96 95 95 94 95 94 94 92 92 92
73 84 92 68 60 65 71 70 53 42 53 72 85 94 93 96 94 94 92 88 90 92 94 95 94 94 96 96 95 95 91 88 90 92 92 90 91 93 92 90 91 93 95 93
82 83 88 89 76 97 62 79 66 89 96 96 97 94 93 94 93 90 89 94 95 95 97 97 97 96 96 96 96 93 88 90 90 92 90 89 88 90 89 89 91 93 93 94
56 71 96 97 91 63 53 93 97 96 98 96 97 85 92 86 82 94 89 91 98 100 100 99 98 96 96 97 98 97 95 92 92 97 96 94 95 94 91 92 93 92 93 94
70 66 93 93 96 98 97 84 84 100 97 98 85 83 86 88 97 94 92 94 99 99 99 98 99 95 97 98 99 97 97 96 98 98 98 98 98 97 99 97 95 95 94 93
92 95 92 93 94 89 96 95 97 96 99 83 80 82 83 91 92 96 98 99 99 99 98 99 98 98 100 99 97 97 98 98 98 98 98 97 98 99 100 98 98 96 95 94
91 95 94 92 96 96 86 79 94 100 98 79 80 81 84 91 94 97 97 99 98 98 93 92 94 96 96 94 91 97 97 98 98 97 96 97 97 97 98 99 99 98 97 96
97 99 98 96 98 100 98 99 99 98 94 92 88 88 86 91 97 97 97 97 98 97 90 89 88 85 88 91 92 92 98 97 97 96 97 97 96 96 97 96 98 97 97 97
78 93 98 97 96 94 98 98 96 95 90 86 84 89 91 96 97 97 97 97 96 96 96 87 82 86 92 93 92 77 73 88 92 93 94 95 94 95 94 93 95 94 96 96
86 83 95 97 96 94 93 97 96 91 90 90 90 87 93 93 97 94 96 96 96 96 95 92 91 90 94 92 93 94 98 86 88 90 91 92 90 93 93 93 94 92 96 95
90 96 97 100 90 95 99 95 93 96 91 86 80 88 90 92 96 96 97 95 94 95 94 93 93 91 92 89 92 94 93 90 88 81 79 82 81 80 78 81 90 80 80 78

GFSCGP_sfc_rhum_093.txt.gz
RH
34 37 41 32 36 35 38 44 44 38 30 34 31 29 24 22 25 24 21 21 21 24 34 39 20 16 18 24 24 52 87 91 94 98 97 98 98 98 99 98 96 97 97 98
46 45 33 34 33 35 38 41 40 35 29 34 34 31 26 25 26 25 25 38 75 70 66 65 66 40 20 20 35 52 78 92 92 92 93 94 93 96 96 97 97 95 97 98
51 39 34 35 39 39 40 42 40 40 36 35 35 34 30 29 38 65 72 74 73 76 74 71 71 80 80 59 47 71 77 90 88 89 96 99 98 99 100 99 98 98 97 98
46 33 35 41 40 38 47 34 35 39 43 50 37 54 34 35 80 75 71 78 80 78 74 72 77 79 82 83 82 68 78 86 88 92 94 95 89 92 90 95 93 98 98 98
39 39 42 42 39 35 40 36 37 43 48 57 49 61 40 65 80 76 65 67 81 79 76 78 73 70 79 83 93 79 82 86 88 93 88 90 88 90 98 97 96 98 99 98
35 29 30 31 27 29 31 42 47 54 59 70 41 55 60 94 88 77 65 75 81 80 78 73 70 70 75 86 90 92 91 91 89 90 90 85 89 95 98 98 94 99 99 98
39 34 30 29 35 34 34 44 63 64 75 71 47 58 55 86 75 72 71 85 81 82 81 75 75 80 80 84 90 91 92 90 93 89 93 92 93 92 94 96 97 97 96 96
47 46 41 40 46 46 43 45 65 69 78 53 47 66 58 76 71 72 80 81 78 81 79 76 78 82 83 83 90 96 92 93 92 93 93 94 92 91 93 94 95 92 87 89
53 57 34 40 33 44 49 57 43 55 64 73 62 61 76 75 68 72 82 82 85 82 82 77 78 82 86 86 92 95 96 94 92 94 94 96 94 94 94 96 95 91 89 95
44 42 46 32 39 42 42 51 77 92 92 86 67 65 74 76 70 72 88 89 86 80 77 75 78 83 86 88 91 93 95 94 93 93 95 94 94 94 96 97 98 98 98 97
52 56 52 31 48 50 46 52 73 83 84 92 88 84 82 76 78 85 85 87 90 83 80 78 79 81 86 88 90 93 95 97 96 97 98 97 95 96 96 97 98 98 97 96
57 71 78 50 39 41 46 82 83 97 93 86 96 88 84 88 80 79 82 80 82 81 82 80 78 80 86 89 90 92 93 96 98 98 98 97 96 96 95 98 98 97 98 98
52 68 69 37 45 49 56 51 51 63 85 93 94 83 71 79 80 81 87 86 83 85 85 84 83 86 87 88 90 91 93 95 94 98 99 99 97 95 95 96 97 96 98 98
55 66 60 69 54 65 70 60 56 67 96 92 85 76 72 82 93 89 83 81 84 86 87 88 89 90 90 90 90 90 93 94 93 93 98 99 98 98 98 98 97 96 95 95
67 73 73 68 66 57 57 58 55 64 59 77 60 69 60 96 95 98 78 77 81 86 87 90 89 92 93 95 93 89 90 92 93 92 96 98 98 97 96 96 93 91 90 90
77 80 68 63 48 46 59 57 56 57 54 54 46 50 94 95 95 99 87 82 86 90 94 94 90 93 95 95 95 91 91 92 91 92 95 95 97 94 95 96 95 94 94 94
74 85 85 66 60 67 68 68 89 56 47 58 65 68 96 98 94 94 91 91 93 94 95 95 95 95 96 96 96 94 90 88 91 91 93 91 94 93 93 91 92 95 96 95
83 81 86 90 71 95 62 86 98 88 90 94 94 96 94 92 94 90 89 92 95 97 97 96 96 96 96 96 96 94 88 89 92 94 94 94 93 97 90 91 93 95 95 96
61 78 97 96 97 68 60 94 98 98 99 100 100 96 92 93 78 91 89 92 98 100 99 99 98 97 97 96 96 97 95 88 90 95 97 98 94 97 93 94 95 95 94 96
72 67 82 96 99 97 94 84 77 100 96 96 95 92 91 86 97 94 93 98 99 99 99 98 100 99 96 97 93 91 93 92 96 96 96 97 99 98 98 97 96 95 94 94
90 94 90 93 97 89 95 94 98 98 98 94 86 86 85 89 95 97 98 99 98 96 94 91 91 97 98 93 92 94 94 97 97 96 97 96 97 99 99 97 97 97 96 95
95 94 93 88 96 96 90 85 94 99 97 93 86 91 90 92 94 97 97 98 97 97 92 91 93 93 89 84 87 94 97 97 95 96 95 96 96 97 97 97 97 97 98 97
98 98 98 96 97 99 98 98 98 99 96 92 89 90 85 91 98 97 97 97 97 97 94 85 90 89 90 89 79 91 95 94 92 92 96 96 96 96 97 96 97 97 97 96
82 90 98 97 96 96 98 96 96 92 92 93 91 88 89 97 96 97 96 97 96 96 96 90 86 89 90 93 93 89 86 83 86 89 92 94 95 95 95 93 94 95 96 96
83 84 94 98 96 94 95 97 94 94 93 94 93 93 94 93 97 93 94 96 97 97 96 95 94 93 94 91 92 94 92 84 86 87 90 93 91 94 93 94 95 94 97 96
89 96 97 96 93 93 96 95 96 91 93 94 86 88 91 89 96 96 97 95 94 96 95 94 94 94 93 91 92 93 93 91 82 75 79 85 85 89 89 90 94 94 95 95

GFSCGP_sfc_rhum_096.txt.gz
RH
36 42 43 32 38 38 42 45 48 42 33 36 35 32 30 27 29 29 32 55 83 79 69 66 64 68 73 78 50 27 56 91 94 94 95 96 95 95 97 94 92 91 93 95
47 48 33 31 32 35 38 43 43 38 33 37 38 35 31 30 30 62 84 86 86 81 71 66 66 73 79 83 83 69 37 79 94 85 88 94 94 92 94 94 94 95 94 95
52 40 34 37 42 42 44 45 44 42 39 38 42 44 38 30 64 77 78 82 81 83 79 74 71 74 74 80 85 82 88 64 88 87 88 99 98 99 99 98 99 97 97 96
50 39 40 46 44 43 53 40 39 43 49 55 40 57 37 56 68 80 69 71 86 82 79 75 75 73 72 75 80 82 84 83 87 88 89 91 88 89 88 97 98 99 98 98
48 41 48 50 42 39 47 40 44 46 51 62 55 58 54 71 75 76 69 77 91 85 85 81 73 70 68 70 78 80 83 89 84 90 89 93 92 90 95 90 75 91 98 98
39 34 33 36 33 36 34 42 48 57 62 66 48 53 58 56 78 77 74 81 74 79 74 73 67 67 72 78 81 80 85 93 91 85 90 94 90 96 98 96 96 96 97 98
42 36 32 33 35 38 37 44 57 60 73 63 50 59 52 57 73 78 84 90 86 80 78 75 73 75 76 81 86 87 88 92 93 86 89 93 92 93 93 95 96 95 98 98
48 45 44 42 46 48 46 44 60 66 73 63 47 64 55 68 72 80 86 86 83 84 76 77 79 79 79 82 87 90 91 95 95 94 91 92 95 96 96 94 92 92 95 96
61 57 40 33 32 44 51 56 53 59 66 69 58 54 53 78 79 91 87 84 87 85 81 78 80 83 82 85 89 93 92 92 94 94 94 95 96 97 97 98 97 94 89 89
42 36 47 34 39 36 39 49 79 88 89 76 68 68 72 78 81 90 89 91 88 82 80 79 76 80 82 86 88 91 92 94 95 96 95 96 95 96 97 98 97 93 90 90
49 46 45 34 44 43 40 60 81 84 89 97 95 86 93 97 96 92 86 85 87 86 84 80 82 80 83 86 88 90 93 95 96 98 97 98 98 98 97 97 97 95 93 95
57 69 64 46 43 47 49 83 77 94 94 88 94 88 90 93 90 85 86 82 81 82 81 80 79 80 86 88 88 88 91 96 94 96 98 98 98 97 98 98 98 98 98 98
46 67 53 37 44 41 59 55 63 73 86 93 97 77 77 87 92 90 93 92 85 80 83 83 81 84 87 90 91 90 90 94 93 93 97 99 99 98 98 98 98 98 98 99
54 64 48 43 46 70 68 65 63 78 98 84 62 57 48 74 91 92 94 95 91 83 85 85 87 87 88 88 92 90 91 92 90 90 94 96 97 99 98 97 98 98 96 98
66 68 72 65 68 61 62 51 47 63 61 86 41 51 46 72 87 96 95 93 90 88 92 91 90 90 92 93 92 88 90 91 89 88 92 96 95 95 97 98 97 95 93 93
74 82 68 70 60 55 51 53 58 60 60 62 58 60 61 90 89 92 93 90 91 90 93 92 88 90 95 95 95 88 89 89 89 91 94 91 94 91 95 97 97 96 96 94
70 86 82 67 62 54 46 58 88 88 79 86 74 58 82 93 88 91 91 93 94 91 94 95 95 96 94 95 95 96 92 85 88 92 91 93 93 95 96 98 94 96 97 95
84 78 84 84 68 71 72 84 87 92 90 91 91 84 85 87 93 95 96 93 95 92 95 95 95 93 94 93 91 89 96 92 88 90 94 94 93 96 99 100 95 96 96 96
67 83 95 92 97 65 71 88 97 98 89 97 97 95 95 94 90 95 90 90 96 99 97 98 96 94 94 93 90 87 90 94 91 94 95 97 98 98 100 98 98 97 94 96
72 71 89 92 98 98 94 82 75 95 96 95 96 96 96 96 97 95 93 92 97 97 97 97 96 95 94 94 92 90 92 91 95 96 97 96 94 96 97 98 98 98 96 96
88 94 92 93 97 93 92 86 90 98 98 95 96 96 98 94 96 98 95 96 97 96 96 95 92 95 93 92 92 94 93 96 97 96 96 94 94 95 97 97 97 96 96 96
96 95 95 88 98 96 89 75 90 98 98 96 96 94 92 93 94 96 96 97 96 96 94 94 94 95 89 85 88 93 96 96 93 92 93 94 94 95 95 94 96 97 96 96
97 99 98 95 99 97 96 98 98 98 96 96 94 92 87 91 96 96 96 96 96 96 94 90 93 92 91 92 86 91 96 93 91 92 95 94 93 94 94 94 94 93 96 96
89 93 98 98 97 96 97 95 95 95 95 94 92 89 90 96 96 96 97 97 96 96 94 93 87 88 90 92 93 94 88 86 86 89 91 91 91 92 91 87 88 91 94 95
81 87 94 97 96 94 95 96 96 95 94 90 91 89 92 92 96 94 96 97 97 96 96 92 91 91 93 89 90 92 93 79 76 83 86 88 87 91 91 93 94 92 97 95
84 98 99 98 94 92 97 97 96 93 92 89 84 88 91 90 95 94 96 95 94 95 94 94 93 92 91 89 90 92 92 90 89 79 80 86 88 89 86 85 90 90 92 90

GFSCGP_sfc_rhum_099.txt.gz
RH
32 35 38 30 30 28 34 35 35 31 26 26 28 26 24 23 24 23 27 58 57 55 54 50 52 53 56 59 61 64 67 64 44 78 83 86 89 86 88 84 86 87 90 92
34 40 31 28 29 29 30 33 30 28 27 30 28 29 25 24 24 27 55 55 59 61 55 53 53 56 61 61 62 65 66 66 59 55 68 73 82 87 84 88 91 89 90 92
36 33 31 30 30 32 33 33 38 35 31 30 32 29 27 24 48 62 57 56 65 63 60 58 58 60 60 62 64 63 67 68 69 68 66 77 84 92 96 96 97 92 90 91
42 32 34 33 34 33 40 34 34 36 38 37 31 34 29 32 40 57 54 65 63 59 58 57 61 60 61 62 64 67 69 70 69 72 70 73 78 78 80 84 92 96 96 97
49 41 42 44 37 36 38 35 37 38 41 42 38 37 32 40 49 48 58 64 64 61 60 61 60 60 59 64 67 72 73 73 74 78 73 74 80 76 75 82 93 96 92 93
36 29 34 36 34 34 31 37 41 46 46 49 36 34 30 30 44 52 59 69 67 64 62 60 59 63 66 67 72 75 77 79 76 80 76 80 79 79 86 84 94 89 88 88
35 32 26 28 30 33 32 37 39 45 54 40 39 42 28 30 51 60 74 69 69 67 66 64 63 70 75 73 80 82 82 84 79 88 75 83 83 79 83 82 80 80 79 84
40 45 40 31 37 36 37 34 36 46 49 42 44 46 37 50 68 74 69 70 70 69 66 64 66 71 79 78 82 87 88 87 85 90 85 87 91 91 85 82 76 75 76 84
51 54 41 31 30 38 44 44 44 47 52 47 35 38 46 63 83 74 74 72 76 71 70 69 67 70 81 83 86 90 89 86 87 92 90 91 93 93 93 85 84 86 89 92
38 41 44 32 34 25 41 45 69 71 58 45 43 48 52 81 88 76 75 79 75 69 67 66 66 72 79 86 86 88 88 90 90 95 93 93 91 90 92 92 95 91 92 96
47 38 39 33 36 34 24 37 72 66 71 69 57 60 77 80 81 78 78 76 74 70 68 67 69 71 79 82 87 87 88 91 93 93 96 96 94 95 95 94 90 92 94 96
52 50 38 43 42 40 50 69 68 60 69 78 81 68 71 78 76 74 76 72 72 69 69 68 71 74 82 84 87 87 89 92 93 91 94 98 96 94 93 94 90 93 94 92
44 46 34 40 46 40 48 49 50 52 64 68 76 57 76 79 76 79 85 81 74 74 74 71 73 78 84 86 88 89 88 90 91 90 92 93 96 96 95 95 91 91 95 94
50 51 34 30 47 51 53 54 51 60 82 62 52 36 28 30 50 69 81 80 75 75 80 75 76 82 84 84 86 88 88 90 90 88 90 94 95 96 96 91 91 93 93 93
57 55 55 48 57 56 54 48 44 44 41 56 23 34 34 34 44 82 80 74 73 76 79 80 83 84 84 84 86 86 87 92 89 91 91 94 91 91 92 92 96 95 96 94
61 74 60 59 51 52 51 42 40 38 42 49 53 62 48 48 79 88 88 87 87 80 82 82 80 79 86 86 86 91 91 86 85 95 95 91 92 91 94 94 96 96 96 95
58 70 60 46 50 44 43 44 41 59 64 69 84 66 58 89 86 87 87 87 89 87 84 85 85 85 88 91 88 90 96 95 83 88 89 90 92 94 93 93 93 98 98 95
68 64 65 56 58 47 76 72 78 82 75 83 81 85 72 76 90 89 93 93 93 88 89 87 88 87 88 86 86 80 86 94 93 85 91 92 90 95 96 96 100 100 100 96
55 63 75 73 69 50 80 86 92 93 86 93 92 94 94 92 86 94 95 95 94 94 89 94 91 89 91 90 87 84 82 84 86 96 94 95 92 94 96 99 100 100 98 96
60 60 71 83 87 79 88 72 67 89 90 86 89 90 90 94 92 91 93 93 93 92 92 90 94 94 90 95 90 86 89 88 93 95 96 96 95 95 96 97 97 99 98 97
79 80 82 81 85 80 91 82 79 93 93 89 94 95 99 93 94 96 95 94 93 89 89 87 84 92 96 92 92 94 92 95 95 94 93 93 95 96 97 97 97 97 97 97
85 82 81 75 89 91 80 69 82 95 96 94 95 95 95 93 93 94 94 95 94 92 83 80 85 86 82 82 79 90 95 96 93 92 92 94 93 94 95 95 96 98 98 97
92 94 92 92 91 94 91 92 96 96 94 96 94 95 92 92 94 94 95 94 94 92 81 74 76 73 75 77 78 84 90 85 86 89 93 93 92 93 92 93 93 90 92 92
82 87 92 94 93 92 95 95 93 93 92 93 91 90 92 94 93 94 93 94 93 92 86 75 70 71 79 78 80 81 71 62 70 76 79 83 86 88 87 78 81 84 87 89
74 76 88 93 94 93 94 95 93 94 92 92 93 90 89 87 92 84 87 90 92 92 90 80 80 79 84 75 75 77 78 68 60 66 73 75 75 79 79 89 90 86 94 87
71 89 89 88 87 86 96 96 94 93 94 92 83 83 79 80 88 86 89 87 86 89 89 87 86 85 84 77 80 79 74 69 71 68 63 75 73 72 70 70 78 87 93 88

GFSCGP_sfc_rhum_102.txt.gz
RH
31 36 30 24 23 21 22 20 20 18 16 21 18 14 12 14 15 17 15 21 28 33 32 31 35 37 40 42 44 45 49 51 50 46 35 45 53 66 62 55 60 66 73 83
34 42 28 21 21 23 24 24 22 18 15 16 17 18 16 16 15 15 17 30 35 36 34 36 37 40 44 45 47 49 49 50 50 48 44 38 45 48 56 57 66 67 74 82
48 37 25 22 27 30 26 24 22 18 19 21 23 22 17 16 17 26 29 35 39 40 41 39 41 44 46 48 51 51 52 53 56 57 51 47 48 50 65 71 77 73 76 82
58 40 40 32 29 24 27 18 19 22 28 25 21 19 18 16 23 30 35 40 40 42 41 40 42 44 48 50 53 56 58 57 56 61 58 56 47 49 52 58 77 84 84 88
55 42 50 55 30 22 25 22 28 26 28 28 24 25 14 16 22 30 36 44 45 45 44 43 43 43 44 52 56 62 65 64 65 68 72 67 57 52 46 55 78 89 90 90
64 51 58 55 49 40 27 32 30 30 29 38 24 22 15 19 20 27 40 48 50 47 44 42 42 43 45 50 58 66 71 72 71 73 75 78 73 57 50 55 81 91 95 92
58 52 29 30 35 35 38 36 47 48 45 35 19 21 16 20 30 35 49 52 51 49 47 44 44 45 50 57 63 70 76 78 75 78 80 78 74 64 65 59 76 92 92 93
48 52 28 24 27 30 39 32 45 50 35 25 28 28 37 48 50 52 52 53 52 49 47 45 46 49 53 61 65 76 83 83 81 84 85 84 68 63 65 71 79 80 83 76
39 41 30 26 26 28 30 36 23 34 32 34 23 28 51 63 62 58 54 53 53 49 48 48 47 53 58 64 71 84 84 82 82 88 90 88 73 68 81 82 85 81 69 61
37 46 33 26 25 23 33 26 51 46 48 39 21 23 31 61 57 46 48 53 53 49 48 49 49 56 60 67 71 85 84 85 85 88 91 90 83 80 79 84 84 82 70 70
37 35 37 28 31 27 28 38 49 46 45 46 39 39 56 54 49 48 46 52 56 54 53 52 52 56 60 63 70 84 84 87 89 89 91 94 91 86 85 88 88 91 88 82
36 33 31 32 36 28 25 36 35 47 41 44 58 42 50 52 51 49 46 54 56 55 54 52 52 56 61 63 69 79 86 89 89 87 89 94 94 96 96 95 94 91 93 89
33 34 43 35 36 34 35 41 39 43 43 48 51 37 56 58 43 45 55 53 55 58 56 54 54 58 60 64 70 80 87 92 91 87 90 91 92 95 96 97 95 92 82 80
35 30 26 26 38 38 47 41 35 46 66 42 33 23 38 29 19 25 46 58 55 58 60 60 58 59 60 63 68 81 92 96 96 93 88 92 94 95 95 95 96 94 86 85
39 33 33 35 35 34 35 34 31 32 27 42 19 20 19 30 42 44 57 58 62 70 71 64 63 64 61 65 70 71 84 87 84 94 96 93 92 93 92 93 94 96 95 94
44 54 42 35 32 34 35 26 26 27 25 24 22 30 38 46 56 72 70 69 70 71 75 66 64 66 68 71 73 74 79 95 86 87 91 90 94 89 91 92 93 94 94 95
40 58 46 26 33 32 31 32 26 24 25 41 54 52 50 59 83 74 74 75 77 76 80 78 74 74 74 80 78 80 92 86 91 85 86 93 95 94 95 94 93 98 97 96
44 44 43 39 40 55 63 56 64 69 60 71 66 61 69 85 91 87 83 86 84 85 91 83 84 81 80 79 78 74 75 83 87 87 89 89 93 92 94 95 100 100 100 100
34 45 64 71 56 43 74 76 92 94 77 89 83 72 75 81 78 89 85 89 95 96 95 99 91 85 87 86 78 76 77 76 78 94 96 97 96 95 93 95 98 100 98 97
46 44 63 62 69 65 97 61 54 82 87 77 84 80 86 94 92 83 90 93 97 98 96 94 100 99 88 94 84 81 87 86 95 96 97 97 100 98 96 99 98 98 97 97
70 69 68 63 70 88 80 62 66 95 95 79 86 90 94 88 90 97 97 96 99 95 93 93 88 90 94 98 95 93 92 94 95 96 95 95 96 100 100 100 100 100 99 97
72 73 70 60 78 84 64 60 91 96 91 89 94 95 94 92 92 94 94 94 95 96 88 81 79 77 71 66 71 90 93 97 96 95 94 96 97 99 100 100 100 100 100 98
92 95 90 87 90 88 77 89 86 92 92 96 94 94 92 92 94 93 94 94 95 94 68 57 62 63 65 65 67 75 72 81 88 91 93 95 96 97 96 96 97 93 98 98
71 72 84 89 86 82 86 79 80 91 91 93 91 89 89 93 93 94 94 94 92 88 76 62 58 62 68 64 66 66 60 47 55 65 70 75 81 85 86 75 77 85 89 89
58 61 72 92 89 81 82 85 86 91 86 90 92 87 88 89 93 83 82 86 87 88 83 70 71 70 70 59 59 58 57 55 52 51 62 65 64 70 73 83 88 84 90 88
59 88 79 85 72 83 92 91 87 90 88 85 74 74 72 75 82 81 83 78 78 83 82 80 80 78 72 63 66 65 56 52 53 51 51 61 63 66 62 62 73 82 83 82

GFSCGP_sfc_rhum_108.txt.gz
RH
29 37 42 30 27 29 30 31 34 28 23 28 30 28 17 14 15 15 14 13 13 14 24 28 34 39 40 47 48 50 55 59 58 58 58 57 58 58 56 51 59 68 74 78
30 32 24 22 24 30 34 41 44 39 29 29 35 44 42 15 14 13 13 12 14 16 24 30 33 39 46 47 52 52 52 56 57 56 61 62 64 62 61 59 60 61 64 76
36 28 21 24 32 36 34 38 45 47 37 34 39 53 43 23 14 12 12 11 14 24 29 31 32 41 47 50 54 51 54 56 59 61 58 60 62 61 62 60 57 54 61 69
35 26 27 26 33 32 46 34 39 46 56 80 44 81 46 25 19 13 12 16 27 31 30 31 35 39 44 50 54 54 56 57 55 62 66 71 72 73 69 67 60 53 65 67
42 34 37 38 31 27 42 55 60 72 75 64 59 63 43 24 28 22 23 28 36 37 36 36 37 38 39 48 55 59 61 59 61 63 69 74 77 74 72 71 69 66 59 66
48 50 54 48 40 37 56 70 66 67 70 94 58 52 60 41 26 19 26 40 39 38 39 35 36 39 43 49 57 62 64 64 63 65 70 76 80 80 80 78 78 72 65 68
48 55 46 45 50 38 54 91 91 91 92 68 36 52 59 36 48 25 55 46 41 41 41 39 41 44 48 54 59 62 64 67 65 68 73 76 80 81 84 83 83 81 80 78
56 62 45 45 48 49 52 77 73 90 83 56 41 89 72 69 54 60 66 56 41 41 42 42 42 48 49 54 59 64 67 70 69 74 77 78 81 86 85 86 83 82 80 75
50 48 35 38 40 42 75 90 57 68 72 93 74 55 56 68 60 64 70 56 40 39 41 44 42 48 51 56 62 67 71 70 72 76 81 84 85 88 91 89 88 87 81 75
60 57 45 38 34 35 49 45 96 94 88 86 45 56 84 68 63 51 53 44 39 37 39 41 43 49 53 58 59 66 71 75 76 78 79 82 86 86 90 91 92 91 81 76
58 44 53 43 38 31 36 42 79 96 56 78 61 96 94 92 81 55 42 38 40 41 42 43 46 49 54 56 60 68 72 78 82 82 79 84 86 86 87 90 91 92 95 74
45 44 56 43 25 24 28 36 70 98 94 88 82 78 83 87 62 36 32 35 38 42 45 45 48 50 55 59 59 66 74 78 83 81 81 83 86 86 88 89 90 93 93 92
42 53 55 62 42 27 31 34 31 42 45 49 60 52 81 54 33 35 40 39 44 47 48 50 51 54 57 61 65 69 76 79 81 81 84 84 86 89 90 90 89 90 91 93
43 42 48 64 60 36 39 28 24 35 66 50 40 46 56 37 36 47 46 45 49 52 54 56 57 58 61 63 67 69 78 80 84 85 87 88 89 88 90 90 90 90 90 91
42 54 40 32 24 23 28 24 23 26 27 46 30 22 47 53 59 57 51 50 53 57 57 61 63 64 66 68 70 68 74 79 81 86 91 92 88 86 88 90 91 91 92 91
46 62 48 43 26 23 24 17 18 21 21 19 17 22 53 60 62 68 64 63 63 62 63 64 65 67 73 75 74 73 76 81 83 87 89 88 89 89 90 91 92 92 94 96
49 58 46 42 29 24 29 27 19 21 17 26 32 54 48 72 78 81 75 70 71 71 70 71 74 76 79 89 84 83 80 80 92 94 88 91 96 97 97 97 92 93 94 93
47 46 42 39 35 37 49 43 42 49 62 56 52 52 62 73 76 77 73 75 75 75 80 79 84 85 90 96 91 84 75 80 92 92 91 96 97 98 98 97 96 97 96 95
28 40 45 51 42 48 44 53 82 79 87 71 65 57 68 72 73 87 73 76 87 91 94 97 94 95 99 97 96 95 82 82 82 92 94 98 98 98 98 98 98 98 95 94
25 31 60 55 59 55 83 46 42 63 84 66 71 72 66 77 91 93 87 86 92 95 96 94 100 100 97 100 99 90 86 85 93 93 94 97 98 95 97 98 99 99 99 97
52 55 59 56 54 88 69 46 50 87 91 79 76 84 85 89 92 93 82 90 94 92 95 99 97 98 99 98 99 98 89 94 91 87 87 87 89 89 92 92 97 98 99 95
53 56 59 53 60 77 59 54 77 89 78 80 79 86 92 91 85 85 88 94 94 97 95 94 94 92 74 58 61 76 90 99 100 92 87 88 85 87 87 89 90 91 90 93
88 95 90 90 92 79 71 85 79 79 81 84 80 80 78 84 86 88 93 95 97 97 94 78 59 55 52 52 51 58 59 63 70 79 83 85 86 84 83 86 89 89 89 91
58 58 83 82 78 76 75 72 68 72 75 75 75 77 81 93 93 95 96 97 96 91 68 55 51 52 57 56 55 55 50 44 50 60 63 68 74 86 82 75 78 83 88 89
48 51 71 90 82 77 69 72 74 75 72 73 72 74 80 84 94 85 85 88 90 89 80 64 66 65 65 57 60 56 56 52 53 57 62 65 65 66 82 88 84 81 84 80
53 92 76 86 69 79 83 73 71 77 78 73 66 70 69 72 80 78 85 79 78 82 79 79 78 76 72 67 70 75 64 61 63 66 65 70 70 70 68 69 86 78 76 73

GFSCGP_sfc_rhum_111.txt.gz
RH
47 60 65 54 49 43 41 42 40 34 32 40 44 43 46 37 36 34 20 19 19 34 41 45 48 49 54 57 58 61 67 71 69 73 74 71 74 71 68 64 63 66 86 89
54 58 42 37 38 37 34 39 45 38 32 39 44 51 41 36 38 35 30 18 20 39 42 46 50 54 60 64 64 65 66 69 68 70 72 78 78 79 73 69 66 64 65 79
53 43 32 32 34 32 32 44 44 43 36 42 50 53 45 35 32 31 26 16 18 39 42 47 48 58 63 67 70 68 68 66 67 69 70 72 73 73 78 75 74 70 68 69
47 35 38 39 38 35 45 38 59 64 75 88 65 85 53 43 38 33 34 24 41 46 43 45 48 56 62 69 68 69 68 68 62 70 76 81 84 86 80 78 74 74 71 74
51 45 45 63 51 50 57 64 69 73 81 76 69 86 56 42 39 34 42 39 48 47 45 48 52 54 58 66 74 72 68 68 68 71 76 80 83 80 77 78 79 78 77 76
48 56 62 65 51 52 60 71 66 74 83 96 61 65 61 48 48 57 53 47 46 45 47 48 48 51 61 68 76 74 70 68 68 71 73 80 82 79 81 80 82 80 81 84
60 61 59 53 66 55 78 81 95 93 96 86 39 64 66 48 54 63 68 71 50 48 52 53 54 57 61 71 74 65 71 73 70 72 71 76 82 79 83 83 84 85 88 89
73 75 50 53 61 62 75 76 89 94 94 87 64 92 76 77 87 85 78 75 60 49 48 54 56 61 64 65 71 75 75 77 77 76 77 74 79 82 82 84 83 85 87 86
70 56 44 41 46 54 75 91 61 86 78 92 75 69 69 83 91 89 75 69 59 48 50 53 58 61 63 64 71 75 76 80 80 80 82 79 80 84 87 86 86 87 88 86
62 82 46 44 48 50 62 58 95 96 93 90 60 77 97 97 98 94 78 56 55 58 52 54 58 61 63 65 70 76 76 77 80 81 81 81 83 84 86 88 89 88 88 90
62 67 60 50 62 62 60 70 80 88 96 96 86 98 99 100 98 93 80 58 53 53 56 57 60 62 65 66 68 74 78 80 83 82 82 84 85 85 85 88 88 89 90 89
64 68 71 56 45 42 39 54 63 98 94 98 98 98 91 84 87 78 52 53 55 56 58 59 61 63 68 70 70 71 77 81 82 81 82 85 84 84 86 88 87 88 89 88
78 98 83 62 60 53 48 43 64 70 84 82 83 92 77 82 59 51 58 57 56 58 62 65 66 69 72 71 71 73 78 82 82 80 84 86 86 86 87 87 87 86 88 87
57 59 62 70 77 69 57 39 39 58 86 72 57 82 82 61 63 61 62 60 60 62 65 67 70 71 72 71 74 75 82 83 84 84 86 89 90 89 87 86 86 86 86 88
60 72 56 43 50 35 31 31 31 39 43 62 45 74 83 78 77 71 64 61 63 68 67 68 69 73 75 75 79 76 81 83 83 86 90 92 90 88 86 86 86 86 87 86
59 84 61 64 40 29 33 25 24 26 26 30 55 88 73 73 72 78 72 71 73 71 71 70 72 73 79 81 86 85 88 85 84 89 96 94 90 89 91 86 86 86 88 87
65 76 70 81 48 42 43 52 41 48 62 56 77 78 72 79 82 89 82 79 81 79 75 78 84 87 88 95 95 95 97 92 90 94 94 96 92 97 97 90 87 90 94 89
67 65 72 72 46 59 63 50 55 75 76 67 63 72 76 86 87 86 83 85 85 83 87 87 94 94 96 97 96 96 96 94 93 92 93 96 91 92 96 94 97 97 94 96
43 64 70 78 73 63 56 65 83 86 90 79 80 81 85 85 85 94 84 84 93 98 95 100 97 98 99 98 99 99 96 90 85 92 94 96 95 94 93 95 97 98 93 95
35 50 80 78 85 84 89 59 60 74 96 80 83 84 90 86 96 97 89 88 97 98 98 98 99 98 97 99 99 98 97 97 96 90 85 86 86 89 92 94 97 97 97 97
63 73 76 85 88 90 78 55 59 90 90 81 82 93 91 96 98 98 94 98 99 97 98 97 97 98 98 97 94 95 96 95 95 91 87 84 83 84 86 88 90 91 90 89
72 80 86 80 89 97 74 69 85 94 88 86 91 92 96 95 95 96 97 98 98 98 97 96 96 96 80 60 63 76 85 89 86 91 92 89 86 86 85 86 85 88 90 89
88 91 96 95 99 86 76 90 88 82 91 88 91 91 89 93 95 96 97 97 98 98 97 81 66 61 62 61 62 71 67 72 72 76 81 92 89 88 86 87 87 82 85 89
79 76 94 94 84 82 82 77 80 81 85 81 79 83 85 94 96 97 97 97 97 95 78 65 63 66 71 71 75 72 66 58 63 70 74 74 78 91 86 82 81 84 85 86
73 73 87 96 86 80 80 79 80 80 77 82 86 87 91 92 95 92 94 96 96 93 88 80 81 81 82 76 81 81 82 70 70 74 73 76 76 79 88 93 94 91 86 79
80 87 94 95 84 86 92 84 74 81 79 81 82 88 86 88 93 91 94 91 89 92 91 92 91 89 86 81 84 86 83 82 76 80 80 80 82 84 82 82 95 86 75 68

GFSCGP_sfc_rhum_114.txt.gz
RH
54 65 70 56 60 54 54 56 56 47 36 42 41 40 40 36 37 35 33 32 32 53 55 58 59 60 62 65 67 67 70 73 71 76 78 77 80 77 78 73 72 75 83 82
68 72 54 48 52 56 57 60 55 38 35 40 44 48 41 37 35 32 32 32 49 53 54 60 65 67 70 71 70 70 70 71 72 74 80 87 80 88 77 79 75 75 78 82
67 53 43 47 50 51 50 51 45 44 58 51 54 61 44 35 37 33 31 31 43 57 58 62 68 75 74 75 74 73 72 72 72 76 75 77 79 81 83 79 79 77 75 78
58 44 45 46 47 45 56 58 61 66 73 77 67 81 47 40 39 38 35 57 65 64 57 61 68 75 75 77 73 72 68 70 69 74 79 85 88 89 81 82 79 78 77 80
60 54 52 52 47 52 64 66 69 75 88 92 70 95 48 38 42 41 66 78 81 77 71 64 67 72 72 73 76 70 71 70 70 74 78 84 86 84 81 78 78 77 78 80
55 58 52 53 54 54 66 70 71 82 92 99 63 74 73 56 60 64 73 75 76 71 64 61 62 66 72 72 71 70 72 74 72 74 79 76 78 81 83 80 82 81 80 80
63 64 63 58 71 64 73 78 90 90 86 88 59 70 67 93 93 80 83 86 79 67 69 66 68 71 73 74 71 68 76 77 78 80 81 75 75 78 83 82 84 84 87 88
82 76 69 59 62 70 80 75 91 92 94 92 61 92 98 94 92 92 82 83 85 76 70 67 68 68 69 72 73 75 76 81 78 80 80 76 76 81 81 82 83 84 86 85
75 67 49 56 57 55 78 90 66 87 90 97 75 81 76 94 99 98 98 95 95 87 74 74 73 70 68 72 78 78 79 80 81 84 84 81 81 84 86 84 84 84 84 79
62 69 53 50 52 56 64 65 94 97 96 96 74 92 94 100 100 100 100 100 100 91 82 76 73 70 70 71 73 77 78 82 80 82 81 80 81 83 84 85 87 86 86 87
67 70 69 57 64 71 75 74 84 84 95 98 96 97 98 100 94 96 98 95 79 67 66 69 73 72 72 70 73 78 80 84 83 80 81 81 81 81 83 85 85 86 87 86
84 79 92 61 55 51 53 62 75 96 91 98 95 96 94 86 82 73 73 73 72 72 69 69 70 71 72 72 72 76 84 86 86 81 80 81 79 79 82 84 84 85 86 84
88 100 97 89 64 57 62 53 56 68 91 93 92 91 89 84 71 58 66 65 65 66 70 72 70 74 72 75 76 80 86 87 85 82 80 84 83 82 82 82 83 82 83 83
86 99 98 85 72 64 62 48 59 76 97 82 73 88 82 89 73 67 68 70 69 69 69 69 73 69 74 77 79 82 88 86 86 83 85 89 84 85 82 83 82 83 82 83
85 93 78 57 58 55 51 34 38 56 58 71 60 85 92 82 81 77 70 67 71 74 71 70 74 73 78 78 83 82 84 85 83 86 89 92 90 86 86 89 90 84 83 82
74 97 95 91 55 40 35 28 31 29 45 77 78 94 76 75 73 77 73 73 76 73 74 75 75 74 77 78 81 80 82 86 83 84 90 86 86 86 91 92 91 89 86 86
85 96 96 94 74 69 67 48 53 65 66 68 83 77 77 85 83 81 84 79 80 81 80 84 86 86 89 94 95 92 85 85 87 88 88 88 91 93 94 94 91 95 96 90
78 89 88 87 79 95 70 64 61 76 79 75 82 80 77 85 86 88 84 84 86 83 88 88 92 94 97 99 97 93 90 90 84 87 89 88 88 93 95 94 95 95 97 97
60 86 96 85 75 72 63 67 83 82 93 84 85 87 90 90 82 95 83 86 95 95 96 98 97 97 96 92 96 96 94 94 86 87 86 87 83 87 89 93 94 92 92 94
59 60 82 85 75 90 86 65 63 67 92 86 86 86 90 87 96 95 92 92 97 98 96 95 99 97 94 96 95 96 98 90 94 90 87 85 85 86 88 87 92 92 89 90
61 75 66 80 86 92 79 63 66 77 84 88 93 96 93 95 97 97 97 98 98 94 96 95 94 96 97 95 92 87 84 88 90 93 88 86 87 86 88 86 85 89 90 88
65 73 83 82 94 93 77 71 80 92 92 95 96 95 98 96 96 97 97 97 98 98 94 92 94 92 80 72 74 85 87 87 84 86 89 92 90 89 87 89 87 87 88 88
84 83 92 94 94 94 87 95 92 88 92 92 94 94 92 95 96 96 98 99 98 97 96 73 70 72 74 78 84 86 80 75 78 82 87 89 94 92 89 90 90 87 87 89
87 78 97 92 92 89 92 87 82 82 91 88 85 86 88 96 97 98 98 98 97 92 84 73 71 77 84 81 80 83 83 68 72 74 78 80 84 90 91 87 84 79 81 88
82 76 92 96 93 85 88 85 85 84 84 87 85 86 91 93 96 93 96 97 97 97 93 84 81 84 87 80 82 84 82 76 75 79 77 82 82 87 89 94 96 78 79 80
85 91 93 93 83 85 92 87 80 87 87 90 90 91 87 88 94 93 97 92 92 95 92 90 88 84 84 80 82 83 82 82 74 76 83 83 82 82 80 81 84 79 65 63

GFSCGP_sfc_rhum_117.txt.gz
RH
54 64 71 57 63 58 62 66 69 59 46 49 46 42 36 37 41 39 34 35 44 75 70 69 70 74 75 74 72 74 76 78 77 82 90 94 89 88 80 82 77 78 86 86
71 79 56 54 56 61 62 68 69 57 47 46 50 48 40 41 41 37 36 41 69 71 73 72 75 78 78 79 76 75 77 78 79 80 88 88 91 92 84 82 78 80 79 85
78 61 53 57 62 63 63 68 65 61 63 58 61 61 44 34 36 34 35 37 60 71 75 76 72 75 77 78 76 74 76 76 78 79 80 84 83 84 85 81 82 79 78 81
66 50 51 55 60 59 73 51 58 67 71 86 70 80 45 44 54 62 75 84 78 75 72 72 77 78 78 73 70 71 72 75 72 74 82 93 97 91 89 86 81 78 78 82
65 58 62 63 54 50 58 64 65 75 87 91 86 90 74 66 81 91 85 84 89 86 82 78 83 77 72 76 74 76 73 75 78 80 81 82 82 79 77 77 80 80 78 78
59 60 52 54 53 55 66 67 71 88 90 99 69 70 82 92 95 87 81 78 78 81 76 75 78 79 80 72 69 76 75 75 75 77 79 82 79 81 82 81 84 81 80 82
66 63 62 58 69 73 74 72 96 94 96 90 63 78 94 94 93 93 94 95 95 92 93 89 75 75 79 79 76 71 78 81 80 82 81 76 78 79 82 84 84 86 86 86
81 73 76 64 59 77 80 76 89 92 93 90 70 85 96 95 88 89 92 95 96 98 97 96 93 77 72 73 76 78 77 82 83 83 80 77 78 81 81 81 82 84 84 84
80 73 56 62 61 59 80 88 70 87 91 98 81 95 97 95 94 92 96 94 98 98 99 100 99 90 77 74 76 79 80 81 81 82 83 81 81 84 85 82 82 82 82 79
63 72 56 57 57 62 66 64 89 94 91 91 79 88 96 99 100 100 100 100 100 97 98 94 97 93 86 80 78 78 81 85 81 81 82 82 82 82 82 84 85 84 83 84
63 69 70 64 71 79 75 84 84 83 92 93 96 91 91 99 96 97 98 98 97 96 92 89 89 83 80 82 84 85 86 83 81 82 81 84 85 82 78 83 84 85 85 84
77 86 88 69 60 57 60 66 86 93 96 92 96 92 77 89 86 85 78 83 86 86 89 88 85 78 74 76 79 84 86 83 82 81 82 84 82 82 82 81 82 83 83 82
87 93 99 91 85 74 91 65 66 79 86 94 96 85 85 80 83 72 72 70 71 69 70 70 70 72 77 78 83 83 81 82 83 80 83 86 86 83 84 80 79 82 82 82
82 93 86 78 83 80 93 73 63 75 98 90 88 86 93 92 74 74 75 75 76 74 70 70 73 74 74 77 79 80 84 81 84 85 87 89 88 88 87 84 83 82 80 81
85 95 96 91 84 91 93 79 71 68 73 82 67 89 83 86 76 76 74 73 72 72 72 74 76 80 79 80 80 80 81 86 84 87 89 91 88 83 84 84 85 85 85 81
86 93 95 92 72 62 75 46 30 50 57 65 74 91 76 74 75 85 80 76 74 74 74 76 75 80 84 86 89 88 91 93 90 89 91 85 86 84 88 90 89 88 87 85
90 96 97 90 89 96 97 65 36 67 70 78 88 80 80 88 87 87 85 77 86 77 79 76 80 85 88 94 95 96 96 80 79 82 81 81 86 88 90 88 87 90 92 90
94 96 98 95 95 96 82 68 65 75 80 84 86 86 80 88 89 93 89 88 90 90 85 78 88 80 87 88 97 95 96 91 82 83 86 82 82 85 85 89 92 92 91 93
77 92 97 96 92 80 75 76 83 78 87 87 90 89 88 90 88 94 83 90 96 97 99 99 94 94 97 97 96 98 97 97 82 87 89 89 85 89 87 90 92 92 92 92
74 78 90 94 94 95 80 66 62 64 79 85 91 91 91 88 98 97 90 96 99 99 97 97 98 98 95 97 95 96 95 90 95 91 90 88 87 89 92 92 93 92 92 92
95 96 92 86 86 87 80 66 64 72 75 89 90 91 91 96 97 95 96 99 96 95 98 96 96 97 98 94 91 93 91 95 91 90 88 88 89 87 91 91 90 91 92 89
77 88 91 76 90 86 75 68 78 89 97 93 96 96 94 96 96 96 97 98 97 96 96 95 95 96 87 86 83 90 93 93 90 87 89 93 92 91 90 89 86 88 89 88
83 82 86 84 87 94 91 96 94 88 94 97 97 95 89 93 95 95 97 97 98 97 92 79 81 82 83 82 83 90 86 78 80 84 91 93 94 93 94 89 86 89 88 90
87 77 94 90 94 96 98 92 87 88 93 94 92 92 88 95 94 97 96 97 97 95 91 78 80 84 85 80 78 80 80 75 76 79 81 83 88 89 91 81 74 81 88 88
81 76 91 96 94 91 90 93 91 93 88 88 87 86 90 92 96 93 95 97 98 98 94 82 83 83 84 78 80 83 80 76 70 77 78 80 79 82 86 89 77 74 80 74
83 93 93 90 82 85 90 92 87 91 90 87 90 90 87 88 94 93 97 95 92 94 88 89 87 85 81 79 82 84 82 74 73 75 73 81 81 84 81 82 79 70 65 65

GFSCGP_sfc_rhum_120.txt.gz
RH
61 76 81 68 65 60 61 65 70 65 50 59 57 50 44 39 43 45 42 43 56 86 80 76 75 76 77 76 76 78 78 80 80 89 92 90 87 90 89 81 82 84 88 89
76 86 64 58 63 64 67 79 77 65 53 52 54 56 48 47 48 66 84 72 85 85 79 74 75 75 75 76 72 73 75 77 78 80 85 90 90 90 89 84 85 82 84 89
85 64 58 59 67 68 72 75 75 72 62 62 67 68 57 55 73 79 85 82 81 84 82 75 73 78 79 78 75 70 72 75 74 76 77 81 87 86 86 86 84 81 80 86
75 61 59 72 69 69 88 63 64 67 77 85 69 86 78 82 81 77 88 85 86 83 76 75 77 76 78 78 77 77 74 74 69 76 78 84 90 86 80 82 84 82 81 83
62 64 65 69 57 60 69 60 66 73 86 90 87 90 81 84 84 84 89 89 93 94 91 94 92 81 77 78 83 79 81 84 74 76 77 82 86 83 80 80 81 80 81 79
62 63 57 59 59 56 65 70 73 90 89 95 78 77 83 91 94 94 93 94 94 95 94 92 86 87 83 78 81 82 77 76 80 79 76 81 82 80 82 82 83 81 80 78
71 64 63 58 72 75 76 76 96 96 95 91 69 82 90 92 94 92 94 96 96 95 96 95 93 88 86 86 86 86 86 84 78 78 76 77 79 81 82 82 84 84 84 84
85 70 73 66 59 77 83 74 82 95 93 84 74 92 83 84 81 83 84 87 92 95 96 96 96 96 94 86 81 80 84 86 86 80 80 78 77 80 80 81 81 82 82 82
81 78 71 70 66 62 84 83 78 93 93 96 84 88 92 86 90 92 94 93 96 96 96 93 94 92 92 93 86 89 84 81 79 81 81 80 77 82 83 80 79 81 80 76
62 74 59 65 60 67 70 66 93 98 94 90 79 84 93 99 99 95 99 100 100 96 94 87 87 88 87 88 90 87 84 85 81 81 81 80 81 81 82 82 84 82 81 81
65 67 71 71 76 82 82 84 81 84 88 91 93 91 86 89 89 94 95 97 94 90 87 86 87 87 87 87 87 89 86 86 87 83 82 83 82 81 80 82 82 84 83 82
69 77 79 69 65 65 68 73 79 95 93 93 96 91 82 83 86 85 89 82 83 82 87 84 79 77 77 84 86 84 85 85 85 80 83 85 84 82 82 83 82 82 81 80
86 94 96 90 79 79 79 75 67 72 86 92 95 79 77 78 81 80 83 76 72 77 79 78 76 76 75 80 80 83 88 88 84 82 84 83 86 85 85 83 79 79 82 80
81 91 78 74 69 81 97 88 80 81 98 88 78 94 90 91 85 78 77 82 85 81 72 76 71 78 78 78 80 82 88 88 87 86 86 89 89 88 88 84 85 85 83 83
91 86 97 86 83 84 86 84 83 94 90 96 85 76 83 83 79 82 80 79 75 76 78 76 73 80 82 77 88 84 88 90 87 86 86 90 88 84 86 86 85 84 84 84
91 94 94 91 82 84 92 87 89 92 98 99 87 87 81 72 77 83 83 80 80 80 76 73 75 78 83 84 87 88 88 81 80 84 82 80 80 80 85 86 87 85 84 85
94 95 97 92 85 91 94 82 71 64 71 77 86 77 81 86 84 88 87 77 79 76 77 79 85 87 89 94 95 93 94 91 82 84 83 80 83 83 86 85 85 90 91 89
97 98 96 95 98 96 75 75 72 58 75 81 84 88 84 87 90 90 82 84 90 83 77 86 90 89 92 96 94 97 94 89 82 85 87 83 84 87 87 88 91 92 93 94
86 95 97 96 94 80 75 76 83 77 74 88 93 88 92 92 85 96 82 84 95 96 88 98 93 97 98 98 97 94 96 94 81 89 91 92 88 92 92 94 95 92 93 92
82 82 92 95 96 96 78 75 70 67 82 88 87 91 92 85 95 98 97 95 99 98 96 98 98 98 96 98 96 94 94 92 95 94 92 90 86 89 91 91 93 92 97 92
97 97 94 95 94 85 77 69 59 78 80 87 86 88 88 93 94 95 97 99 97 96 96 96 96 98 98 95 94 96 95 96 95 92 89 89 90 85 88 90 92 93 95 88
86 91 95 92 96 92 76 73 72 84 95 93 93 89 92 94 93 97 97 98 97 96 97 95 96 96 90 87 84 95 96 95 94 93 91 94 94 91 87 88 91 89 90 88
88 86 88 83 87 95 94 94 91 88 92 96 95 93 94 95 98 95 98 96 98 98 96 88 89 85 85 86 89 94 87 83 84 87 92 93 92 94 84 86 88 86 88 88
89 81 92 84 95 97 95 89 88 88 90 93 92 90 88 95 96 98 97 97 97 95 88 86 85 84 85 80 77 79 76 77 73 77 79 80 83 85 83 74 74 80 82 85
85 81 91 95 97 94 93 89 92 92 90 93 90 86 90 92 95 94 96 97 97 97 95 88 87 85 84 80 80 83 81 73 62 68 74 79 79 83 83 82 80 76 80 72
85 92 90 88 81 83 91 93 87 91 94 90 89 90 85 86 94 93 97 94 93 96 94 94 91 86 83 81 82 81 80 73 70 71 77 84 82 85 80 80 81 73 69 66

GFSCGP_sfc_rhum_123.txt.gz
RH
52 57 57 50 52 42 45 46 49 47 41 49 47 42 36 37 64 71 66 68 75 72 63 58 61 60 58 60 59 62 68 71 68 64 65 62 63 63 61 61 67 69 72 76
57 65 54 50 53 51 53 56 54 50 45 45 43 44 51 64 78 80 79 78 77 72 66 62 62 61 63 64 65 64 66 68 69 65 66 66 67 63 65 63 67 67 71 75
58 43 53 52 57 60 60 60 60 58 51 46 48 46 63 60 68 74 76 74 75 78 79 73 68 68 69 70 69 69 72 71 73 69 60 61 62 61 62 63 64 66 70 72
60 52 55 59 60 56 66 54 55 58 55 58 50 59 56 67 68 79 82 91 91 87 80 77 75 71 70 71 69 66 70 74 75 75 71 71 75 78 71 69 66 67 70 73
48 54 60 60 52 54 52 52 52 56 61 68 59 64 66 64 66 92 88 89 89 91 91 87 80 78 70 69 70 77 69 73 77 79 78 79 78 75 71 69 72 72 71 71
48 48 47 47 56 48 52 58 61 68 68 77 56 55 60 66 67 85 87 86 86 88 85 80 79 78 81 79 73 68 72 73 76 78 80 87 85 80 78 76 76 75 71 72
59 57 51 48 57 61 52 62 67 76 85 65 59 67 47 76 72 71 78 86 90 87 87 87 88 83 82 82 80 82 82 82 77 74 74 77 79 78 78 78 78 79 75 76
66 52 56 50 46 53 63 53 60 74 72 54 60 67 55 70 73 70 75 81 84 89 91 91 85 83 83 80 77 75 75 75 75 78 80 78 75 77 76 75 76 76 77 75
67 58 59 61 56 47 69 72 52 72 81 85 53 55 75 77 83 84 89 84 88 87 88 87 84 80 79 77 78 80 78 75 75 76 76 74 74 75 78 77 75 75 74 71
52 58 53 60 51 55 57 53 85 95 85 79 53 58 66 99 100 94 95 99 98 89 84 80 75 76 75 73 76 77 76 78 78 76 77 77 76 76 76 74 78 77 75 76
52 53 61 64 65 64 66 68 69 69 81 68 56 62 81 92 78 87 88 94 95 85 79 73 70 68 70 72 76 80 79 80 82 77 77 79 80 78 77 77 77 78 76 76
57 66 67 60 63 51 53 60 65 88 91 94 88 66 67 65 65 74 80 87 78 75 70 65 64 64 67 71 73 75 79 81 82 78 79 80 78 77 76 78 76 77 77 76
72 86 78 75 78 70 70 67 66 76 81 80 89 54 71 67 70 75 80 76 72 68 64 62 63 67 68 73 75 76 80 82 79 76 79 80 78 78 77 74 74 73 74 74
74 86 73 70 72 70 87 74 67 78 89 75 64 53 78 77 82 75 75 70 68 66 64 64 68 69 69 70 75 77 81 76 73 70 72 77 75 75 74 71 71 73 73 74
82 76 75 64 58 64 59 59 63 76 72 80 56 62 55 75 80 78 70 71 71 69 67 67 70 70 72 71 71 70 72 68 65 67 71 74 69 68 69 71 70 70 72 72
86 80 77 74 70 72 78 67 66 64 66 73 71 82 65 66 75 77 74 72 69 70 68 70 71 69 74 71 72 73 75 69 64 67 68 66 67 66 72 70 70 69 70 70
92 90 93 81 68 85 94 71 65 62 60 64 78 64 72 78 79 78 75 70 70 71 69 74 77 78 79 81 73 77 75 64 65 69 68 70 76 78 80 74 73 78 80 79
92 96 97 81 82 95 45 60 61 67 61 58 61 72 71 69 74 74 68 71 71 70 76 80 83 82 82 85 83 82 69 67 70 72 74 72 75 80 81 82 86 87 85 88
74 80 87 91 85 69 52 62 79 82 66 68 67 78 86 86 79 92 74 71 77 79 88 92 86 86 92 93 85 82 80 73 66 78 80 78 79 85 85 92 89 87 86 86
82 78 88 95 91 81 72 62 56 55 72 68 75 86 92 83 97 83 81 82 91 89 89 90 96 94 92 93 84 85 86 78 85 82 80 75 73 84 91 90 89 86 83 85
95 97 96 95 90 74 61 59 48 76 83 75 81 86 87 89 82 90 90 93 91 89 91 89 88 96 96 88 89 91 88 92 85 80 80 77 73 75 81 83 85 87 84 83
78 86 86 88 88 86 61 60 62 86 88 82 87 86 92 94 95 97 95 97 97 96 90 85 90 90 80 69 68 87 92 88 85 83 83 86 78 75 76 83 83 82 83 82
88 88 87 75 80 84 82 84 83 77 82 89 87 87 86 93 96 95 97 96 97 94 89 78 76 72 69 67 64 70 74 71 74 77 88 81 77 80 73 76 81 74 79 78
70 69 76 75 80 79 86 80 74 75 80 84 80 83 87 95 94 94 96 97 96 92 79 70 66 68 72 67 68 66 62 56 57 60 62 65 65 65 65 56 57 62 69 73
64 67 73 80 89 87 83 77 76 82 80 84 81 82 86 91 96 89 92 93 92 92 84 68 66 68 72 65 66 65 60 50 53 57 58 61 60 60 61 70 66 62 72 65
72 85 79 72 65 68 78 82 78 84 86 83 82 82 77 79 88 85 91 82 80 88 82 79 76 71 69 62 67 67 59 53 53 56 60 65 61 62 57 54 61 70 66 64

GFSCGP_sfc_rhum_126.txt.gz
RH
36 29 25 17 23 21 22 21 19 16 20 30 24 23 21 26 37 43 46 50 53 55 49 45 48 47 46 49 50 54 60 66 65 56 60 60 61 51 48 46 56 58 60 66
41 33 19 32 32 33 28 27 24 21 29 33 23 25 30 42 53 55 53 56 60 58 54 50 47 47 50 50 51 54 60 65 64 60 62 57 60 49 49 49 52 56 60 65
20 23 33 36 34 32 30 31 25 29 29 26 32 23 43 48 54 58 60 59 61 63 59 54 52 51 48 51 52 49 52 60 66 67 61 58 52 50 51 50 50 56 60 66
28 22 32 33 29 30 26 26 32 35 35 30 33 27 32 37 50 52 54 62 61 60 57 59 55 61 56 56 57 54 58 53 56 62 61 64 52 50 54 51 54 56 61 68
28 40 38 35 28 34 26 35 36 37 38 39 30 40 24 35 41 48 50 63 64 66 70 66 67 66 64 63 63 62 57 58 61 63 69 67 65 58 52 52 60 60 62 63
26 33 30 27 37 34 34 40 42 43 39 49 26 31 17 36 34 42 49 57 61 69 68 70 69 67 65 59 57 59 60 59 62 68 67 70 72 75 68 65 62 59 62 64
33 36 32 33 37 40 36 42 46 40 48 32 37 37 26 32 38 42 51 55 66 68 74 74 69 63 62 63 62 59 58 57 60 66 70 70 73 71 72 77 75 73 72 71
42 45 35 33 30 31 40 37 36 41 31 28 39 46 36 40 44 49 48 55 67 79 80 73 69 65 65 61 63 63 60 60 61 65 68 65 67 67 69 72 75 80 76 72
36 28 33 39 32 31 47 55 31 44 41 60 30 24 56 57 67 60 60 66 76 80 72 74 69 67 66 59 69 70 64 61 63 66 68 69 71 72 72 69 69 74 75 68
33 31 35 47 39 36 41 33 69 62 62 54 27 28 44 84 92 71 71 80 82 77 75 66 57 59 61 63 66 70 67 70 67 69 68 67 70 70 70 66 71 71 70 71
29 34 43 50 48 38 49 53 52 48 48 50 42 44 66 84 61 71 68 71 82 78 65 59 52 51 57 60 64 69 72 72 73 71 70 70 71 70 68 70 71 70 70 71
39 42 42 42 28 30 29 34 41 72 73 74 72 57 38 39 44 47 49 64 79 66 60 50 47 49 56 61 62 64 70 71 71 69 71 73 71 68 67 69 69 70 70 69
50 66 62 46 48 44 45 36 36 44 52 73 80 46 45 42 41 43 52 73 72 64 52 46 47 51 56 61 63 65 68 67 64 62 65 65 65 65 65 64 65 66 65 66
61 49 57 49 49 59 93 65 52 58 92 62 49 37 30 47 49 55 65 70 68 59 52 46 49 56 60 62 63 61 65 61 58 56 57 61 60 59 57 56 58 61 59 60
50 56 42 37 35 38 51 49 42 50 55 72 48 38 28 27 43 53 61 65 64 58 53 51 52 59 61 64 61 60 61 58 57 57 61 63 57 55 57 59 58 58 58 54
56 58 45 45 33 34 38 33 32 34 34 38 39 44 30 29 40 54 64 70 62 59 54 53 53 61 62 63 60 61 58 53 50 54 56 57 58 55 61 60 62 59 58 59
67 66 63 62 40 52 70 46 37 34 31 37 45 33 24 34 50 63 71 60 60 63 64 57 62 64 68 66 63 63 56 49 50 53 55 59 67 68 71 63 62 67 69 65
64 72 68 68 64 93 35 30 32 33 34 34 34 32 32 37 48 59 58 61 66 63 62 65 70 68 68 69 72 61 51 52 54 58 63 62 65 74 74 76 80 82 86 86
52 61 84 81 56 40 31 35 71 76 50 35 42 37 38 54 64 78 61 62 69 69 80 96 72 74 81 78 69 66 60 56 52 68 71 74 74 80 79 80 81 84 84 85
50 57 72 64 73 68 59 26 38 47 68 31 39 40 69 72 90 76 73 71 90 95 87 85 94 92 89 89 74 73 73 65 80 74 72 63 71 79 81 83 81 84 86 85
86 91 92 81 79 55 44 43 42 77 61 48 50 59 70 85 81 95 91 98 100 86 83 80 84 92 91 89 88 85 80 83 76 70 71 70 63 75 78 80 84 82 81 81
55 67 86 86 90 89 52 49 57 76 67 62 71 73 91 92 91 99 99 97 96 93 84 78 84 82 64 56 61 82 85 84 79 73 75 78 75 71 72 77 80 78 78 77
79 80 71 66 64 66 49 64 69 60 60 71 76 79 83 93 96 98 97 92 93 89 79 71 67 59 50 44 44 54 61 64 69 72 78 77 72 75 66 70 74 68 74 71
49 52 70 69 57 56 66 61 57 57 61 68 66 73 80 95 93 92 93 92 90 86 67 54 53 53 53 48 46 46 46 42 43 46 48 49 52 53 50 44 47 53 61 65
50 55 58 76 69 64 59 62 58 62 64 67 67 69 83 87 90 84 88 88 86 83 73 54 53 54 54 45 47 44 40 37 39 41 43 44 44 46 50 58 59 53 67 60
59 83 74 66 49 52 65 60 61 69 72 70 68 73 68 71 82 77 83 77 75 80 70 63 61 56 50 47 49 46 41 38 38 39 42 47 43 43 39 38 52 64 62 59